[[{"header":{"parameterUnit":"m.s-1","parameterCategory":1,"la1":31.0,"la2":29.5877,"lo1":-88.7671,"lo2":-86.6584,"dy":0.0162,"dx":0.0185,"nx":115,"ny":88,"refTime":"2024-07-05T06:00:00:Z","depth":0,"parameterNumber":2,"parameterNumberName":"U-component_of_WINDS"},"data":[0.0,0.0,0.0,0.0,0.0,0.0,0.0,0.0,0.0,0.0,0.0,0.0,0.0,0.0,0.0,0.0,0.0,0.0,0.0,0.0,0.0,0.0,0.0,0.0,0.0,0.0,0.0,0.0,0.0,0.0,0.0,0.0,0.0,0.0,0.0,0.0,0.0,0.0,0.0,0.0,0.0,0.0,0.0,0.0,0.0,0.0,0.0,0.0,0.0,0.0,0.0,0.0,0.0,0.0,0.0,0.0,0.0,0.0,0.0,0.0,0.0,0.0,0.0,0.0,0.0,0.0,0.0,0.0,0.0,0.0,0.0,0.0,0.0,0.0,0.0,0.0,0.0,0.0,0.0,0.0,0.0,0.0,0.0,0.0,0.0,0.0,0.0,0.0,0.0,0.0,0.0,0.0,0.0,0.0,0.0,0.0,0.0,0.0,0.0,0.0,0.0,0.0,0.0,0.0,0.0,0.0,0.0,0.0,0.0,0.0,0.0,0.0,0.0,0.0,0.0,0.0,0.0,0.0,0.0,0.0,0.0,0.0,0.0,0.0,0.0,0.0,0.0,0.0,0.0,0.0,0.0,0.0,0.0,0.0,0.0,0.0,0.0,0.0,0.0,0.0,0.0,0.0,0.0,0.0,0.0,0.0,0.0,0.0,0.0,0.0,0.0,0.0,0.0,0.0,0.0,0.0,0.0,0.0,0.0,0.0,0.0,0.0,0.0,0.0,0.0,0.0,0.0,0.0,0.0,0.0,0.0,0.0,0.0,0.0,0.0,0.0,0.0,0.0,0.0,0.0,0.0,0.0,0.0,0.0,0.0,0.0,0.0,0.0,0.0,0.0,0.0,0.0,0.0,0.0,0.0,0.0,0.0,0.0,0.0,0.0,0.0,0.0,0.0,0.0,0.0,0.0,0.0,0.0,0.0,0.0,0.0,0.0,0.0,0.0,0.0,0.0,0.0,0.0,0.0,0.0,0.0,0.0,0.0,0.0,0.0,0.0,0.0,0.0,0.0,0.0,0.0,0.0,0.0,0.0,0.0,0.0,0.0,0.0,0.0,0.0,0.0,0.0,0.0,0.0,0.0,0.0,0.0,0.0,0.0,0.0,0.0,0.0,0.0,0.0,0.0,0.0,0.0,0.0,0.0,0.0,0.0,0.0,0.0,0.0,0.0,0.0,0.0,0.0,0.0,0.0,0.0,0.0,0.0,0.0,0.0,0.0,0.0,0.0,0.0,0.0,0.0,0.0,0.0,0.0,0.0,0.0,0.0,0.0,0.0,0.0,0.0,0.0,0.0,0.0,0.0,0.0,0.0,0.0,0.0,0.0,0.0,0.0,0.0,0.0,0.0,0.0,0.0,0.0,0.0,0.0,0.0,0.0,0.0,0.0,0.0,0.0,0.0,0.0,0.0,0.0,0.0,0.0,0.0,0.0,0.0,0.0,0.0,0.0,0.0,0.0,0.0,0.0,0.0,0.0,0.0,0.0,0.0,0.0,0.0,0.0,0.0,0.0,0.0,0.0,0.0,0.0,0.0,0.0,0.0,0.0,0.0,0.0,0.0,0.0,0.0,0.0,0.0,0.0,0.0,0.0,0.0,0.0,0.0,0.0,0.0,0.0,0.0,0.0,0.0,0.0,0.0,0.0,0.0,0.0,0.0,0.0,0.0,0.0,0.0,0.0,0.0,0.0,0.0,0.0,0.0,0.0,0.0,0.0,0.0,0.0,0.0,0.0,0.0,0.0,0.0,0.0,0.0,0.0,0.0,0.0,0.0,0.0,0.0,0.0,0.0,0.0,0.0,0.0,0.0,0.0,0.0,0.0,0.0,0.0,0.0,0.0,0.0,0.0,0.0,0.0,0.0,0.0,0.0,0.0,0.0,0.0,0.0,0.0,0.0,0.0,0.0,0.0,0.0,0.0,0.0,0.0,0.0,0.0,0.0,0.0,0.0,0.0,0.0,0.0,0.0,0.0,0.0,0.0,0.0,0.0,0.0,0.0,0.0,0.0,0.0,0.0,0.0,0.0,0.0,0.0,0.0,0.0,0.0,0.0,0.0,0.0,0.0,0.0,0.0,0.0,0.0,0.0,0.0,0.0,0.0,0.0,0.0,0.0,0.0,0.0,0.0,0.0,0.0,0.0,0.0,0.0,0.0,0.0,0.0,0.0,0.0,0.0,0.0,0.0,0.0,0.0,0.0,0.0,0.0,0.0,0.0,0.0,0.0,0.0,0.0,0.0,0.0,0.0,0.0,0.0,0.0,0.0,0.0,0.0,0.0,0.0,0.0,0.0,0.0,0.0,0.0,0.0,0.0,0.0,0.0,0.0,0.0,0.0,0.0,0.0,0.0,0.0,0.0,0.0,0.0,0.0,0.0,0.0,0.0,0.0,0.0,0.0,0.0,0.0,0.0,0.0,0.0,0.0,0.0,0.0,0.0,0.0,0.0,0.0,0.0,0.0,0.0,0.0,0.0,0.0,0.0,0.0,0.0,0.0,0.0,0.0,0.0,0.0,0.0,0.0,0.0,0.0,0.0,0.0,0.0,0.0,0.0,0.0,0.0,0.0,0.0,0.0,0.0,0.0,0.0,0.0,0.0,0.0,0.0,0.0,0.0,0.0,0.0,0.0,0.0,0.0,0.0,0.0,0.0,0.0,0.0,0.0,0.0,0.0,0.0,0.0,0.0,0.0,0.0,0.0,0.0,0.0,0.0,0.0,0.0,0.0,0.0,0.0,0.0,0.0,0.0,0.0,0.0,0.0,0.0,0.0,0.0,0.0,0.0,0.0,0.0,0.0,0.0,0.0,0.0,0.0,0.0,0.0,0.0,0.0,0.0,0.0,0.0,0.0,0.0,0.0,0.0,0.0,0.0,0.0,0.0,0.0,0.0,0.0,0.0,0.0,0.0,0.0,0.0,0.0,0.0,0.0,0.0,0.0,0.0,0.0,0.0,0.0,0.0,0.0,0.0,0.0,0.0,0.0,0.0,0.0,0.0,0.0,0.0,0.0,0.0,0.0,0.0,0.0,0.0,0.0,0.0,0.0,0.0,0.0,0.0,0.0,0.0,0.0,0.0,0.0,0.0,0.0,0.0,0.0,0.0,0.0,0.0,0.0,0.0,0.0,0.0,0.0,0.0,0.0,0.0,0.0,0.0,0.0,0.0,0.0,0.0,0.0,0.0,0.0,0.0,0.0,0.0,0.0,0.0,0.0,0.0,0.0,0.0,0.0,0.0,0.0,0.0,0.0,0.0,0.0,0.0,0.0,0.0,0.0,0.0,0.0,0.0,0.0,0.0,0.0,0.0,0.0,0.0,0.0,0.0,0.0,0.0,0.0,0.0,0.0,0.0,0.0,0.0,0.0,0.0,0.0,0.0,0.0,0.0,0.0,0.0,0.0,0.0,0.0,0.0,0.0,0.0,0.0,0.0,0.0,0.0,0.0,0.0,0.0,0.0,0.0,0.0,0.0,0.0,0.0,0.0,0.0,0.0,0.0,0.0,0.0,0.0,0.0,0.0,0.0,0.0,0.0,0.0,0.0,0.0,0.0,0.0,0.0,0.0,0.0,0.0,0.0,0.0,0.0,0.0,0.0,0.0,0.0,0.0,0.0,0.0,0.0,0.0,0.0,0.0,0.0,0.0,0.0,0.0,0.0,0.0,0.0,0.0,0.0,0.0,0.0,0.0,0.0,0.0,0.0,0.0,0.0,0.0,0.0,0.0,0.0,0.0,0.0,0.0,0.0,0.0,0.0,0.0,0.0,0.0,0.0,0.0,0.0,0.0,0.0,0.0,0.0,0.0,0.0,0.0,0.0,0.0,0.0,0.0,0.0,0.0,0.0,0.0,0.0,0.0,0.0,0.0,0.0,0.0,0.0,0.0,0.0,0.0,0.0,0.0,0.0,0.0,0.0,0.0,0.0,0.0,0.0,0.0,0.0,0.0,0.0,0.0,0.0,0.0,0.0,0.0,0.0,0.0,0.0,0.0,0.0,0.0,0.0,0.0,0.0,0.0,0.0,0.0,0.0,0.0,0.0,0.0,0.0,0.0,0.0,0.0,0.0,0.0,0.0,0.0,0.0,0.0,0.0,0.0,0.0,0.0,0.0,0.0,0.0,0.0,0.0,0.0,0.0,0.0,0.0,0.0,0.0,0.0,0.0,0.0,0.0,0.0,0.0,0.0,0.0,0.0,0.0,0.0,0.0,0.0,0.0,0.0,0.0,0.0,0.0,0.0,0.0,0.0,0.0,0.0,0.0,0.0,0.0,0.0,0.0,-2.1917,0.0,0.0,0.0,0.0,0.0,0.0,0.0,0.0,0.0,0.0,0.0,0.0,0.0,0.0,0.0,0.0,0.0,0.0,0.0,0.0,0.0,0.0,0.0,0.0,0.0,0.0,0.0,0.0,0.0,0.0,0.0,0.0,0.0,0.0,0.0,0.0,0.0,0.0,0.0,0.0,0.0,0.0,0.0,0.0,0.0,0.0,0.0,0.0,0.0,0.0,0.0,0.0,0.0,0.0,0.0,0.0,0.0,0.0,0.0,0.0,0.0,0.0,0.0,0.0,0.0,0.0,0.0,0.0,0.0,0.0,0.0,0.0,0.0,0.0,0.0,0.0,0.0,0.0,0.0,0.0,0.0,0.0,0.0,0.0,0.0,0.0,0.0,0.0,0.0,0.0,0.0,0.0,0.0,0.0,0.0,0.0,0.0,0.0,0.0,0.0,0.0,0.0,0.0,0.0,0.0,0.0,0.0,0.0,0.0,0.0,-2.3452,-2.2837,-2.3596,-2.35,-2.2338,0.0,0.0,0.0,0.0,0.0,0.0,0.0,0.0,0.0,0.0,0.0,0.0,0.0,0.0,0.0,0.0,0.0,0.0,0.0,0.0,0.0,0.0,0.0,0.0,0.0,0.0,0.0,0.0,0.0,0.0,0.0,0.0,0.0,0.0,0.0,0.0,0.0,0.0,0.0,0.0,0.0,0.0,0.0,0.0,0.0,0.0,0.0,0.0,0.0,0.0,0.0,0.0,0.0,0.0,0.0,0.0,0.0,0.0,0.0,0.0,0.0,0.0,0.0,0.0,0.0,0.0,0.0,0.0,0.0,0.0,0.0,0.0,0.0,0.0,0.0,0.0,0.0,0.0,0.0,0.0,0.0,0.0,0.0,0.0,0.0,0.0,0.0,0.0,0.0,0.0,0.0,0.0,0.0,0.0,0.0,0.0,0.0,0.0,0.0,0.0,0.0,0.0,0.0,0.0,0.0,0.0,0.0,0.0,0.0,0.0,0.0,0.0,-2.4624,-2.4384,-2.3061,0.0,0.0,0.0,0.0,0.0,0.0,0.0,0.0,0.0,0.0,0.0,0.0,0.0,0.0,0.0,0.0,0.0,0.0,0.0,0.0,0.0,0.0,0.0,0.0,0.0,0.0,0.0,0.0,0.0,0.0,0.0,0.0,0.0,0.0,0.0,0.0,0.0,0.0,0.0,0.0,0.0,0.0,0.0,0.0,0.0,0.0,0.0,0.0,0.0,0.0,0.0,0.0,0.0,0.0,0.0,0.0,0.0,0.0,0.0,0.0,0.0,0.0,0.0,0.0,0.0,0.0,0.0,0.0,0.0,0.0,0.0,0.0,0.0,0.0,0.0,0.0,0.0,0.0,0.0,0.0,0.0,0.0,0.0,0.0,0.0,0.0,0.0,0.0,0.0,0.0,0.0,0.0,0.0,0.0,0.0,0.0,0.0,0.0,0.0,0.0,0.0,0.0,0.0,0.0,0.0,0.0,0.0,0.0,0.0,0.0,-2.4229,-2.5612,-2.5459,0.0,-2.4255,0.0,0.0,0.0,0.0,0.0,0.0,0.0,0.0,0.0,0.0,0.0,0.0,0.0,0.0,0.0,0.0,0.0,0.0,0.0,0.0,0.0,0.0,0.0,0.0,0.0,0.0,0.0,0.0,0.0,0.0,0.0,0.0,0.0,0.0,0.0,0.0,0.0,0.0,0.0,0.0,0.0,0.0,0.0,0.0,0.0,0.0,0.0,0.0,0.0,0.0,0.0,0.0,0.0,0.0,0.0,0.0,0.0,0.0,0.0,0.0,0.0,0.0,0.0,0.0,0.0,0.0,0.0,0.0,0.0,0.0,0.0,0.0,0.0,0.0,0.0,0.0,0.0,0.0,0.0,0.0,0.0,0.0,0.0,0.0,0.0,0.0,0.0,0.0,0.0,0.0,0.0,0.0,0.0,0.0,0.0,0.0,0.0,0.0,0.0,0.0,0.0,0.0,0.0,0.0,0.0,0.0,0.0,0.0,0.0,0.0,-2.5132,-2.6277,-2.5832,-2.5125,0.0,0.0,0.0,0.0,0.0,0.0,0.0,0.0,0.0,0.0,0.0,0.0,0.0,0.0,0.0,0.0,0.0,0.0,0.0,0.0,0.0,0.0,0.0,0.0,0.0,0.0,0.0,0.0,0.0,0.0,0.0,0.0,0.0,0.0,0.0,0.0,0.0,0.0,0.0,0.0,0.0,0.0,0.0,0.0,0.0,0.0,0.0,0.0,0.0,0.0,0.0,0.0,0.0,0.0,0.0,0.0,0.0,0.0,0.0,0.0,0.0,0.0,0.0,0.0,0.0,0.0,0.0,0.0,0.0,0.0,0.0,0.0,0.0,0.0,0.0,0.0,0.0,0.0,0.0,0.0,0.0,0.0,0.0,0.0,0.0,0.0,0.0,0.0,0.0,0.0,0.0,0.0,0.0,0.0,0.0,0.0,0.0,0.0,0.0,0.0,0.0,0.0,0.0,0.0,0.0,0.0,0.0,0.0,0.0,0.0,-2.5368,-2.613,-2.7053,-2.6507,-2.5569,-2.435,0.0,0.0,0.0,0.0,0.0,0.0,0.0,0.0,0.0,0.0,0.0,0.0,0.0,0.0,0.0,0.0,0.0,0.0,0.0,0.0,0.0,0.0,0.0,0.0,0.0,0.0,0.0,0.0,0.0,0.0,0.0,0.0,0.0,0.0,0.0,0.0,0.0,0.0,0.0,0.0,0.0,0.0,0.0,0.0,0.0,0.0,0.0,0.0,0.0,0.0,0.0,0.0,0.0,0.0,0.0,0.0,0.0,0.0,0.0,0.0,0.0,0.0,0.0,0.0,0.0,0.0,0.0,0.0,0.0,0.0,0.0,0.0,0.0,0.0,0.0,0.0,0.0,0.0,0.0,0.0,0.0,0.0,0.0,0.0,0.0,0.0,0.0,0.0,0.0,0.0,0.0,0.0,0.0,0.0,0.0,0.0,0.0,0.0,0.0,0.0,0.0,0.0,0.0,0.0,0.0,0.0,0.0,0.0,-2.7818,-2.7059,-2.7185,-2.8445,-2.7676,-2.6568,0.0,0.0,0.0,0.0,0.0,0.0,0.0,0.0,0.0,0.0,0.0,0.0,0.0,0.0,0.0,0.0,0.0,0.0,0.0,0.0,0.0,0.0,0.0,0.0,0.0,0.0,0.0,0.0,0.0,0.0,0.0,0.0,0.0,0.0,0.0,0.0,0.0,0.0,0.0,0.0,0.0,0.0,0.0,0.0,0.0,0.0,0.0,0.0,0.0,0.0,0.0,0.0,0.0,0.0,0.0,0.0,0.0,0.0,0.0,0.0,0.0,0.0,0.0,0.0,0.0,0.0,0.0,0.0,0.0,0.0,0.0,0.0,0.0,0.0,0.0,0.0,0.0,0.0,0.0,0.0,0.0,0.0,0.0,0.0,0.0,0.0,0.0,0.0,0.0,0.0,0.0,0.0,0.0,0.0,0.0,0.0,0.0,0.0,0.0,0.0,0.0,0.0,0.0,0.0,0.0,0.0,0.0,0.0,0.0,-2.6128,-2.7809,-2.9205,-3.0177,-2.8727,-2.7594,0.0,0.0,0.0,0.0,0.0,0.0,0.0,0.0,0.0,0.0,0.0,0.0,0.0,0.0,0.0,0.0,0.0,0.0,0.0,0.0,0.0,0.0,0.0,0.0,0.0,0.0,0.0,0.0,0.0,0.0,0.0,0.0,0.0,0.0,0.0,0.0,0.0,0.0,0.0,0.0,0.0,0.0,0.0,0.0,0.0,0.0,0.0,0.0,0.0,0.0,0.0,0.0,0.0,0.0,0.0,0.0,0.0,0.0,0.0,0.0,0.0,0.0,0.0,0.0,0.0,0.0,0.0,0.0,0.0,0.0,0.0,0.0,0.0,0.0,0.0,0.0,0.0,0.0,0.0,0.0,0.0,0.0,0.0,0.0,0.0,0.0,0.0,0.0,0.0,0.0,0.0,0.0,0.0,0.0,0.0,0.0,0.0,0.0,0.0,0.0,0.0,0.0,0.0,0.0,0.0,0.0,0.0,0.0,0.0,-2.656,0.0,-3.1455,-3.1374,-2.9877,-2.8584,0.0,0.0,0.0,0.0,0.0,0.0,0.0,0.0,0.0,0.0,0.0,0.0,0.0,0.0,0.0,0.0,0.0,0.0,0.0,0.0,0.0,0.0,0.0,0.0,0.0,0.0,0.0,0.0,0.0,0.0,0.0,0.0,0.0,0.0,0.0,0.0,0.0,0.0,0.0,0.0,0.0,0.0,0.0,0.0,0.0,0.0,0.0,0.0,0.0,0.0,0.0,0.0,0.0,0.0,0.0,0.0,0.0,0.0,0.0,0.0,0.0,0.0,0.0,0.0,0.0,0.0,0.0,0.0,0.0,0.0,0.0,0.0,0.0,0.0,0.0,0.0,0.0,0.0,0.0,0.0,0.0,0.0,0.0,0.0,0.0,0.0,0.0,0.0,0.0,0.0,0.0,0.0,0.0,0.0,0.0,0.0,0.0,0.0,0.0,0.0,0.0,0.0,0.0,0.0,0.0,0.0,0.0,0.0,-2.5474,-2.974,-3.2994,-3.3749,-3.1995,-3.1146,-2.9472,0.0,0.0,0.0,0.0,0.0,0.0,0.0,0.0,0.0,0.0,0.0,0.0,0.0,0.0,0.0,0.0,0.0,0.0,0.0,0.0,0.0,0.0,0.0,0.0,0.0,0.0,0.0,0.0,0.0,0.0,0.0,0.0,0.0,0.0,0.0,0.0,0.0,0.0,0.0,0.0,0.0,0.0,0.0,0.0,0.0,0.0,0.0,0.0,0.0,0.0,0.0,0.0,0.0,0.0,0.0,0.0,0.0,0.0,0.0,0.0,0.0,0.0,0.0,0.0,0.0,0.0,0.0,0.0,0.0,0.0,0.0,0.0,0.0,0.0,0.0,0.0,0.0,0.0,0.0,0.0,0.0,0.0,0.0,0.0,0.0,0.0,0.0,0.0,0.0,0.0,0.0,0.0,0.0,0.0,0.0,0.0,0.0,0.0,0.0,0.0,0.0,0.0,0.0,0.0,0.0,0.0,0.0,0.0,0.0,-2.9529,-3.2643,-3.4124,-3.367,-3.1633,-3.0275,0.0,0.0,0.0,0.0,0.0,0.0,0.0,0.0,0.0,0.0,0.0,0.0,0.0,0.0,0.0,0.0,0.0,0.0,0.0,0.0,0.0,0.0,0.0,0.0,0.0,0.0,0.0,0.0,0.0,0.0,0.0,0.0,0.0,0.0,0.0,0.0,0.0,0.0,0.0,0.0,0.0,0.0,0.0,0.0,0.0,0.0,0.0,0.0,0.0,0.0,0.0,0.0,0.0,0.0,0.0,0.0,0.0,0.0,0.0,0.0,0.0,0.0,0.0,0.0,0.0,0.0,0.0,0.0,0.0,0.0,0.0,0.0,0.0,0.0,0.0,0.0,0.0,0.0,0.0,0.0,0.0,0.0,0.0,0.0,0.0,0.0,0.0,0.0,0.0,0.0,0.0,0.0,0.0,0.0,0.0,0.0,0.0,0.0,0.0,0.0,0.0,0.0,0.0,0.0,0.0,0.0,0.0,0.0,0.0,-3.1085,-3.3864,-3.5146,-3.4642,-3.288,-3.158,-3.0803,0.0,0.0,0.0,0.0,0.0,0.0,0.0,0.0,0.0,0.0,0.0,0.0,0.0,0.0,0.0,0.0,0.0,0.0,0.0,0.0,0.0,0.0,0.0,0.0,0.0,0.0,0.0,0.0,0.0,0.0,0.0,0.0,0.0,0.0,0.0,0.0,0.0,0.0,0.0,0.0,0.0,0.0,0.0,0.0,0.0,0.0,0.0,0.0,0.0,0.0,0.0,0.0,0.0,0.0,0.0,0.0,0.0,0.0,0.0,0.0,0.0,0.0,0.0,0.0,0.0,0.0,0.0,0.0,0.0,0.0,0.0,0.0,0.0,0.0,0.0,0.0,0.0,0.0,0.0,0.0,0.0,0.0,0.0,0.0,0.0,0.0,0.0,0.0,0.0,0.0,0.0,0.0,0.0,0.0,0.0,0.0,0.0,0.0,0.0,0.0,0.0,0.0,0.0,0.0,0.0,0.0,0.0,0.0,-3.3831,-3.6301,-3.6762,-3.5145,-3.4677,-3.3255,0.0,0.0,0.0,0.0,0.0,0.0,0.0,0.0,0.0,0.0,0.0,0.0,0.0,0.0,0.0,0.0,0.0,0.0,0.0,0.0,0.0,0.0,0.0,0.0,0.0,0.0,0.0,0.0,0.0,0.0,0.0,0.0,0.0,0.0,0.0,0.0,0.0,0.0,0.0,0.0,0.0,0.0,0.0,0.0,0.0,0.0,0.0,0.0,0.0,0.0,0.0,0.0,0.0,0.0,0.0,0.0,0.0,0.0,0.0,0.0,0.0,0.0,0.0,0.0,0.0,0.0,0.0,0.0,0.0,0.0,0.0,0.0,0.0,0.0,0.0,0.0,0.0,0.0,0.0,0.0,0.0,0.0,0.0,0.0,0.0,0.0,0.0,0.0,0.0,0.0,0.0,0.0,0.0,0.0,0.0,0.0,0.0,0.0,0.0,0.0,0.0,0.0,0.0,0.0,0.0,0.0,0.0,0.0,0.0,-3.4634,-3.7155,-3.7994,-3.7023,-3.5348,-3.3703,0.0,0.0,0.0,0.0,0.0,0.0,0.0,0.0,0.0,0.0,0.0,0.0,0.0,0.0,0.0,0.0,0.0,0.0,0.0,0.0,0.0,0.0,0.0,0.0,0.0,0.0,0.0,0.0,0.0,0.0,0.0,0.0,0.0,0.0,0.0,0.0,0.0,0.0,0.0,0.0,0.0,0.0,0.0,0.0,0.0,0.0,0.0,0.0,0.0,0.0,0.0,0.0,0.0,0.0,0.0,0.0,0.0,0.0,0.0,0.0,0.0,0.0,0.0,0.0,0.0,0.0,0.0,0.0,0.0,0.0,0.0,0.0,0.0,0.0,0.0,0.0,0.0,0.0,0.0,0.0,0.0,0.0,0.0,0.0,0.0,0.0,0.0,0.0,0.0,0.0,0.0,0.0,0.0,0.0,0.0,0.0,0.0,0.0,0.0,0.0,0.0,0.0,0.0,0.0,0.0,0.0,0.0,0.0,-3.3936,-3.5418,-3.7521,-3.8623,-3.8662,-3.6852,-3.4796,0.0,0.0,0.0,0.0,0.0,0.0,0.0,0.0,0.0,0.0,0.0,0.0,0.0,0.0,0.0,0.0,0.0,0.0,0.0,0.0,0.0,0.0,0.0,0.0,0.0,0.0,0.0,0.0,0.0,0.0,0.0,0.0,0.0,0.0,0.0,0.0,0.0,0.0,0.0,0.0,0.0,0.0,0.0,0.0,0.0,0.0,0.0,0.0,0.0,0.0,0.0,0.0,0.0,0.0,0.0,0.0,0.0,0.0,0.0,0.0,0.0,0.0,0.0,0.0,0.0,0.0,0.0,0.0,0.0,0.0,0.0,0.0,0.0,0.0,0.0,0.0,0.0,0.0,0.0,0.0,0.0,0.0,0.0,0.0,0.0,0.0,0.0,0.0,0.0,0.0,0.0,0.0,0.0,0.0,0.0,0.0,0.0,0.0,0.0,0.0,0.0,0.0,0.0,0.0,0.0,0.0,0.0,0.0,-3.4561,-3.6386,-3.7786,-3.8949,-3.9842,-3.8592,-3.6135,0.0,0.0,0.0,0.0,0.0,0.0,0.0,0.0,0.0,0.0,0.0,0.0,0.0,0.0,0.0,0.0,0.0,0.0,0.0,0.0,0.0,0.0,0.0,0.0,0.0,0.0,0.0,0.0,0.0,0.0,0.0,0.0,0.0,0.0,0.0,0.0,0.0,0.0,0.0,0.0,0.0,0.0,0.0,0.0,0.0,0.0,0.0,0.0,0.0,0.0,0.0,0.0,0.0,0.0,0.0,0.0,0.0,0.0,0.0,0.0,0.0,0.0,0.0,0.0,0.0,0.0,0.0,0.0,0.0,0.0,0.0,0.0,0.0,0.0,0.0,0.0,0.0,0.0,0.0,0.0,0.0,0.0,0.0,0.0,0.0,0.0,0.0,0.0,0.0,0.0,0.0,0.0,0.0,0.0,0.0,0.0,0.0,0.0,0.0,0.0,0.0,0.0,0.0,0.0,0.0,0.0,0.0,0.0,-3.5688,-3.7811,-3.9085,-3.9843,-4.0045,-3.8592,-3.6326,0.0,0.0,0.0,0.0,0.0,0.0,0.0,0.0,0.0,0.0,0.0,0.0,0.0,0.0,0.0,0.0,0.0,0.0,0.0,0.0,0.0,0.0,0.0,0.0,0.0,0.0,0.0,0.0,0.0,0.0,0.0,0.0,0.0,0.0,0.0,0.0,0.0,0.0,0.0,0.0,0.0,0.0,0.0,0.0,0.0,0.0,0.0,0.0,-3.4446,0.0,0.0,0.0,0.0,0.0,0.0,0.0,0.0,0.0,0.0,0.0,0.0,0.0,0.0,0.0,0.0,0.0,0.0,0.0,0.0,0.0,0.0,0.0,0.0,0.0,0.0,0.0,0.0,0.0,0.0,0.0,0.0,0.0,0.0,0.0,0.0,0.0,0.0,0.0,0.0,0.0,0.0,0.0,0.0,0.0,0.0,0.0,0.0,0.0,0.0,0.0,0.0,0.0,0.0,0.0,0.0,0.0,0.0,0.0,-3.6618,-3.7978,-3.9242,-3.9927,-4.0037,-3.9185,-3.7188,0.0,0.0,0.0,0.0,0.0,0.0,0.0,0.0,0.0,0.0,0.0,0.0,0.0,0.0,0.0,0.0,0.0,0.0,0.0,0.0,0.0,0.0,0.0,0.0,0.0,0.0,0.0,0.0,0.0,0.0,0.0,0.0,0.0,0.0,0.0,0.0,0.0,0.0,0.0,0.0,0.0,0.0,0.0,0.0,0.0,0.0,0.0,0.0,0.0,0.0,0.0,0.0,0.0,0.0,0.0,0.0,0.0,0.0,0.0,0.0,0.0,0.0,0.0,0.0,0.0,0.0,0.0,0.0,0.0,0.0,0.0,0.0,0.0,0.0,0.0,0.0,0.0,0.0,0.0,0.0,0.0,0.0,0.0,0.0,0.0,0.0,0.0,0.0,0.0,0.0,0.0,0.0,0.0,0.0,0.0,0.0,0.0,0.0,0.0,0.0,0.0,0.0,0.0,0.0,0.0,0.0,0.0,-3.5153,-3.7177,-3.7886,-3.9085,-3.9833,-4.0087,-3.9833,-3.811,-3.48,0.0,0.0,0.0,0.0,0.0,0.0,0.0,0.0,0.0,0.0,0.0,0.0,0.0,0.0,0.0,0.0,0.0,0.0,0.0,0.0,0.0,0.0,0.0,0.0,0.0,0.0,0.0,0.0,0.0,0.0,0.0,0.0,0.0,0.0,0.0,0.0,0.0,0.0,-3.1681,-3.4341,0.0,0.0,0.0,0.0,0.0,0.0,0.0,0.0,-3.6137,0.0,0.0,0.0,0.0,0.0,0.0,0.0,0.0,0.0,0.0,0.0,0.0,0.0,0.0,0.0,0.0,0.0,0.0,0.0,0.0,0.0,0.0,0.0,0.0,0.0,0.0,0.0,0.0,0.0,0.0,0.0,0.0,0.0,0.0,0.0,0.0,0.0,0.0,0.0,0.0,0.0,0.0,0.0,0.0,0.0,0.0,0.0,0.0,0.0,0.0,0.0,0.0,0.0,0.0,0.0,0.0,-3.4008,-3.5509,-3.7023,-3.8597,-3.9629,-4.0146,-4.0096,-3.9816,-3.8337,-3.547,0.0,0.0,0.0,0.0,0.0,0.0,0.0,0.0,0.0,0.0,0.0,0.0,0.0,0.0,0.0,0.0,0.0,0.0,0.0,0.0,0.0,0.0,0.0,0.0,0.0,0.0,0.0,0.0,0.0,0.0,0.0,0.0,0.0,0.0,0.0,0.0,0.0,0.0,0.0,-3.6911,-3.8095,0.0,0.0,0.0,0.0,0.0,0.0,0.0,0.0,-3.6276,0.0,0.0,0.0,0.0,0.0,0.0,0.0,0.0,0.0,0.0,0.0,0.0,0.0,0.0,0.0,0.0,0.0,0.0,0.0,0.0,0.0,0.0,0.0,0.0,0.0,0.0,0.0,0.0,0.0,0.0,0.0,0.0,0.0,0.0,0.0,0.0,0.0,0.0,0.0,0.0,0.0,0.0,0.0,0.0,0.0,0.0,0.0,0.0,0.0,0.0,0.0,0.0,0.0,0.0,0.0,-3.3983,-3.6064,-3.7686,-3.8778,-3.9825,-4.0313,-4.0096,-3.9463,-3.7994,0.0,0.0,0.0,0.0,0.0,0.0,0.0,0.0,0.0,0.0,0.0,0.0,0.0,0.0,0.0,0.0,0.0,0.0,0.0,0.0,0.0,0.0,0.0,0.0,0.0,0.0,0.0,0.0,0.0,0.0,0.0,0.0,0.0,0.0,0.0,0.0,0.0,0.0,0.0,0.0,-3.8236,-3.9437,-3.9805,0.0,0.0,0.0,0.0,0.0,0.0,-3.746,-3.7164,0.0,0.0,0.0,0.0,0.0,0.0,0.0,0.0,0.0,0.0,0.0,0.0,0.0,0.0,0.0,0.0,0.0,0.0,0.0,0.0,0.0,0.0,0.0,0.0,0.0,0.0,0.0,0.0,0.0,0.0,0.0,0.0,0.0,0.0,0.0,0.0,0.0,0.0,0.0,0.0,0.0,0.0,0.0,0.0,0.0,0.0,0.0,0.0,0.0,0.0,0.0,0.0,0.0,0.0,0.0,-3.3731,-3.6398,-3.8202,-3.9018,-4.0095,-4.0577,-4.0323,-3.9151,-3.7544,0.0,0.0,0.0,0.0,0.0,0.0,0.0,0.0,0.0,0.0,0.0,0.0,0.0,0.0,0.0,0.0,0.0,0.0,0.0,0.0,0.0,0.0,0.0,0.0,0.0,0.0,0.0,0.0,0.0,0.0,0.0,0.0,0.0,0.0,0.0,0.0,0.0,0.0,0.0,0.0,0.0,-4.0731,-4.0662,-4.0501,0.0,0.0,0.0,0.0,-3.8312,-3.8783,0.0,0.0,0.0,0.0,0.0,0.0,0.0,0.0,0.0,0.0,0.0,0.0,0.0,0.0,0.0,0.0,0.0,0.0,0.0,0.0,0.0,0.0,0.0,0.0,0.0,0.0,0.0,0.0,0.0,0.0,0.0,0.0,0.0,0.0,0.0,0.0,0.0,0.0,0.0,0.0,0.0,0.0,0.0,0.0,0.0,0.0,0.0,0.0,0.0,0.0,0.0,0.0,0.0,0.0,0.0,0.0,-3.4315,-3.5902,-3.7694,-3.9714,-4.0757,-4.1278,-4.1128,-3.9216,-3.7211,0.0,0.0,0.0,0.0,0.0,0.0,0.0,0.0,0.0,0.0,0.0,0.0,0.0,0.0,0.0,0.0,0.0,0.0,0.0,0.0,0.0,0.0,0.0,0.0,0.0,0.0,0.0,0.0,0.0,0.0,0.0,0.0,0.0,0.0,0.0,0.0,0.0,0.0,0.0,0.0,0.0,-4.2245,-4.2146,-4.2088,-4.1963,0.0,0.0,-4.0944,-4.183,-4.1812,0.0,0.0,0.0,0.0,0.0,0.0,0.0,0.0,0.0,0.0,0.0,0.0,0.0,0.0,0.0,0.0,0.0,0.0,0.0,0.0,0.0,0.0,0.0,0.0,0.0,0.0,0.0,0.0,0.0,0.0,0.0,0.0,0.0,0.0,0.0,0.0,0.0,0.0,0.0,0.0,0.0,0.0,0.0,0.0,0.0,0.0,0.0,0.0,0.0,0.0,0.0,0.0,0.0,0.0,0.0,-3.1408,-3.4414,-3.572,-3.7298,-3.9266,-4.0056,-4.0354,-4.0161,-3.8427,-3.6354,0.0,0.0,0.0,0.0,0.0,0.0,0.0,0.0,0.0,0.0,0.0,0.0,0.0,0.0,0.0,0.0,0.0,0.0,0.0,0.0,0.0,0.0,0.0,0.0,0.0,0.0,0.0,0.0,0.0,0.0,0.0,0.0,0.0,0.0,0.0,0.0,0.0,0.0,0.0,0.0,0.0,0.0,-4.2199,-4.2514,0.0,0.0,0.0,-4.2286,-4.1911,0.0,0.0,0.0,0.0,0.0,0.0,0.0,0.0,0.0,0.0,0.0,0.0,0.0,0.0,0.0,0.0,0.0,0.0,0.0,0.0,0.0,0.0,0.0,0.0,0.0,0.0,0.0,0.0,0.0,0.0,0.0,0.0,0.0,0.0,0.0,0.0,0.0,0.0,0.0,0.0,0.0,0.0,0.0,0.0,0.0,0.0,0.0,0.0,0.0,0.0,0.0,0.0,0.0,0.0,0.0,0.0,0.0,-3.4031,-3.5578,-3.7247,-3.9072,-3.9606,-3.9758,-3.9523,-3.7943,0.0,0.0,0.0,0.0,0.0,0.0,0.0,0.0,0.0,0.0,0.0,0.0,0.0,0.0,0.0,0.0,0.0,0.0,0.0,0.0,0.0,0.0,0.0,0.0,0.0,0.0,0.0,-2.4774,0.0,0.0,0.0,0.0,0.0,0.0,0.0,0.0,0.0,0.0,0.0,0.0,0.0,0.0,-4.1681,-4.2092,-4.2754,-4.3395,0.0,0.0,-4.3097,-4.2041,-4.2221,-4.1907,0.0,0.0,0.0,0.0,0.0,0.0,0.0,0.0,0.0,0.0,0.0,0.0,0.0,0.0,0.0,0.0,0.0,0.0,0.0,0.0,0.0,0.0,0.0,0.0,0.0,0.0,0.0,0.0,0.0,0.0,0.0,0.0,0.0,0.0,0.0,0.0,0.0,0.0,0.0,0.0,0.0,0.0,0.0,0.0,0.0,0.0,0.0,0.0,0.0,0.0,0.0,0.0,0.0,0.0,-3.1535,-3.2934,-3.5449,-3.77,-3.9654,-4.0128,-4.0312,-4.0197,-3.8258,-3.5873,0.0,0.0,0.0,0.0,0.0,0.0,0.0,0.0,0.0,0.0,0.0,0.0,0.0,0.0,0.0,0.0,0.0,0.0,0.0,0.0,0.0,0.0,0.0,0.0,0.0,0.0,0.0,0.0,0.0,0.0,0.0,0.0,0.0,0.0,0.0,0.0,0.0,0.0,0.0,0.0,0.0,-4.1965,-4.2252,-4.3082,-4.4025,0.0,-4.3914,-4.3015,-4.3389,-4.3461,-4.3008,-4.1663,0.0,0.0,0.0,0.0,0.0,0.0,0.0,0.0,0.0,0.0,0.0,0.0,0.0,0.0,0.0,0.0,0.0,0.0,0.0,0.0,0.0,0.0,0.0,0.0,0.0,0.0,0.0,0.0,0.0,0.0,0.0,0.0,0.0,0.0,0.0,0.0,0.0,0.0,0.0,0.0,0.0,0.0,0.0,0.0,0.0,0.0,0.0,0.0,0.0,0.0,0.0,0.0,0.0,-3.1494,-3.3331,-3.5241,-3.6958,-3.8325,-3.8545,-3.8513,-3.8296,-3.7093,-3.4941,0.0,0.0,0.0,0.0,0.0,0.0,0.0,0.0,0.0,0.0,0.0,0.0,0.0,0.0,0.0,0.0,0.0,0.0,0.0,0.0,0.0,0.0,0.0,0.0,0.0,0.0,0.0,0.0,-2.8841,-2.9657,-3.0131,0.0,0.0,0.0,0.0,0.0,0.0,0.0,0.0,0.0,0.0,-4.1119,-4.2683,-4.3469,0.0,0.0,-4.4542,-4.4007,-4.4194,-4.3547,-4.2802,-4.2309,-4.1152,0.0,0.0,0.0,0.0,0.0,0.0,0.0,0.0,0.0,0.0,0.0,0.0,0.0,0.0,0.0,0.0,0.0,0.0,0.0,0.0,0.0,0.0,0.0,0.0,0.0,0.0,0.0,0.0,0.0,0.0,0.0,0.0,0.0,0.0,0.0,0.0,0.0,0.0,0.0,0.0,0.0,0.0,0.0,0.0,0.0,0.0,0.0,0.0,0.0,0.0,0.0,0.0,-3.1715,-3.3214,-3.5099,-3.6492,-3.7397,-3.7364,-3.7187,-3.6912,-3.6423,-3.4664,0.0,0.0,0.0,0.0,0.0,0.0,0.0,0.0,0.0,0.0,0.0,0.0,0.0,0.0,0.0,0.0,0.0,0.0,0.0,0.0,0.0,0.0,0.0,0.0,0.0,0.0,0.0,0.0,-2.9716,-3.0411,-3.0762,0.0,0.0,0.0,0.0,0.0,0.0,0.0,0.0,0.0,0.0,-4.1052,-4.2723,-4.3541,-4.4248,-4.4878,-4.467,-4.4373,-4.4159,-4.3293,-4.2619,-4.2435,0.0,0.0,0.0,0.0,0.0,0.0,0.0,0.0,0.0,0.0,0.0,0.0,0.0,0.0,0.0,0.0,0.0,0.0,0.0,0.0,0.0,0.0,0.0,0.0,0.0,0.0,0.0,0.0,0.0,0.0,-2.3105,0.0,0.0,0.0,0.0,0.0,0.0,0.0,0.0,0.0,0.0,0.0,0.0,0.0,0.0,0.0,0.0,0.0,0.0,0.0,0.0,0.0,0.0,-3.2203,-3.2185,-3.5017,-3.6721,-3.7159,-3.7058,-3.6897,-3.6685,-3.6553,-3.5379,-3.2948,0.0,0.0,0.0,0.0,0.0,0.0,0.0,0.0,0.0,0.0,0.0,0.0,0.0,0.0,0.0,0.0,0.0,0.0,0.0,0.0,0.0,0.0,0.0,0.0,0.0,0.0,-3.0418,-3.1261,-3.1768,0.0,0.0,0.0,0.0,0.0,0.0,0.0,0.0,0.0,0.0,-4.0486,-4.2166,-4.2242,-4.3221,-4.402,-4.405,-4.4011,-4.3799,-4.316,-4.291,-4.2614,0.0,0.0,0.0,0.0,0.0,0.0,0.0,0.0,0.0,0.0,0.0,0.0,0.0,0.0,0.0,0.0,0.0,0.0,0.0,0.0,0.0,0.0,0.0,0.0,0.0,0.0,0.0,-2.3807,-2.3297,0.0,0.0,0.0,0.0,0.0,0.0,0.0,0.0,0.0,0.0,0.0,-3.0024,-2.9946,0.0,0.0,0.0,0.0,0.0,0.0,0.0,0.0,0.0,0.0,0.0,0.0,-3.1944,-3.245,-3.4878,-3.616,-3.6198,-3.6163,-3.6067,-3.5902,-3.5753,-3.4475,-3.1951,0.0,0.0,0.0,0.0,0.0,0.0,0.0,0.0,0.0,0.0,0.0,0.0,0.0,0.0,0.0,0.0,0.0,0.0,0.0,0.0,0.0,0.0,0.0,0.0,0.0,-2.9845,0.0,0.0,0.0,0.0,0.0,0.0,0.0,0.0,0.0,0.0,0.0,-3.7952,-3.9753,-4.0863,-4.1746,-4.244,-4.3272,-4.3832,0.0,0.0,0.0,0.0,0.0,0.0,0.0,0.0,0.0,0.0,0.0,0.0,0.0,0.0,-4.0155,-3.9187,-3.8089,-3.7298,-3.7184,0.0,0.0,0.0,0.0,0.0,0.0,0.0,0.0,0.0,0.0,0.0,0.0,0.0,0.0,-2.5362,0.0,-2.4573,0.0,0.0,0.0,0.0,0.0,0.0,0.0,0.0,-3.0471,-3.1297,-3.1897,-3.1737,-3.1678,0.0,-3.1737,-3.0347,0.0,0.0,0.0,0.0,0.0,0.0,0.0,0.0,-3.1967,-3.2475,-3.4714,-3.5799,-3.5638,-3.5574,-3.5459,-3.5294,-3.4868,-3.3674,-3.1729,-3.0145,-2.8527,0.0,0.0,0.0,0.0,0.0,0.0,0.0,0.0,0.0,0.0,0.0,0.0,0.0,0.0,0.0,0.0,0.0,0.0,0.0,0.0,0.0,0.0,0.0,-3.0765,0.0,0.0,0.0,0.0,0.0,0.0,0.0,0.0,0.0,-3.697,-3.8003,-3.9239,-4.0673,-4.1436,-4.2016,-4.2434,0.0,0.0,0.0,0.0,0.0,0.0,0.0,-4.0868,-4.0965,-4.074,-4.0666,-4.104,-4.1983,-4.2626,-4.2425,0.0,0.0,-4.0884,-3.9807,-3.9068,-3.915,-3.8974,-3.8833,-3.8811,-3.8649,-3.8501,0.0,0.0,0.0,0.0,0.0,0.0,0.0,0.0,-2.7937,-2.7598,0.0,-2.6316,0.0,0.0,0.0,0.0,0.0,-2.8901,0.0,0.0,-3.2601,-3.3216,-3.2481,-3.2225,-3.2105,-3.2119,-3.1996,-3.1689,-3.1205,-3.1214,0.0,0.0,0.0,0.0,0.0,0.0,-3.2165,-3.2259,-3.4469,-3.5589,-3.5457,-3.5261,-3.5049,-3.4802,-3.3934,-3.3105,-3.2252,-3.0275,-2.8859,-2.8249,-2.6548,0.0,0.0,0.0,0.0,0.0,0.0,0.0,0.0,0.0,0.0,0.0,0.0,0.0,0.0,0.0,0.0,0.0,0.0,0.0,0.0,-3.1119,0.0,0.0,0.0,0.0,0.0,0.0,0.0,0.0,0.0,0.0,-3.7485,-3.9654,-4.1111,-4.079,0.0,0.0,0.0,0.0,-4.1813,-4.1012,-4.0855,-4.0893,-4.0899,-4.1287,-4.1651,-4.2015,0.0,0.0,-4.2447,-4.288,-4.3105,-4.256,-4.291,-4.2976,-4.2021,-4.0632,-3.9571,-3.9527,-3.9142,-3.8556,-3.8475,-3.8603,-3.8388,-3.2064,0.0,0.0,0.0,0.0,-2.818,-2.8264,-2.8445,-2.8598,-2.8301,-2.7712,-2.7521,0.0,0.0,0.0,0.0,0.0,0.0,-3.0935,-3.2557,-3.3032,-3.3862,-3.502,-3.4366,-3.433,-3.4758,-3.425,-3.3942,-3.3829,-3.3828,-3.2422,-2.9756,0.0,0.0,0.0,0.0,-3.1594,-3.2306,-3.3776,-3.4739,-3.5082,-3.4654,-3.4085,-3.336,-3.3066,-3.2625,-3.1944,-3.0936,-3.0078,-2.9343,-2.7571,0.0,0.0,0.0,0.0,0.0,0.0,0.0,0.0,0.0,0.0,0.0,0.0,0.0,0.0,0.0,0.0,0.0,0.0,0.0,-3.033,-3.1723,-3.2458,0.0,0.0,0.0,0.0,0.0,0.0,0.0,0.0,0.0,-3.8917,-3.9441,-3.9783,0.0,0.0,-4.1198,-4.0356,-4.1311,-4.2,-4.1783,-4.1754,0.0,0.0,-4.1636,-4.1233,-4.1775,-4.2223,-4.2386,-4.2207,-4.2777,-4.323,-4.3075,-4.321,-4.319,-4.2932,-4.254,-4.2139,-4.2125,-4.1976,-4.1896,-4.1843,-4.175,-4.1735,-3.4179,-3.1708,-3.0441,-2.9944,-3.0031,-2.9959,-3.0163,-3.0572,-3.0423,-3.0111,-2.9712,-2.9155,-2.8872,-2.8838,-2.9195,0.0,0.0,0.0,-3.2288,-3.3795,-3.386,-3.4519,-3.5585,-3.5093,-3.5056,-3.5394,-3.4926,-3.4735,-3.4802,-3.4471,-3.3419,-3.1572,0.0,0.0,-2.9737,-3.0617,-3.1332,-3.1925,-3.3106,-3.3934,-3.4337,-3.4133,-3.377,-3.3178,-3.2881,-3.2417,-3.1799,-3.0949,-3.0103,-2.9354,-2.8039,-2.6962,0.0,0.0,0.0,0.0,0.0,0.0,0.0,0.0,0.0,0.0,0.0,-2.6602,-2.6614,0.0,0.0,0.0,-2.9214,-2.9928,-3.1156,-3.1881,0.0,0.0,0.0,0.0,0.0,0.0,0.0,-3.6951,-3.8328,-3.9342,-3.9467,-3.9621,-3.9867,-4.0406,-4.1077,-4.1249,-4.0354,0.0,-4.1814,-4.1523,-4.1518,-4.1729,-4.2115,-4.1705,-4.1557,-4.2288,-4.2471,-4.2564,-4.2579,-4.3026,-4.3235,-4.3195,-4.321,-4.317,-4.309,-4.3065,-4.313,-4.325,-4.3305,-4.3305,-4.3305,-4.3305,-4.3305,-3.579,-3.5473,-3.3502,-3.2482,-3.2227,-3.2227,-3.2704,-3.344,-3.2826,-3.2602,-3.2482,-3.1171,-3.0905,-3.147,-3.1397,0.0,-3.2511,-3.3182,-3.3776,-3.4292,-3.4899,-3.5111,-3.4942,-3.4779,-3.4693,-3.4737,-3.4511,-3.4481,-3.4635,-3.3933,-3.3547,-3.3441,-3.254,-3.1492,-3.042,-3.0876,-3.1216,-3.1338,-3.2478,-3.3171,-3.3367,-3.3632,-3.3709,-3.3556,-3.284,-3.2177,-3.1642,-3.0344,-2.9322,-2.8712,-2.8089,-2.7125,-2.5894,0.0,0.0,0.0,0.0,0.0,0.0,0.0,0.0,0.0,0.0,0.0,0.0,0.0,0.0,0.0,-3.0361,0.0,-3.2003,-3.1884,0.0,0.0,0.0,-3.4364,-3.5318,-3.6593,-3.7742,-3.8805,0.0,0.0,-3.9524,-4.0144,-4.0945,-4.222,-4.2452,-4.2214,-4.147,-4.1542,-4.1391,-4.0788,-4.0817,-4.1032,-4.1474,-4.1947,-4.252,-4.3011,-4.3265,-4.318,-4.318,-4.318,-4.317,-4.3036,-4.2996,-4.2915,-4.2729,-4.2743,-4.2809,-4.309,-4.325,-4.325,-4.317,-4.321,-4.3275,-3.7798,-3.7505,-3.6311,-3.4805,-3.3169,-3.3154,-3.3289,-3.3484,-3.332,-3.326,-3.3245,-3.2901,-3.2826,-3.299,-3.3483,-3.3796,-3.4007,-3.468,-3.4971,-3.4976,-3.496,-3.5118,-3.539,-3.4767,-3.4729,-3.5165,-3.468,-3.4414,-3.4448,-3.4288,-3.3868,-3.3273,-3.2342,-3.1428,-3.0552,-3.0133,-3.0477,-3.1502,-3.1813,-3.2128,-3.2412,-3.2489,-3.2055,-3.1035,-3.0368,-3.0097,-3.0244,-2.8968,-2.8589,-2.9249,-2.783,-2.7185,-2.7706,-2.5928,0.0,0.0,0.0,0.0,0.0,0.0,0.0,0.0,0.0,-2.761,-2.708,0.0,-3.0033,0.0,-3.1242,-3.1834,-3.1736,-3.2382,0.0,0.0,-3.3866,-3.4992,-3.5767,-3.6624,-3.7632,-3.8765,-3.9336,-3.9879,-4.044,-4.1038,-4.1594,-4.2075,-4.1328,-4.0764,-4.0908,-4.1237,-4.1418,-4.1291,-4.1773,-4.2585,-4.3381,-4.385,-4.3655,-4.2942,-4.285,-4.285,-4.285,-4.285,-4.285,-4.2754,-4.2769,-4.2769,-4.2688,-4.2688,-4.2566,-4.2415,-4.2699,-4.2915,-4.2456,-4.2835,-4.3021,-3.8355,-3.7937,-3.7205,-3.5723,-3.3855,-3.4295,-3.4476,-3.4367,-3.4068,-3.3933,-3.3948,-3.3948,-3.3933,-3.3993,-3.4668,-3.4921,-3.4966,-3.5228,-3.5261,-3.5082,-3.4883,-3.4907,-3.5044,-3.4608,-3.4603,-3.4956,-3.4574,-3.438,-3.438,-3.438,-3.4158,-3.3724,-3.2956,-3.2255,-3.1499,-3.0105,-2.9821,-3.0559,-3.0899,-3.1388,-3.2064,-3.1932,-3.1336,-3.0271,-2.9923,-2.9589,-2.9321,-2.8527,-2.8254,-2.8615,-2.7542,-2.7041,-2.7333,-2.6007,-2.5131,0.0,0.0,0.0,0.0,0.0,0.0,0.0,0.0,0.0,0.0,0.0,-3.0346,-3.0716,-3.1455,-3.1962,-3.2102,-3.2671,-3.3041,-3.3139,-3.4926,-3.6309,-3.6697,-3.7993,-3.9087,-3.9745,-4.053,-4.1049,-4.1198,-4.1569,-4.2055,-4.244,-4.1628,-4.1079,-4.136,-4.1852,-4.2173,-4.1909,-4.2346,-4.2909,-4.3761,-4.3779,-4.3514,-4.2795,-4.2673,-4.2688,-4.2688,-4.2688,-4.2648,-4.2581,-4.2581,-4.2459,-4.2158,-4.2131,-4.1951,-4.1492,-4.1603,-4.1811,-4.1617,-4.24,-4.2802,-3.8339,-3.778,-3.731,-3.6168,-3.4778,-3.551,-3.5548,-3.5076,-3.4511,-3.4334,-3.444,-3.4562,-3.4638,-3.4637,-3.525,-3.5472,-3.5439,-3.5279,-3.5067,-3.4868,-3.4765,-3.4597,-3.4414,-3.438,-3.438,-3.438,-3.438,-3.438,-3.438,-3.438,-3.4337,-3.4216,-3.3725,-3.3172,-3.2481,-3.0518,-2.9487,-2.9464,-3.0147,-3.0979,-3.1861,-3.1452,-3.0867,-3.0188,-3.0046,-2.9542,-2.8562,-2.8244,-2.7846,-2.7348,-2.709,-2.6698,-2.625,-2.5971,-2.5634,0.0,-2.5074,0.0,0.0,0.0,0.0,0.0,0.0,0.0,0.0,-3.0037,-3.0449,-3.1296,-3.1467,-3.1822,-3.2587,-3.2798,-3.315,-3.3834,-3.609,-3.7572,-3.7651,-3.9443,-4.0718,-4.0774,-4.1364,-4.1629,-4.14,-4.1666,-4.2007,-4.2442,-4.2295,-4.1949,-4.2065,-4.258,-4.2806,-4.2424,-4.2588,-4.2802,-4.2842,-4.2813,-4.2743,-4.2526,-4.2496,-4.2622,-4.2581,-4.2622,-4.2581,-4.2392,-4.2351,-4.2146,-4.148,-4.1381,-4.1071,-4.0388,-4.0431,-4.0659,-4.0816,-4.1867,-4.2372,-3.9077,-3.8942,-3.8483,-3.7774,-3.6973,-3.6646,-3.5212,-3.3057,-3.2925,-3.3333,-3.4135,-3.4974,-3.5325,-3.5325,-3.5444,-3.5392,-3.5261,-3.5213,-3.503,-3.4716,-3.4698,-3.4597,-3.4414,-3.438,-3.438,-3.438,-3.438,-3.438,-3.438,-3.438,-3.4071,-3.3446,-3.3049,-3.25,-3.1739,0.0,0.0,0.0,-3.0807,-3.0981,-3.0728,-3.0049,-2.9438,-2.8807,-2.8168,0.0,-2.7561,-2.6793,-2.6381,-2.6441,-2.5851,0.0,0.0,0.0,0.0,0.0,0.0,0.0,0.0,0.0,0.0,0.0,-2.8414,-2.885,-2.9822,-3.0721,-3.1473,-3.2111,-3.2185,-3.2265,-3.2419,-3.2987,-3.3442,-3.3625,-3.5526,-3.6878,-3.7027,-3.8265,-3.9227,-3.9502,-3.9651,-3.9869,-4.0153,-4.023,-4.049,-4.1179,-4.1722,-4.198,-4.1827,-4.2111,-4.232,-4.2204,-4.2565,-4.2711,-4.2303,-4.2636,-4.2694,-4.2347,-4.2187,-4.2201,-4.2242,-4.2201,-4.2201,-4.2175,-4.2133,-4.1897,-4.1226,-4.1085,-4.0716,-3.9689,-3.9821,-4.0039,-3.9733,-4.0986,-4.1802,-3.9202,0.0,-3.8678,-3.7833,0.0,-3.6119,-3.4711,-3.2703,-3.3618,-3.4283,-3.477,-3.5257,-3.5489,-3.5489,-3.4857,-3.4579,-3.4419,-3.3784,-3.3682,-3.3954,-3.3902,-3.4042,-3.438,-3.438,-3.438,-3.438,-3.438,-3.438,-3.438,-3.438,-3.4172,-3.3801,-3.3619,-3.3312,-3.2911,-3.2192,-3.1606,-3.1069,-3.073,-3.0665,-3.0894,-3.0131,-2.9382,-2.8709,0.0,0.0,0.0,0.0,0.0,0.0,0.0,0.0,0.0,0.0,0.0,-2.741,-2.751,-2.7469,-2.7306,-2.7845,-2.8526,-2.9256,-2.9942,-3.0241,-3.0049,-3.1089,-3.1895,-3.2215,-3.2332,-3.24,-3.2412,-3.3044,-3.3499,-3.3568,-3.5105,-3.6246,-3.642,-3.7475,-3.8364,-3.8588,-3.8943,-3.9282,-3.9456,-3.9266,-3.9501,-4.0196,-4.0648,-4.109,-4.1423,-4.2053,-4.2455,-4.2165,-4.2324,-4.244,-4.2208,-4.231,-4.2484,-4.215,-4.2092,-4.2092,-4.2092,-4.2092,-4.2092,-4.2051,-4.1829,-4.1367,-4.0788,-4.0402,-3.9851,-3.9056,-3.8922,-3.898,-3.8769,-4.0041,-4.0929,-3.9218,-3.875,-3.875,-3.7689,-3.6032,-3.5748,-3.4759,-3.3402,0.0,0.0,0.0,-3.5427,-3.5489,-3.5412,-3.4443,-3.3983,-3.3888,-3.2887,-3.2766,-3.3454,-3.3336,-3.3705,-3.4366,-3.438,-3.438,-3.438,-3.438,-3.438,-3.438,-3.438,-3.438,-3.438,-3.438,-3.438,-3.4312,-3.3269,-3.2477,-3.1909,-3.0559,-3.0357,-3.1343,-3.0451,-2.963,-2.8999,-2.8787,-2.8425,-2.7926,-2.7668,-2.7668,-2.7828,-2.7607,-2.7533,-2.7705,-2.7898,-2.8088,-2.8198,-2.8285,-2.8419,-2.8602,-2.9035,-2.9659,-3.0453,-3.1484,-3.1651,-3.0671,-3.1467,-3.2089,-3.2202,-3.2363,-3.2475,-3.2531,-3.3252,-3.3708,-3.3619,-3.5027,-3.5921,-3.576,-3.6772,-3.748,-3.7482,-3.7909,-3.8443,-3.8413,-3.8113,-3.8293,-3.9193,-3.9568,-4.0093,-4.1134,-4.215,-4.2571,-4.2194,-4.215,-4.2107,-4.2092,-4.2107,-4.2092,-4.2107,-4.2092,-4.2092,-4.2092,-4.2092,-4.2092,-4.2092,-4.1493,-4.0859,-4.0358,-3.9763,-3.9024,-3.8291,-3.8135,-3.8089,-3.807,-3.91,-3.9788,-3.9432,-3.9352,-3.9245,-3.881,-3.8109,-3.7504,-3.6536,-3.5259,-3.4515,-3.4206,-3.4268,-3.5121,-3.5489,-3.5489,-3.532,-3.5145,-3.4999,-3.4812,-3.4629,0.0,-3.4466,-3.4442,-3.4414,-3.438,-3.438,-3.438,-3.438,-3.438,-3.438,-3.438,-3.438,-3.438,-3.438,-3.438,-3.4312,-3.3269,-3.2662,-3.253,-3.0907,-3.0382,-3.1048,-2.9804,-2.9099,-2.9008,-2.8624,-2.8391,-2.8303,-2.7975,-2.7865,-2.8036,-2.7594,-2.7642,-2.8387,-2.8257,-2.8348,-2.8893,-2.8976,-2.8973,-2.9037,-2.9955,-3.1013,-3.1969,-3.2215,-3.2251,-3.2122,-3.2239,-3.2431,-3.2581,-3.2667,-3.2766,-3.302,-3.3979,-3.4372,-3.4029,-3.5496,-3.6243,-3.5141,-3.5719,-3.6052,-3.5597,-3.5532,-3.5764,-3.6008,-3.5927,-3.6429,-3.7641,-3.8647,-3.9722,-4.1365,-4.2092,-4.2179,-4.2107,-4.2092,-4.2092,-4.2092,-4.2092,-4.2092,-4.2092,-4.2092,-4.2092,-4.2092,-4.2092,-4.2051,-4.2051,-4.1409,-4.0745,-4.0112,-3.9441,-3.8756,-3.8103,-3.7979,-3.7933,-3.79,-3.8362,-3.872,-3.9563,-3.9484,-3.9369,-3.904,-3.8511,-3.7621,-3.6646,-3.5689,-3.5147,-3.4867,-3.4877,-3.5305,-3.5489,-3.5427,-3.4827,-3.4487,-3.4375,-3.3761,-3.366,-3.4028,-3.3943,-3.4132,-3.4534,-3.4448,-3.438,-3.438,-3.438,-3.438,-3.438,-3.438,-3.438,-3.438,-3.438,-3.438,-3.4346,-3.3597,-3.3339,-3.3548,-3.1617,-3.0729,-3.0987,-3.021,-2.9748,-2.9735,-2.9376,-2.9151,-2.9164,-2.8976,-2.8938,-2.9026,-2.8799,-2.8835,-2.9212,-2.9096,-2.9169,-2.9443,-2.9353,-2.9275,-2.9275,-3.0244,-3.1287,-3.2438,-3.2562,-3.2649,-3.2791,-3.2649,-3.2636,-3.2896,-3.2896,-3.2939,-3.3068,-3.3596,-3.3792,-3.3501,-3.4323,-3.4521,-3.4157,-3.4549,-3.4824,-3.4603,-3.484,-3.5032,-3.5128,-3.4855,-3.5195,-3.667,-3.8,-3.9588,-4.1256,-4.157,-4.17,-4.2005,-4.2092,-4.2092,-4.2092,-4.2092,-4.2092,-4.2092,-4.2092,-4.2092,-4.2092,-4.2092,-4.1953,-4.1549,-4.093,-4.0229,-3.953,-3.8845,-3.8285,-3.807,-3.79,-3.79,-3.79,-3.7979,-3.8272,-3.9677,-3.958,-3.9405,-3.9013,-3.8371,-3.7458,-3.6585,-3.5847,-3.5784,-3.5671,-3.5554,-3.5489,-3.5489,-3.5412,-3.4505,-3.4121,-3.3983,-3.3173,-3.3213,-3.3798,-3.3696,-3.4053,-3.4687,-3.4563,-3.4448,-3.4448,-3.4414,-3.438,-3.438,-3.438,-3.438,-3.438,-3.438,-3.438,-3.438,-3.3874,-3.3805,-3.4059,-3.22,-3.1235,-3.131,-3.0735,-3.0406,-3.0368,-3.0037,-2.9869,-2.9856,-2.983,-2.9779,-2.9779,-2.9779,-2.9779,-2.9779,-2.9779,-2.9779,-2.9792,-2.9611,-2.9621,-2.9895,-3.0518,-3.1442,-3.2654,-3.281,-3.2896,-3.3025,-3.2896,-3.2853,-3.3068,-3.3253,-3.3283,-3.3197,-3.3454,-3.3454,-3.3167,-3.3253,-3.3376,-3.321,-3.3581,-3.3865,-3.392,-3.4301,-3.4551,-3.4509,-3.416,-3.4588,-3.6143,-3.7794,-3.9365,-4.0532,-4.0847,-4.1149,-4.1686,-4.199,-4.2092,-4.2092,-4.2092,-4.2092,-4.2092,-4.2092,-4.2092,-4.2092,-4.2092,-4.1912,-4.1367,-4.0602,-3.9855,-3.9102,-3.8272,-3.7788,-3.7639,-3.7625,-3.7717,-3.7874,-3.79,-3.807,-3.9875,-3.9807,-3.959,-3.8887,-3.8001,-3.7663,-3.7011,-3.6196,-3.6022,-3.5863,-3.5703,-3.5539,-3.5504,-3.5489,-3.5335,-3.5272,-3.5272,-3.5228,-3.5083,-3.4996,-3.5011,-3.499,-3.4868,-3.4716,-3.4664,-3.4631,-3.4481,-3.4414,-3.4414,-3.438,-3.438,-3.438,-3.438,-3.438,-3.4346,-3.3874,-3.3632,-3.3667,-3.2381,-3.1909,-3.2164,-3.1022,-3.0406,-3.0406,-3.019,-3.0088,-3.0049,-2.9908,-2.9779,-2.9779,-2.9779,-2.9779,-2.9779,-2.9779,-2.9779,-2.9779,-2.9779,-3.0193,-3.1057,-3.1295,-3.1834,-3.2918,-3.3038,-3.3081,-3.3068,-3.3081,-3.3068,-3.3154,-3.3624,-3.3666,-3.324,-3.4063,-3.4134,-3.324,-3.3569,-3.3781,-3.324,-3.3167,-3.321,-3.321,-3.3368,-3.3283,-3.3411,-3.3368,-3.4117,-3.5938,-3.7548,-3.8946,-3.9809,-4.0087,-4.0423,-4.1091,-4.1657,-4.2005,-4.2063,-4.2092,-4.2092,-4.2092,-4.2092,-4.2092,-4.2092,-4.2063,-4.198,-4.1377,-4.0675,-3.9637,-3.8888,-3.8084,-3.7135,-3.709,-3.7129,-3.7233,-3.7717,-3.7795,-3.7867,-3.9884,-3.9875,-3.9694,-3.9158,-3.8439,-3.827,-3.7592,-3.6631,-3.6554,-3.629,-3.5894,-3.5686,-3.5572,-3.5489,-3.5489,-3.5489,-3.5489,-3.5489,-3.5472,-3.5359,-3.5261,-3.5148,-3.5082,-3.4916,-3.4817,-3.4817,-3.465,-3.4597,-3.4549,-3.4481,-3.438,-3.438,-3.438,-3.438,-3.438,-3.4196,-3.3908,-3.3597,-3.2668,-3.2237,-3.2223,-3.1097,-3.033,-3.0216,-3.0011,-2.9934,-2.9908,-2.983,-2.9779,-2.9779,-2.9779,-2.9779,-2.9779,-2.9779,-2.9779,-2.9779,-2.9779,-3.0269,-3.1311,-3.1386,-3.1888,-3.2993,-3.3124,-3.3124,-3.3124,-3.3124,-3.3124,-3.3124,-3.3368,-3.3368,-3.321,-3.3556,-3.3654,-3.3197,-3.3368,-3.3411,-3.3167,-3.3124,-3.3124,-3.3124,-3.3124,-3.3124,-3.3167,-3.3454,-3.4237,-3.5531,-3.6841,-3.798,-3.9007,-3.945,-3.9842,-4.0365,-4.0757,-4.1265,-4.1831,-4.2092,-4.2063,-4.2078,-4.2092,-4.2092,-4.199,-4.17,-4.143,-4.1004,-3.9845,-3.8805,-3.795,-3.725,-3.6475,-3.6475,-3.6475,-3.6567,-3.6815,-3.6841,-3.6873,-3.9977,-3.9935,-3.9824,-3.9372,-3.8805,-3.8694,-3.81,-3.7207,-3.7027,-3.6708,-3.6242,-3.5975,-3.575,-3.5587,-3.5537,-3.5489,-3.5489,-3.5489,-3.5489,-3.5472,-3.5359,-3.5279,-3.5261,-3.5067,-3.4968,-3.492,-3.4802,-3.4731,-3.4698,-3.4481,-3.438,-3.438,-3.438,-3.438,-3.438,-3.438,-3.4196,-3.377,-3.2952,-3.2453,-3.2223,-3.1147,-3.0444,-3.0368,-3.0126,-2.9934,-2.9908,-2.9869,-2.9869,-2.9792,-2.9779,-2.9779,-2.9779,-2.9779,-2.9779,-2.9779,-2.9779,-3.0193,-3.111,-3.1311,-3.18,-3.2704,-3.2955,-3.3124,-3.3124,-3.3124,-3.3124,-3.3124,-3.3124,-3.3124,-3.3124,-3.3253,-3.3326,-3.3167,-3.3124,-3.3124,-3.3124,-3.3124,-3.3124,-3.3124,-3.3124,-3.3124,-3.321,-3.3734,-3.445,-3.5168,-3.6044,-3.7024,-3.8231,-3.8751,-3.9146,-3.9741,-3.9857,-4.0307,-4.1294,-4.1439,-4.1555,-4.1555,-4.1453,-4.141,-4.1541,-4.1062,-4.0628,-4.0084,-3.8823,-3.7868,-3.7172,-3.6465,-3.5874,-3.5913,-3.5966,-3.6057,-3.6266,-3.6136,-3.6044,-4.0113,-4.0054,-3.9935,-3.9394,-3.8799,-3.8723,-3.8407,-3.7668,-3.7308,-3.6995,-3.6691,-3.626,-3.5944,-3.5642,-3.5497,-3.5489,-3.5489,-3.5489,-3.5489,-3.5504,-3.5472,-3.5472,-3.5472,-3.5294,-3.5166,-3.5118,-3.4953,-3.485,-3.4698,-3.4515,-3.438,-3.438,-3.438,-3.438,-3.438,-3.438,-3.438,-3.4128,-3.3234,-3.2632,-3.2345,-3.131,-3.0861,-3.1084,-3.0621,-3.0267,-3.0126,-3.0088,-3.0011,-2.9779,-2.983,-2.9792,-2.9792,-2.9779,-2.9779,-2.9779,-2.9779,-3.0043,-3.0633,-3.1097,-3.1637,-3.2227,-3.2742,-3.3111,-3.3124,-3.3124,-3.3124,-3.3124,-3.3124,-3.3124,-3.3154,-3.3539,-3.3611,-3.3167,-3.3124,-3.3124,-3.3124,-3.3124,-3.3124,-3.3124,-3.3124,-3.3124,-3.3124,-3.3858,-3.4379,-3.5005,-3.591,-3.6836,-3.7465,-3.7978,-3.8533,-3.8991,-3.9238,-3.9465,-4.0046,-4.0495,-4.0423,-4.0466,-4.0626,-4.0336,-4.0205,-4.0054,-3.975,-3.9306,-3.8513,-3.7634,-3.6603,-3.5909,-3.547,-3.5404,-3.5665,-3.5809,-3.5665,-3.5966,-3.5835,-3.8722,-3.8684,-3.8537,-3.8321,-3.8094,-3.7915,-3.7551,-3.7053,-3.6542,-3.6102,-3.5669,-3.5078,-3.5018,-3.5368,-3.5022,-3.5085,-3.5474,-3.5489,-3.5489,-3.5489,-3.5489,-3.5489,-3.5472,-3.5424,-3.5392,-3.5344,-3.518,-3.4949,-3.4731,-3.4631,-3.4515,-3.4414,-3.438,-3.438,-3.438,-3.438,-3.423,-3.3874,-3.3444,-3.3234,-3.3023,-3.2019,-3.1653,-3.2078,-3.1022,-3.0368,-3.0292,-3.0305,-3.0177,-3.0011,-2.9998,-2.9934,-2.983,-2.9779,-2.9779,-2.9779,-2.9779,-3.003,-3.0505,-3.0783,-3.1286,-3.2114,-3.239,-3.2704,-3.3048,-3.3124,-3.3124,-3.3124,-3.3124,-3.3124,-3.3111,-3.3326,-3.3368,-3.3167,-3.3124,-3.3124,-3.3124,-3.3124,-3.3124,-3.3124,-3.3124,-3.3124,-3.3167,-3.3406,-3.3777,-3.4356,-3.521,-3.6056,-3.6716,-3.7352,-3.7992,-3.8265,-3.8366,-3.85,-3.8797,-3.9697,-4.0118,-4.0118,-4.0147,-4.0133,-4.0046,-3.9625,-3.9304,-3.8864,-3.8166,-3.7258,-3.6212,-3.5402,-3.4955,-3.4855,-3.5129,-3.5221,-3.4999,-3.5247,-3.5103,-3.7973,-3.7905,-3.7793,-3.7737,-3.7689,-3.7501,-3.7245,-3.6814,-3.6152,-3.5692,-3.5275,-3.4532,-3.4454,-3.4775,-3.4561,-3.457,-3.4955,-3.5297,-3.5489,-3.5489,-3.5489,-3.5489,-3.5489,-3.5489,-3.5489,-3.5457,-3.5294,-3.5034,-3.4898,-3.4783,-3.4683,-3.4515,-3.4515,-3.4448,-3.4414,-3.438,-3.4196,-3.3908,-3.3701,-3.3528,-3.3234,-3.2345,-3.1886,-3.1946,-3.1147,-3.0558,-3.0533,-3.0482,-3.0406,-3.0228,-3.0113,-3.0011,-2.983,-2.9779,-2.9779,-2.9779,-2.9779,-2.9942,-3.0306,-3.0507,-3.0894,-3.1625,-3.1863,-3.219,-3.2717,-3.2792,-3.2867,-3.3048,-3.3124,-3.3124,-3.3124,-3.3124,-3.3124,-3.3124,-3.3124,-3.3124,-3.3124,-3.3124,-3.3124,-3.3124,-3.3124,-3.3124,-3.3124,-3.3124,-3.3526,-3.423,-3.4965,-3.5602,-3.6506,-3.7197,-3.7739,-3.7891,-3.7973,-3.8039,-3.8216,-3.8818,-3.9223,-3.9252,-3.9329,-3.946,-3.9494,-3.9102,-3.8702,-3.8255,-3.7604,-3.671,-3.587,-3.4978,-3.4566,-3.4387,-3.4541,-3.4724,-3.458,-3.4489,-3.4437,-3.7888,-3.777,-3.7872,-3.7665,-3.7501,-3.7453,-3.7515,-3.712,-3.6297,-3.5803,-3.5551,-3.4826,-3.4291,-3.4252,-3.4163,-3.4015,-3.4121,-3.4881,-3.5265,-3.5295,-3.5325,-3.534,-3.531,-3.528,-3.5265,-3.5295,-3.516,-3.5062,-3.497,-3.4761,-3.4644,-3.4629,-3.4474,-3.4334,-3.4341,-3.4211,-3.4283,-3.409,-3.3674,-3.3268,-3.2712,-3.2051,-3.1479,-3.1103,-3.088,-3.0717,-3.0594,-3.0659,-3.0609,-3.0406,-3.0228,-2.9998,-2.983,-2.9779,-2.9779,-2.9779,-2.9779,-2.9804,-2.988,-3.0281,-3.0545,-3.0846,-3.1135,-3.1625,-3.2102,-3.2227,-3.2428,-3.2855,-3.3036,-3.3031,-3.3111,-3.3124,-3.3124,-3.3124,-3.3124,-3.3124,-3.3124,-3.3124,-3.3124,-3.3124,-3.3124,-3.3124,-3.3124,-3.3124,-3.3526,-3.4371,-3.4965,-3.5521,-3.6584,-3.725,-3.7739,-3.7891,-3.7891,-3.7929,-3.7929,-3.7958,-3.8057,-3.8199,-3.8283,-3.8375,-3.8455,-3.8179,-3.7809,-3.7353,-3.6652,-3.5781,-3.5232,-3.4446,-3.4104,-3.3979,-3.4149,-3.4123,-3.3992,-3.3901,-3.4045,-3.6559,-3.6441,-3.6355,-3.6293,-3.6241,-3.6211,-3.6158,-3.6082,-3.5391,-3.5068,-3.4799,-3.3904,-3.3724,-3.3945,-3.3637,-3.3618,-3.403,-3.4242,-3.4206,-3.4128,-3.4128,-3.4173,-3.4158,-3.4143,-3.4128,-3.4128,-3.4035,-3.3941,-3.3877,-3.3813,-3.3657,-3.3544,-3.3413,-3.3287,-3.3267,-3.314,-3.3108,-3.3075,-3.293,-3.2587,-3.201,-3.1461,-3.092,-3.0401,-3.0036,-2.981,-2.979,-3.0494,-3.0772,-3.0596,-3.0406,-3.0152,-2.9856,-2.9779,-2.9779,-2.9779,-2.9779,-2.9779,-2.9804,-2.9955,-3.0231,-3.0532,-3.0771,-3.111,-3.1549,-3.165,-3.1901,-3.2378,-3.2491,-3.2604,-3.3023,-3.3124,-3.3111,-3.3124,-3.3124,-3.3124,-3.3124,-3.3124,-3.3124,-3.3124,-3.3124,-3.3124,-3.3124,-3.3124,-3.3326,-3.3725,-3.4217,-3.495,-3.5762,-3.6545,-3.7159,-3.7701,-3.7763,-3.7763,-3.7672,-3.752,-3.7476,-3.7561,-3.7604,-3.7624,-3.7591,-3.7498,-3.7028,-3.6415,-3.5655,-3.5025,-3.4466,-3.398,-3.3645,-3.3352,-3.3287,-3.326,-3.3234,-3.3339,-3.3496,-3.5971,-3.5795,-3.5728,-3.5644,-3.56,-3.5566,-3.5526,-3.5412,-3.4747,-3.4391,-3.4134,-3.323,-3.3037,-3.3301,-3.2959,-3.3033,-3.34,-3.3211,-3.3064,-3.3006,-3.338,-3.3484,-3.3499,-3.3499,-3.3499,-3.3499,-3.3514,-3.3438,-3.3331,-3.33,-3.3238,-3.3066,-3.2958,-3.2893,-3.2801,-3.2657,-3.2562,-3.253,-3.232,-3.1921,-3.1415,-3.0881,-3.0337,-2.9832,-2.9487,-2.931,-2.934,-3.003,-3.0377,-3.0449,-3.048,-3.0305,-2.9972,-2.9908,-2.9869,-2.9792,-2.9779,-2.9779,-2.9779,-2.9804,-2.9917,-3.0244,-3.0306,-3.0545,-3.0972,-3.1097,-3.1348,-3.1788,-3.1913,-3.2127,-3.2616,-3.2742,-3.283,-3.3111,-3.3124,-3.3124,-3.3124,-3.3124,-3.3124,-3.3124,-3.3124,-3.3124,-3.3124,-3.3124,-3.3253,-3.3454,-3.3823,-3.4551,-3.5318,-3.5936,-3.661,-3.7106,-3.7109,-3.7134,-3.726,-3.7139,-3.6931,-3.6987,-3.7071,-3.7059,-3.7034,-3.6918,-3.6627,-3.5829,-3.5068,-3.4462,-3.3881,-3.333,-3.2908,-3.2698,-3.2581,-3.279,-3.2934,-3.2868,-3.296,-3.6075,-3.5817,-3.5795,-3.5711,-3.5622,-3.5616,-3.5616,-3.5424,-3.4553,-3.4136,-3.3885,-3.3029,-3.2551,-3.2496,-3.2533,-3.244,-3.2249,-3.2331,-3.2251,-3.2309,-3.2811,-3.3246,-3.3155,-3.314,-3.314,-3.3215,-3.3245,-3.3275,-3.314,-3.314,-3.3288,-3.2956,-3.2881,-3.2982,-3.2694,-3.2654,-3.2489,-3.2336,-3.1872,-3.1307,-3.0774,-3.0201,-2.9701,-2.9158,-2.9087,-2.9039,-2.9026,-2.9209,-2.9536,-2.9986,-3.0321,-3.0367,-3.0126,-3.0075,-3.0049,-2.9895,-2.9818,-2.9818,-2.983,-2.9792,-2.9804,-2.9854,-2.9905,-2.9993,-3.0482,-3.0583,-3.0783,-3.1273,-3.1348,-3.1574,-3.2026,-3.2164,-3.2416,-3.2905,-3.3061,-3.3111,-3.3124,-3.3124,-3.3124,-3.3124,-3.3124,-3.3124,-3.3111,-3.3074,-3.328,-3.367,-3.3846,-3.4235,-3.5291,-3.5637,-3.5984,-3.6166,-3.6258,-3.6097,-3.6056,-3.6385,-3.6123,-3.5517,-3.5709,-3.5813,-3.5956,-3.5877,-3.5798,-3.5056,-3.4427,-3.387,-3.3332,-3.2747,-3.2371,-3.2189,-3.2267,-3.2542,-3.2502,-3.2306,-3.2267,-3.6144,-3.6058,-3.59,-3.5773,-3.5728,-3.5644,-3.5616,-3.5515,-3.488,-3.4521,-3.4292,-3.3433,-3.2911,-3.2819,-3.252,-3.237,-3.233,-3.2247,-3.2191,-3.2112,-3.2256,-3.2237,-3.2077,-3.2034,-3.2049,-3.2079,-3.2153,-3.2019,-3.2019,-3.2123,-3.2064,-3.1945,-3.1961,-3.1857,-3.1708,-3.1648,-3.1529,-3.1424,-3.0861,-3.0284,-2.9743,-2.9141,-2.8525,-2.8048,-2.802,-2.8033,-2.8046,-2.8399,-2.8825,-2.9282,-2.9777,-2.9927,-2.9717,-3.0024,-3.0164,-3.0139,-3.005,-3.0011,-2.9998,-2.9908,-2.9779,-2.9779,-2.9792,-2.9854,-2.998,-3.0005,-3.0281,-3.0683,-3.0834,-3.1035,-3.1474,-3.1625,-3.1901,-3.2378,-3.2729,-3.3048,-3.3124,-3.3124,-3.3124,-3.3124,-3.3099,-3.3074,-3.2948,-3.2734,-3.2663,-3.3052,-3.2902,-3.2851,-3.4246,-3.4536,-3.4508,-3.5065,-3.5217,-3.4913,-3.4903,-3.5322,-3.5109,-3.4163,-3.4034,-3.4131,-3.4259,-3.4341,-3.4257,-3.3952,-3.354,-3.3016,-3.259,-3.2091,-3.1872,-3.1679,-3.1627,-3.1705,-3.1535,-3.1365,-3.1431,-3.6272,-3.6182,-3.6014,-3.5905,-3.5795,-3.5728,-3.5644,-3.5492,-3.5062,-3.4706,-3.4382,-3.3681,-3.3108,-3.2807,-3.259,-3.2453,-3.2398,-3.233,-3.2259,-3.2163,-3.2083,-3.19,-3.1685,-3.1568,-3.1496,-3.1496,-3.1496,-3.1525,-3.1525,-3.1496,-3.1496,-3.1526,-3.1438,-3.1365,-3.1439,-3.1263,-3.1176,-3.1014,-3.0312,-2.9591,-2.9279,-2.8417,-2.7888,-2.757,-2.7503,-2.7503,-2.7568,-2.7863,-2.833,-2.9002,-2.9408,-2.9505,-2.9312,-2.9595,-2.9878,-3.0009,-2.9922,-2.9948,-3.0152,-3.0049,-2.9934,-2.9895,-2.9869,-2.9792,-2.9804,-2.9792,-2.9993,-3.0206,-3.0269,-3.0545,-3.0959,-3.1248,-3.1524,-3.1838,-3.2164,-3.2608,-3.3036,-3.3124,-3.2943,-3.2805,-3.2704,-3.2604,-3.2483,-3.2064,-3.2089,-3.2194,-3.1921,-3.2436,-3.3265,-3.308,-3.313,-3.3767,-3.3932,-3.3596,-3.3451,-3.3813,-3.3897,-3.2992,-3.2691,-3.2735,-3.3064,-3.3181,-3.324,-3.3164,-3.266,-3.2273,-3.2019,-3.174,-3.1415,-3.1196,-3.1037,-3.0998,-3.0985,-3.0856,-3.0882,-3.6377,-3.6229,-3.6187,-3.6058,-3.5861,-3.5817,-3.5756,-3.556,-3.5068,-3.4666,-3.4317,-3.3697,-3.3193,-3.2687,-3.266,-3.2508,-3.2425,-3.2398,-3.2315,-3.2219,-3.2094,-3.1968,-3.1855,-3.1655,-3.1568,-3.1568,-3.1524,-3.1496,-3.1496,-3.1496,-3.1496,-3.1496,-3.1511,-3.1496,-3.1438,-3.138,-3.1307,-3.1102,-3.0115,-2.9529,-2.9216,-2.8365,-2.7736,-2.7669,-2.7556,-2.7536,-2.7503,-2.7594,-2.7986,-2.9026,-2.9179,-2.9112,-2.8948,-2.8973,-2.9212,-2.9454,-2.9508,-2.9688,-3.0074,-2.9973,-2.9935,-2.9897,-2.9832,-2.9792,-2.9779,-2.9792,-2.9817,-2.988,-2.9792,-3.008,-3.047,-3.0972,-3.1223,-3.1348,-3.1386,-3.1926,-3.2604,-3.2905,-3.2692,-3.224,-3.2139,-3.1876,-3.1574,-3.1348,-3.1348,-3.1712,-3.143,-3.1634,-3.2149,-3.2137,-3.2292,-3.2678,-3.2565,-3.2136,-3.2176,-3.2225,-3.2196,-3.1893,-3.1664,-3.1718,-3.2258,-3.2427,-3.2566,-3.2453,-3.2151,-3.1982,-3.1886,-3.1519,-3.1073,-3.1024,-3.1024,-3.0934,-3.0856,-3.0699,-3.0647,-3.6482,-3.6419,-3.6251,-3.6182,-3.6101,-3.6014,-3.5932,-3.5866,-3.523,-3.4904,-3.4642,-3.3818,-3.3345,-3.3161,-3.2718,-3.2594,-3.2415,-3.2329,-3.2398,-3.237,-3.2219,-3.2135,-3.202,-3.1749,-3.1726,-3.1683,-3.1568,-3.1496,-3.1511,-3.1496,-3.1496,-3.1496,-3.1496,-3.1496,-3.1467,-3.1467,-3.1438,-3.1263,-3.0282,-2.9685,-2.939,-2.8541,-2.7947,-2.7914,-2.7789,-2.7656,-2.7536,-2.7503,-2.7633,-2.7941,-2.832,-2.8582,-2.8578,-2.8904,-2.9142,-2.9214,-2.9171,-2.9176,-2.9321,-2.941,-2.939,-2.939,-2.9542,-2.9779,-2.9779,-2.9754,-2.9767,-2.9779,-2.9792,-2.9867,-3.0043,-3.0482,-3.0721,-3.0834,-3.1085,-3.1399,-3.1687,-3.1775,-3.1763,-3.1625,-3.1562,-3.1499,-3.1389,-3.0922,-3.0947,-3.116,-3.1122,-3.0903,-3.1022,-3.119,-3.1384,-3.1692,-3.1525,-3.1241,-3.1319,-3.1434,-3.1521,-3.1338,-3.1063,-3.0854,-3.1396,-3.1585,-3.1685,-3.1757,-3.1786,-3.1676,-3.1539,-3.1204,-3.0693,-3.0833,-3.0882,-3.062,-3.0424,-3.0372,-3.0281,-3.6585,-3.6502,-3.6377,-3.6272,-3.6204,-3.6122,-3.6062,-3.591,-3.5362,-3.4975,-3.469,-3.3968,-3.3332,-3.273,-3.2441,-3.2146,-3.1707,-3.1528,-3.1459,-3.1417,-3.1351,-3.134,-3.1313,-3.1256,-3.1271,-3.1717,-3.1712,-3.1626,-3.1641,-3.1568,-3.1496,-3.1496,-3.1496,-3.1496,-3.1496,-3.1496,-3.1336,-3.1043,-3.0312,-2.973,-2.9355,-2.8605,-2.8112,-2.8079,-2.7967,-2.7835,-2.7689,-2.7656,-2.759,-2.7602,-2.7811,-2.7981,-2.8007,-2.8281,-2.8556,-2.8817,-2.8799,-2.8827,-2.8967,-2.8982,-2.8942,-2.8819,-2.8962,-2.9152,-2.9302,-2.939,-2.9553,-2.9704,-2.9779,-2.9792,-2.9804,-2.9993,-3.0218,-3.0269,-3.047,-3.0633,-3.0721,-3.106,-3.126,-3.1122,-3.1022,-3.0846,-3.062,-3.0444,-3.0357,-3.0482,-3.0457,-3.0302,-3.0276,-3.0431,-3.0445,-3.0573,-3.0509,-3.0496,-3.0573,-3.0788,-3.1106,-3.096,-3.0725,-3.0542,-3.0635,-3.0738,-3.0718,-3.0904,-3.1103,-3.1188,-3.1051,-3.069,-3.0396,-3.0403,-3.0307,-3.0072,-2.9889,-2.9771,-2.968,-3.6728,-3.6544,-3.6523,-3.6329,-3.6096,-3.6019,-3.5856,-3.5587,-3.5183,-3.462,-3.4343,-3.3868,-3.2912,-3.2155,-3.1897,-3.1347,-3.0846,-3.0608,-3.0685,-3.0617,-3.0632,-3.0606,-3.0549,-3.0562,-3.0777,-3.1688,-3.1626,-3.1602,-3.171,-3.1626,-3.1568,-3.1496,-3.1496,-3.1496,-3.1496,-3.1467,-3.1365,-3.0999,-3.0312,-2.9761,-2.9306,-2.8651,-2.8229,-2.8131,-2.8131,-2.7987,-2.7822,-2.7756,-2.7676,-2.7536,-2.7503,-2.7503,-2.7503,-2.7529,-2.7659,-2.8263,-2.8255,-2.8308,-2.8494,-2.8553,-2.849,-2.8284,-2.8219,-2.8348,-2.8699,-2.8825,-2.8988,-2.9302,-2.9478,-2.9641,-2.9754,-2.9854,-2.9842,-2.9829,-2.9817,-2.9779,-2.9942,-3.0633,-3.0758,-3.0608,-3.047,-3.0344,-3.0143,-2.9942,-2.9842,-2.9779,-2.9779,-2.9779,-2.9818,-2.9818,-2.9972,-3.0126,-3.0228,-3.0369,-3.047,-3.0507,-3.0784,-3.052,-3.0299,-3.0153,-2.997,-2.9751,-2.9829,-3.022,-3.042,-3.0472,-3.0396,-3.0066,-2.9874,-2.9855,-2.9748,-2.9575,-2.9379,-2.9218,-2.9087,-3.6871,-3.6731,-3.6564,-3.6135,-3.5575,-3.5407,-3.5018,-3.4427,-3.4175,-3.3749,-3.3411,-3.2823,-3.2336,-3.1782,-3.1347,-3.0935,-3.0514,-3.0335,-3.0346,-3.0258,-3.0233,-3.0217,-3.0171,-3.0099,-3.0396,-3.0669,-3.0909,-3.1245,-3.1615,-3.1771,-3.1401,-3.145,-3.1391,-3.1376,-3.1346,-3.1481,-3.1244,-3.0895,-3.0334,-2.9907,-2.9507,-2.8931,-2.8379,-2.8268,-2.8235,-2.8072,-2.7842,-2.7789,-2.7689,-2.7536,-2.7503,-2.7503,-2.7503,-2.7503,-2.7568,-2.7659,-2.7725,-2.7808,-2.7781,-2.7859,-2.7864,-2.7817,-2.7853,-2.8021,-2.8197,-2.8247,-2.836,-2.8549,-2.8913,-2.9239,-2.9741,-2.9616,-2.9729,-2.9741,-2.9666,-2.9691,-2.9767,-2.993,-3.0156,-3.0068,-2.998,-2.9967,-2.9854,-2.9779,-2.9779,-2.9779,-2.9779,-2.9856,-2.9895,-2.9895,-2.9972,-3.0088,-3.019,-3.0369,-3.0509,-3.0507,-3.0541,-3.0047,-2.9835,-2.9683,-2.9396,-2.8895,-2.8908,-2.9274,-2.9477,-2.9542,-2.9441,-2.9392,-2.935,-2.933,-2.9235,-2.91,-2.8804,-2.8529,-2.832,-3.695,-3.6756,-3.6229,-3.5784,-3.5359,-3.4826,-3.4438,-3.4088,-3.3663,-3.3254,-3.2845,-3.2315,-3.165,-3.1086,-3.0758,-3.0293,-2.984,-2.9599,-2.954,-2.9465,-2.9406,-2.9356,-2.9427,-2.9387,-2.9602,-2.9823,-3.0108,-3.0437,-3.0837,-3.0757,-3.0736,-3.0535,-3.0522,-3.0522,-3.0522,-3.0462,-3.0397,-3.0172,-2.9988,-2.9658,-2.9231,-2.8675,-2.8514,-2.8352,-2.8274,-2.8124,-2.7875,-2.7822,-2.7689,-2.7536,-2.7503,-2.7503,-2.749,-2.7503,-2.7503,-2.7503,-2.7503,-2.7423,-2.7302,-2.7383,-2.7327,-2.7309,-2.7331,-2.7477,-2.7666,-2.778,-2.7795,-2.8097,-2.8247,-2.8612,-2.885,-2.8963,-2.8913,-2.8913,-2.8963,-2.9101,-2.9264,-2.9289,-2.9465,-2.9641,-2.9741,-2.9779,-2.9829,-2.9779,-2.9779,-2.9779,-2.9779,-2.9856,-2.9972,-2.9934,-2.9934,-2.9871,-2.9935,-2.9961,-3.0086,-3.0095,-2.9938,-2.9497,-2.933,-2.9177,-2.8825,-2.8338,-2.8116,-2.8255,-2.8421,-2.8751,-2.8995,-2.9121,-2.8952,-2.8743,-2.8516,-2.8281,-2.8085,-2.7876,-2.7785,-3.6923,-3.6551,-3.5841,-3.5325,-3.4879,-3.4226,-3.3768,-3.3549,-3.305,-3.2547,-3.2139,-3.1635,-3.0876,-3.0188,-2.9911,-2.9588,-2.8881,-2.8786,-2.8753,-2.8728,-2.8656,-2.8521,-2.8427,-2.8458,-2.8735,-2.9141,-2.9223,-2.9531,-3.0091,-3.0083,-2.9828,-2.9826,-2.9693,-2.9621,-2.9684,-2.9804,-2.9277,-2.9217,-2.9158,-2.8956,-2.8302,-2.8247,-2.8333,-2.8231,-2.8285,-2.8203,-2.7921,-2.7703,-2.7519,-2.7354,-2.7281,-2.7307,-2.7333,-2.7425,-2.749,-2.7503,-2.7503,-2.7423,-2.7302,-2.7193,-2.7135,-2.7058,-2.6777,-2.6983,-2.7129,-2.7286,-2.7331,-2.7795,-2.7946,-2.8047,-2.8235,-2.8172,-2.8172,-2.8185,-2.8235,-2.8273,-2.8612,-2.8762,-2.8888,-2.9139,-2.9415,-2.9617,-2.9693,-2.9946,-2.9946,-2.9934,-2.9934,-2.983,-2.9908,-2.9856,-2.978,-2.9642,-2.9568,-2.9504,-2.9489,-2.9481,-2.9158,-2.8595,-2.8624,-2.8625,-2.8239,-2.7788,-2.773,-2.7751,-2.7915,-2.826,-2.8529,-2.8647,-2.8386,-2.8064,-2.7738,-2.7607,-2.7673,-2.7673,-2.7607,-3.6813,-3.6063,-3.5768,-3.483,-3.3585,-3.3318,-3.2755,-3.2106,-3.174,-3.117,-3.0844,-3.0337,-2.9865,-2.9412,-2.9304,-2.9123,-2.8936,-2.885,-2.8748,-2.8621,-2.8565,-2.8493,-2.8411,-2.8411,-2.8458,-2.8673,-2.8627,-2.9198,-2.9689,-2.9848,-2.9811,-2.9618,-2.9435,-2.9547,-2.9349,-2.9292,-2.9564,-2.9317,-2.8738,-2.7977,-2.7344,-2.7591,-2.7759,-2.7859,-2.8084,-2.8153,-2.7708,-2.7364,-2.7082,-2.6909,-2.685,-2.6824,-2.6844,-2.7255,-2.7438,-2.7503,-2.7503,-2.7423,-2.7335,-2.7235,-2.7214,-2.7092,-2.6956,-2.6914,-2.6925,-2.6851,-2.6936,-2.7306,-2.7404,-2.7568,-2.7844,-2.7996,-2.8072,-2.7984,-2.7871,-2.7971,-2.8185,-2.821,-2.8348,-2.8499,-2.8737,-2.9265,-2.9618,-2.9923,-3.0151,-3.01,-3.0024,-2.9858,-2.9731,-2.9593,-2.9492,-2.929,-2.9164,-2.9097,-2.8915,-2.888,-2.8543,-2.7908,-2.7984,-2.8116,-2.7848,-2.7579,-2.7561,-2.7607,-2.7719,-2.7758,-2.7954,-2.7954,-2.7686,-2.7607,-2.7555,-2.7529,-2.7516,-2.7503,-2.7503,-3.6391,-3.5908,-3.4843,-3.3941,-3.3169,-3.266,-3.2093,-3.1574,-3.1332,-3.0861,-3.0288,-3.0032,-2.9611,-2.919,-2.9114,-2.9075,-2.899,-2.8912,-2.8826,-2.866,-2.858,-2.8468,-2.8436,-2.8411,-2.8411,-2.8411,-2.8427,-2.8572,-2.9087,-2.9078,-2.891,-2.8843,-2.8684,-2.8527,-2.8696,-2.8524,-2.8267,-2.7944,-2.7566,-2.7296,-2.7219,-2.7192,-2.7111,-2.6943,-2.7225,-2.7157,-2.6895,-2.6609,-2.6564,-2.6588,-2.6706,-2.687,-2.7105,-2.7359,-2.7503,-2.7503,-2.7503,-2.7469,-2.7403,-2.7323,-2.7302,-2.7248,-2.7113,-2.6956,-2.6875,-2.682,-2.6837,-2.7103,-2.7141,-2.7224,-2.7284,-2.7296,-2.7274,-2.7264,-2.7379,-2.753,-2.7582,-2.7645,-2.7733,-2.7883,-2.8047,-2.8545,-2.8897,-2.8911,-2.9087,-2.9201,-2.9163,-2.9112,-2.9048,-2.8983,-2.8907,-2.8831,-2.874,-2.8649,-2.8449,-2.8309,-2.8052,-2.7614,-2.7618,-2.7704,-2.7559,-2.7416,-2.7469,-2.7503,-2.7568,-2.7555,-2.7503,-2.7516,-2.7568,-2.7542,-2.7503,-2.7503,-2.7503,-2.7503,-2.7503,-3.5809,-3.5611,-3.4073,-3.3263,-3.2891,-3.2227,-3.1784,-3.1468,-3.1353,-3.0925,-3.0351,-3.0054,-2.9611,-2.9213,-2.9114,-2.9114,-2.9075,-2.8944,-2.8865,-2.8763,-2.8604,-2.8468,-2.8436,-2.8411,-2.8411,-2.8411,-2.8411,-2.8488,-2.8433,-2.8376,-2.8314,-2.8054,-2.8142,-2.7961,-2.7861,-2.7836,-2.7663,-2.7004,-2.6634,-2.6538,-2.6639,-2.6606,-2.6462,-2.6348,-2.6306,-2.6277,-2.5954,-2.5765,-2.602,-2.6308,-2.6399,-2.6556,-2.6824,-2.7033,-2.721,-2.7236,-2.7223,-2.732,-2.7391,-2.7436,-2.7423,-2.7369,-2.7281,-2.7113,-2.7066,-2.7045,-2.699,-2.702,-2.702,-2.6914,-2.6773,-2.6755,-2.6775,-2.6744,-2.6637,-2.6813,-2.7037,-2.7198,-2.7248,-2.7299,-2.746,-2.7561,-2.7799,-2.7729,-2.7893,-2.8181,-2.8255,-2.8339,-2.8386,-2.842,-2.832,-2.8284,-2.8255,-2.8125,-2.7882,-2.7679,-2.7408,-2.742,-2.7434,-2.7423,-2.7436,-2.7436,-2.7469,-2.7503,-2.7503,-2.7503,-2.7503,-2.7503,-2.7503,-2.7503,-2.7503,-2.7503,-2.7503,-2.7503,-2.7503,-3.512,-3.4978,-3.3917,-3.302,-3.2301,-3.2161,-3.1984,-3.1747,-3.1449,-3.1179,-3.0744,-3.0204,-2.9582,-2.9229,-2.9114,-2.9114,-2.9114,-2.9091,-2.8967,-2.8842,-2.8747,-2.8604,-2.8508,-2.842,-2.8411,-2.8411,-2.8411,-2.8411,-2.8411,-2.8387,-2.8299,-2.8201,-2.8054,-2.8005,-2.7915,-2.7825,-2.7357,-2.6669,-2.6157,-2.5661,-2.5683,-2.5712,-2.5925,-2.6018,-2.6367,-2.6583,-2.6241,-2.5671,-2.555,-2.5855,-2.5908,-2.5994,-2.6224,-2.6543,-2.6713,-2.6739,-2.6726,-2.6909,-2.7098,-2.7398,-2.7477,-2.7456,-2.7265,-2.7048,-2.7043,-2.7035,-2.6998,-2.704,-2.7108,-2.6977,-2.6829,-2.6692,-2.6726,-2.6671,-2.6624,-2.6712,-2.6839,-2.6869,-2.6895,-2.6819,-2.6955,-2.7192,-2.7208,-2.7288,-2.7349,-2.765,-2.7786,-2.7832,-2.7923,-2.7934,-2.7771,-2.7672,-2.77,-2.7551,-2.7267,-2.7164,-2.7304,-2.7419,-2.7429,-2.7469,-2.7469,-2.7503,-2.749,-2.7503,-2.7503,-2.7503,-2.7451,-2.7346,-2.7307,-2.7451,-2.7503,-2.7503,-2.7503,-2.7503,-2.7503,-3.4407,-3.4233,-3.3282,-3.2634,-3.2197,-3.2179,-3.1983,-3.1654,-3.1485,-3.1061,-3.0535,-3.0027,-2.9589,-2.9282,-2.9137,-2.9114,-2.9091,-2.9013,-2.892,-2.8842,-2.874,-2.8612,-2.8517,-2.8444,-2.8411,-2.8411,-2.8411,-2.8411,-2.8411,-2.8411,-2.8411,-2.8299,-2.8177,-2.8137,-2.8063,-2.776,-2.7174,-2.6642,-2.6028,-2.555,-2.5159,-2.5168,-2.5315,-2.5283,-2.5349,-2.5477,-2.5205,-2.5045,-2.5163,-2.5357,-2.5454,-2.559,-2.572,-2.602,-2.6125,-2.6164,-2.6151,-2.6308,-2.6648,-2.702,-2.7346,-2.6948,-2.6694,-2.6505,-2.6739,-2.6772,-2.7013,-2.7177,-2.7213,-2.7046,-2.7074,-2.7053,-2.7032,-2.6863,-2.6782,-2.671,-2.6684,-2.6714,-2.6714,-2.6701,-2.6892,-2.7101,-2.702,-2.6973,-2.7052,-2.7164,-2.7275,-2.7364,-2.7442,-2.7493,-2.7331,-2.7313,-2.7329,-2.7425,-2.7164,-2.7235,-2.7323,-2.7403,-2.7436,-2.7436,-2.7469,-2.749,-2.749,-2.749,-2.7411,-2.7307,-2.7203,-2.7131,-2.7157,-2.7301,-2.7398,-2.7503,-2.7503,-2.7464,-2.7503,-3.4063,-3.3856,-3.2977,-3.249,-3.2319,-3.2214,-3.2019,-3.1728,-3.1654,-3.114,-3.0321,-3.0097,-2.9744,-2.938,-2.9213,-2.9137,-2.9098,-2.9013,-2.8967,-2.8873,-2.8771,-2.8668,-2.8573,-2.8501,-2.8444,-2.842,-2.8411,-2.8411,-2.8411,-2.8411,-2.8411,-2.8372,-2.8323,-2.8259,-2.8097,-2.763,-2.7093,-2.6718,-2.6109,-2.5688,-2.523,-2.5075,-2.5017,-2.4932,-2.5,-2.4941,-2.4882,-2.4811,-2.4949,-2.5147,-2.5295,-2.5366,-2.5498,-2.5594,-2.5576,-2.5576,-2.5576,-2.5615,-2.5994,-2.6386,-2.6844,-2.6425,-2.6151,-2.607,-2.6172,-2.6351,-2.6542,-2.6769,-2.6922,-2.6974,-2.6822,-2.6556,-2.6438,-2.6184,-2.6463,-2.6501,-2.6547,-2.6568,-2.6593,-2.6619,-2.6771,-2.6812,-2.6814,-2.6747,-2.6782,-2.6869,-2.6971,-2.6996,-2.6927,-2.6987,-2.6933,-2.6972,-2.7084,-2.719,-2.7281,-2.7302,-2.7335,-2.7369,-2.7403,-2.7356,-2.739,-2.7404,-2.7268,-2.7131,-2.7066,-2.702,-2.6811,-2.6543,-2.6778,-2.7144,-2.7183,-2.7137,-2.7288,-2.7262,-2.7451,-3.411,-3.3992,-3.3142,-3.2674,-3.2473,-3.2284,-3.2179,-3.2073,-3.1912,-3.1395,-3.0686,-3.0543,-3.0097,-2.9515,-2.9335,-2.9213,-2.9137,-2.9075,-2.9013,-2.892,-2.885,-2.8748,-2.8645,-2.8549,-2.8468,-2.842,-2.8411,-2.8411,-2.8411,-2.8411,-2.8411,-2.8411,-2.8372,-2.8348,-2.8323,-2.768,-2.7323,-2.7119,-2.6203,-2.5852,-2.5453,-2.5132,-2.5005,-2.4948,-2.4948,-2.4892,-2.4848,-2.4791,-2.496,-2.5162,-2.515,-2.514,-2.5146,-2.5065,-2.5048,-2.5018,-2.5018,-2.5223,-2.5675,-2.5793,-2.5824,-2.5811,-2.5589,-2.5537,-2.5694,-2.5811,-2.5767,-2.5908,-2.5989,-2.5913,-2.5708,-2.5645,-2.5685,-2.5794,-2.6122,-2.6231,-2.6309,-2.6309,-2.6342,-2.6264,-2.6329,-2.642,-2.6503,-2.6524,-2.6582,-2.6646,-2.6701,-2.6679,-2.6586,-2.6658,-2.6714,-2.6897,-2.7045,-2.718,-2.7281,-2.7315,-2.7335,-2.7369,-2.7343,-2.7304,-2.7122,-2.6993,-2.6857,-2.6726,-2.6569,-2.6419,-2.6132,-2.5863,-2.6046,-2.6203,-2.6582,-2.67,-2.6844,-2.7013,-2.7196,-3.3548,-3.3341,-3.3009,-3.2805,-3.2674,-3.2473,-3.2318,-3.2179,-3.1966,-3.162,-3.1162,-3.0808,-3.0389,-2.9913,-2.9464,-2.9266,-2.9213,-2.9137,-2.9052,-2.9013,-2.8912,-2.8811,-2.8708,-2.8565,-2.8444,-2.8436,-2.8411,-2.8411,-2.8411,-2.8411,-2.8411,-2.8411,-2.8411,-2.8411,-2.8372,-2.8024,-2.777,-2.7016,-2.6441,-2.6054,-2.5356,-2.509,-2.5005,-2.4977,-2.4977,-2.4948,-2.4892,-2.4892,-2.4939,-2.5041,-2.4965,-2.4851,-2.472,-2.4573,-2.4544,-2.4455,-2.4426,-2.4465,-2.4661,-2.4713,-2.4883,-2.5001,-2.4988,-2.4831,-2.4683,-2.5079,-2.5014,-2.5013,-2.5379,-2.5509,-2.5756,-2.5712,-2.5732,-2.5745,-2.594,-2.5953,-2.5953,-2.5953,-2.594,-2.5864,-2.5864,-2.5992,-2.609,-2.611,-2.6165,-2.6225,-2.6248,-2.646,-2.6489,-2.6603,-2.6722,-2.693,-2.7113,-2.7214,-2.7281,-2.7302,-2.7369,-2.7436,-2.7298,-2.7161,-2.6973,-2.6655,-2.6361,-2.6177,-2.5963,-2.5767,-2.5589,-2.5354,-2.5079,-2.5171,-2.5628,-2.602,-2.6177,-2.6465,-2.6863,-3.3259,-3.3091,-3.2979,-3.29,-3.2805,-3.259,-3.2387,-3.2197,-3.2055,-3.182,-3.1447,-3.0945,-3.0477,-3.0087,-2.9643,-2.9282,-2.9236,-2.9144,-2.9114,-2.9091,-2.8975,-2.8873,-2.8755,-2.8628,-2.8532,-2.846,-2.8411,-2.8411,-2.8411,-2.8411,-2.8411,-2.8411,-2.8411,-2.8411,-2.8372,-2.821,-2.786,-2.7133,-2.6651,-2.6176,-2.5522,-2.5146,-2.5005,-2.4977,-2.4948,-2.492,-2.492,-2.4863,-2.482,-2.4763,-2.4664,-2.4549,-2.4363,-2.4247,-2.4203,-2.4141,-2.4125,-2.4138,-2.4191,-2.4204,-2.4439,-2.4609,-2.4282,-2.4151,-2.4151,-2.4504,-2.4454,-2.4524,-2.4949,-2.5097,-2.5245,-2.5271,-2.5297,-2.5284,-2.544,-2.544,-2.5493,-2.5493,-2.5493,-2.5387,-2.5387,-2.5514,-2.5688,-2.5693,-2.5697,-2.5762,-2.5811,-2.6026,-2.6214,-2.6324,-2.648,-2.6724,-2.6922,-2.7009,-2.7133,-2.7335,-2.7403,-2.7469,-2.7202,-2.683,-2.657,-2.6212,-2.5905,-2.5558,-2.5258,-2.5036,-2.5053,-2.4883,-2.4648,-2.4596,-2.4792,-2.5145,-2.5445,-2.589,-2.6379,-3.3292,-3.3262,-3.3091,-3.2963,-3.2868,-3.2623,-3.2405,-3.2214,-3.2214,-3.1965,-3.1504,-3.1179,-3.0683,-3.0113,-2.9704,-2.9325,-2.9048,-2.9018,-2.8956,-2.8949,-2.8808,-2.8802,-2.8818,-2.8771,-2.8652,-2.8493,-2.842,-2.8444,-2.8436,-2.8411,-2.8411,-2.8411,-2.8411,-2.8411,-2.8372,-2.8235,-2.7845,-2.7287,-2.6771,-2.6256,-2.5633,-2.5202,-2.5033,-2.4977,-2.492,-2.4892,-2.4835,-2.4791,-2.4706,-2.4578,-2.445,-2.4392,-2.4276,-2.4187,-2.4141,-2.4125,-2.4125,-2.4125,-2.4125,-2.4125,-2.4125,-2.4269,-2.4178,-2.4125,-2.4151,-2.4217,-2.4184,-2.4184,-2.4409,-2.4292,-2.4282,-2.4321,-2.4374,-2.453,-2.4766,-2.4844,-2.4953,-2.4966,-2.4936,-2.4905,-2.4905,-2.5053,-2.5284,-2.5348,-2.5177,-2.5128,-2.5163,-2.5152,-2.539,-2.5659,-2.591,-2.6291,-2.6524,-2.6713,-2.6875,-2.696,-2.6921,-2.6863,-2.659,-2.6246,-2.6018,-2.5717,-2.5327,-2.4927,-2.4488,-2.4318,-2.4488,-2.4465,-2.4269,-2.4282,-2.4413,-2.4501,-2.4909,-2.5406,-2.5811,-3.3396,-3.3277,-3.3247,-3.3106,-3.2932,-3.2672,-3.2523,-3.2404,-3.2371,-3.2196,-3.1948,-3.1278,-3.0885,-3.0642,-2.9886,-2.9227,-2.8787,-2.8507,-2.8401,-2.8388,-2.8406,-2.8559,-2.8709,-2.8795,-2.8732,-2.8676,-2.8589,-2.8501,-2.8501,-2.8468,-2.8411,-2.8411,-2.8411,-2.8411,-2.8387,-2.8348,-2.787,-2.7363,-2.6849,-2.631,-2.577,-2.5258,-2.5061,-2.4977,-2.4948,-2.492,-2.4863,-2.4778,-2.4721,-2.4692,-2.4578,-2.4492,-2.4292,-2.4247,-2.4232,-2.4112,-2.4125,-2.4125,-2.4125,-2.4125,-2.4125,-2.4125,-2.4125,-2.4125,-2.4125,-2.4125,-2.4125,-2.4125,-2.4125,-2.4125,-2.4125,-2.4125,-2.4125,-2.4256,-2.4413,-2.4452,-2.4517,-2.4517,-2.4517,-2.4517,-2.4517,-2.4583,-2.4827,-2.4741,-2.4589,-2.4511,-2.4481,-2.4529,-2.4624,-2.4968,-2.5373,-2.5779,-2.5998,-2.6186,-2.6205,-2.6276,-2.6231,-2.6166,-2.5966,-2.5753,-2.547,-2.5166,-2.4728,-2.4428,-2.4197,-2.4093,-2.4135,-2.4083,-2.4112,-2.4125,-2.423,-2.4256,-2.44,-2.4883,-2.5223,-3.3437,-3.3337,-3.3307,-3.3006,-3.2532,-3.2309,-3.2004,-3.1764,-3.2141,-3.2336,-3.2126,-3.1524,-3.112,-3.0717,-2.9802,-2.8984,-2.8423,-2.7947,-2.7733,-2.7725,-2.7854,-2.8158,-2.8442,-2.874,-2.8771,-2.874,-2.8645,-2.8549,-2.8534,-2.8468,-2.8411,-2.8411,-2.8411,-2.8411,-2.8411,-2.8348,-2.7959,-2.7414,-2.6875,-2.6363,-2.5838,-2.5314,-2.509,-2.5005,-2.4977,-2.4948,-2.492,-2.4806,-2.4721,-2.4734,-2.462,-2.4492,-2.4334,-2.4247,-2.4276,-2.4157,-2.4141,-2.4112,-2.4125,-2.4125,-2.4125,-2.4125,-2.4125,-2.4125,-2.4125,-2.4125,-2.4125,-2.4125,-2.4125,-2.4125,-2.4125,-2.4125,-2.4125,-2.4125,-2.4138,-2.4138,-2.4138,-2.4138,-2.4151,-2.4151,-2.4151,-2.4164,-2.4161,-2.4119,-2.4103,-2.4194,-2.4233,-2.4259,-2.432,-2.4498,-2.4888,-2.5344,-2.548,-2.5602,-2.5602,-2.5725,-2.5855,-2.5842,-2.5641,-2.5393,-2.5061,-2.4713,-2.4406,-2.422,-2.4034,-2.4024,-2.4083,-2.4083,-2.4125,-2.4125,-2.4125,-2.4164,-2.4187,-2.4357,-2.4622,-3.3466,-3.3393,-3.3322,-3.2766,-3.1879,-3.1713,-3.1178,-3.0482,-3.1594,-3.2108,-3.1865,-3.1541,-3.0957,-3.0323,-2.9431,-2.8658,-2.8019,-2.7465,-2.7127,-2.7041,-2.7405,-2.7766,-2.818,-2.8496,-2.8669,-2.8654,-2.8637,-2.8629,-2.8479,-2.8462,-2.8444,-2.8411,-2.8411,-2.8411,-2.8411,-2.8411,-2.8097,-2.7655,-2.7133,-2.6613,-2.6001,-2.5467,-2.5061,-2.5076,-2.4977,-2.4835,-2.482,-2.4734,-2.462,-2.462,-2.4591,-2.4492,-2.4376,-2.4363,-2.4363,-2.4392,-2.4392,-2.4361,-2.4316,-2.4287,-2.4171,-2.4141,-2.4125,-2.4112,-2.4112,-2.4112,-2.4125,-2.4125,-2.4125,-2.4125,-2.4125,-2.4125,-2.4125,-2.4125,-2.4125,-2.4125,-2.4125,-2.4125,-2.4125,-2.4125,-2.4125,-2.4125,-2.4125,-2.4122,-2.4093,-2.4083,-2.4083,-2.4083,-2.4135,-2.421,-2.4475,-2.4883,-2.4909,-2.5027,-2.5184,-2.5319,-2.5546,-2.5551,-2.5288,-2.5048,-2.4704,-2.4413,-2.4122,-2.4024,-2.3995,-2.4024,-2.4083,-2.4096,-2.4125,-2.4125,-2.4125,-2.4125,-2.4151,-2.4161,-2.4243,-3.3495,-3.3466,-3.3352,-3.2778,-3.1987,-3.1752,-3.1135,-3.034,-3.0549,-3.0681,-3.0518,-3.0128,-2.988,-2.9679,-2.8989,-2.8191,-2.7375,-2.7009,-2.6667,-2.6516,-2.6714,-2.7379,-2.7898,-2.8232,-2.8556,-2.8841,-2.8873,-2.8724,-2.8605,-2.8549,-2.8493,-2.8436,-2.8411,-2.8411,-2.8411,-2.8411,-2.821,-2.7845,-2.7555,-2.7004,-2.6404,-2.6015,-2.5702,-2.5522,-2.5356,-2.5076,-2.4977,-2.4835,-2.4791,-2.4763,-2.4649,-2.4591,-2.452,-2.478,-2.4908,-2.4964,-2.4851,-2.475,-2.4649,-2.4476,-2.4332,-2.4216,-2.4157,-2.4144,-2.4128,-2.4112,-2.4125,-2.4125,-2.4125,-2.4125,-2.4125,-2.4125,-2.4125,-2.4125,-2.4125,-2.4125,-2.4125,-2.4125,-2.4125,-2.4125,-2.4125,-2.4125,-2.4125,-2.4125,-2.4125,-2.4112,-2.4112,-2.4096,-2.4096,-2.4148,-2.4161,-2.4439,-2.436,-2.4452,-2.4674,-2.4805,-2.5009,-2.4917,-2.4626,-2.4468,-2.436,-2.4213,-2.4067,-2.4024,-2.4024,-2.4054,-2.4096,-2.4096,-2.4125,-2.4125,-2.4125,-2.4125,-2.4125,-2.4151,-2.4138,-3.3549,-3.3481,-3.3289,-3.2748,-3.1984,-3.1377,-3.0635,-2.9887,-2.9395,-2.9162,-2.9244,-2.936,-2.9472,-2.9231,-2.8569,-2.779,-2.6963,-2.6512,-2.6141,-2.5902,-2.6177,-2.6846,-2.7406,-2.7965,-2.853,-2.8902,-2.8935,-2.8826,-2.8668,-2.8597,-2.8541,-2.8438,-2.8414,-2.8334,-2.835,-2.8381,-2.8198,-2.7984,-2.7809,-2.7485,-2.6898,-2.6534,-2.6283,-2.6095,-2.5783,-2.5536,-2.5481,-2.5356,-2.5118,-2.5132,-2.5132,-2.5104,-2.5076,-2.5105,-2.5203,-2.5147,-2.5049,-2.4907,-2.4806,-2.4692,-2.452,-2.4376,-2.4247,-2.4247,-2.4203,-2.4187,-2.4112,-2.4125,-2.4125,-2.4125,-2.4125,-2.4125,-2.4125,-2.4125,-2.4125,-2.4125,-2.4125,-2.4125,-2.4125,-2.4125,-2.4125,-2.4125,-2.4125,-2.4125,-2.4125,-2.4125,-2.4125,-2.4125,-2.4125,-2.4125,-2.4125,-2.4125,-2.4125,-2.4125,-2.4308,-2.436,-2.4347,-2.4191,-2.4125,-2.4164,-2.423,-2.4119,-2.4008,-2.4024,-2.4054,-2.4054,-2.4096,-2.4096,-2.4125,-2.4125,-2.4125,-2.4125,-2.4125,-2.4125,-2.4125,-3.3369,-3.3299,-3.3076,-3.2538,-3.1768,-3.0877,-2.9959,-2.9115,-2.8449,-2.8094,-2.8138,-2.9129,-2.9393,-2.897,-2.8407,-2.7651,-2.699,-2.6482,-2.5887,-2.5616,-2.5859,-2.6404,-2.701,-2.7644,-2.8306,-2.8752,-2.8912,-2.8842,-2.8747,-2.852,-2.8325,-2.8394,-2.8276,-2.8119,-2.8165,-2.8056,-2.7752,-2.754,-2.7467,-2.7713,-2.74,-2.7049,-2.6872,-2.6613,-2.6351,-2.627,-2.6176,-2.5906,-2.5536,-2.53,-2.523,-2.5024,-2.4997,-2.4901,-2.508,-2.5053,-2.4928,-2.48,-2.4766,-2.4763,-2.4677,-2.4549,-2.4408,-2.4337,-2.4295,-2.4221,-2.4147,-2.4089,-2.4089,-2.4099,-2.4099,-2.4112,-2.4112,-2.4125,-2.4125,-2.4125,-2.4125,-2.4125,-2.4125,-2.4125,-2.4125,-2.4125,-2.4125,-2.4125,-2.4125,-2.4125,-2.4125,-2.4125,-2.4125,-2.4125,-2.4125,-2.4125,-2.4125,-2.4125,-2.4125,-2.4125,-2.4125,-2.4125,-2.4125,-2.4125,-2.4096,-2.4067,-2.4067,-2.4096,-2.4096,-2.4096,-2.4096,-2.4125,-2.4125,-2.4125,-2.4125,-2.4125,-2.4125,-2.4125,-2.4125,-3.2216,-3.2518,-3.2401,-3.1863,-3.1081,-3.0732,-2.9758,-2.8557,-2.8848,-2.8638,-2.8129,-2.8018,-2.8163,-2.7962,-2.7763,-2.7294,-2.6824,-2.64,-2.5956,-2.5567,-2.5593,-2.5943,-2.6495,-2.7253,-2.7984,-2.8415,-2.8684,-2.874,-2.8319,-2.7984,-2.7744,-2.7635,-2.7041,-2.6872,-2.6842,-2.6849,-2.6896,-2.6834,-2.6895,-2.7018,-2.7435,-2.7284,-2.7369,-2.7108,-2.6733,-2.6575,-2.631,-2.5907,-2.5651,-2.5321,-2.4793,-2.4445,-2.4352,-2.441,-2.4549,-2.4719,-2.4613,-2.4655,-2.464,-2.4609,-2.4512,-2.441,-2.4298,-2.4366,-2.4309,-2.4266,-2.418,-2.4068,-2.4079,-2.4066,-2.4063,-2.4115,-2.4141,-2.4112,-2.4125,-2.4125,-2.4125,-2.4125,-2.4125,-2.4125,-2.4125,-2.4125,-2.4125,-2.4125,-2.4125,-2.4125,-2.4125,-2.4125,-2.4125,-2.4125,-2.4125,-2.4125,-2.4125,-2.4125,-2.4125,-2.4125,-2.4125,-2.4125,-2.4125,-2.4125,-2.4125,-2.4125,-2.4125,-2.4125,-2.4125,-2.4096,-2.4125,-2.4125,-2.4125,-2.4125,-2.4125,-2.4125,-2.4112,-2.4125,-2.4125]},{"header":{"parameterUnit":"m.s-1","parameterCategory":1,"la1":31.0,"la2":29.5877,"lo1":-88.7671,"lo2":-86.6584,"dy":0.0162,"dx":0.0185,"nx":115,"ny":88,"refTime":"2024-07-05T06:00:00:Z","depth":0,"parameterNumber":3,"parameterNumberName":"V-component_of_WINDS"},"data":[0.0,0.0,0.0,0.0,0.0,0.0,0.0,0.0,0.0,0.0,0.0,0.0,0.0,0.0,0.0,0.0,0.0,0.0,0.0,0.0,0.0,0.0,0.0,0.0,0.0,0.0,0.0,0.0,0.0,0.0,0.0,0.0,0.0,0.0,0.0,0.0,0.0,0.0,0.0,0.0,0.0,0.0,0.0,0.0,0.0,0.0,0.0,0.0,0.0,0.0,0.0,0.0,0.0,0.0,0.0,0.0,0.0,0.0,0.0,0.0,0.0,0.0,0.0,0.0,0.0,0.0,0.0,0.0,0.0,0.0,0.0,0.0,0.0,0.0,0.0,0.0,0.0,0.0,0.0,0.0,0.0,0.0,0.0,0.0,0.0,0.0,0.0,0.0,0.0,0.0,0.0,0.0,0.0,0.0,0.0,0.0,0.0,0.0,0.0,0.0,0.0,0.0,0.0,0.0,0.0,0.0,0.0,0.0,0.0,0.0,0.0,0.0,0.0,0.0,0.0,0.0,0.0,0.0,0.0,0.0,0.0,0.0,0.0,0.0,0.0,0.0,0.0,0.0,0.0,0.0,0.0,0.0,0.0,0.0,0.0,0.0,0.0,0.0,0.0,0.0,0.0,0.0,0.0,0.0,0.0,0.0,0.0,0.0,0.0,0.0,0.0,0.0,0.0,0.0,0.0,0.0,0.0,0.0,0.0,0.0,0.0,0.0,0.0,0.0,0.0,0.0,0.0,0.0,0.0,0.0,0.0,0.0,0.0,0.0,0.0,0.0,0.0,0.0,0.0,0.0,0.0,0.0,0.0,0.0,0.0,0.0,0.0,0.0,0.0,0.0,0.0,0.0,0.0,0.0,0.0,0.0,0.0,0.0,0.0,0.0,0.0,0.0,0.0,0.0,0.0,0.0,0.0,0.0,0.0,0.0,0.0,0.0,0.0,0.0,0.0,0.0,0.0,0.0,0.0,0.0,0.0,0.0,0.0,0.0,0.0,0.0,0.0,0.0,0.0,0.0,0.0,0.0,0.0,0.0,0.0,0.0,0.0,0.0,0.0,0.0,0.0,0.0,0.0,0.0,0.0,0.0,0.0,0.0,0.0,0.0,0.0,0.0,0.0,0.0,0.0,0.0,0.0,0.0,0.0,0.0,0.0,0.0,0.0,0.0,0.0,0.0,0.0,0.0,0.0,0.0,0.0,0.0,0.0,0.0,0.0,0.0,0.0,0.0,0.0,0.0,0.0,0.0,0.0,0.0,0.0,0.0,0.0,0.0,0.0,0.0,0.0,0.0,0.0,0.0,0.0,0.0,0.0,0.0,0.0,0.0,0.0,0.0,0.0,0.0,0.0,0.0,0.0,0.0,0.0,0.0,0.0,0.0,0.0,0.0,0.0,0.0,0.0,0.0,0.0,0.0,0.0,0.0,0.0,0.0,0.0,0.0,0.0,0.0,0.0,0.0,0.0,0.0,0.0,0.0,0.0,0.0,0.0,0.0,0.0,0.0,0.0,0.0,0.0,0.0,0.0,0.0,0.0,0.0,0.0,0.0,0.0,0.0,0.0,0.0,0.0,0.0,0.0,0.0,0.0,0.0,0.0,0.0,0.0,0.0,0.0,0.0,0.0,0.0,0.0,0.0,0.0,0.0,0.0,0.0,0.0,0.0,0.0,0.0,0.0,0.0,0.0,0.0,0.0,0.0,0.0,0.0,0.0,0.0,0.0,0.0,0.0,0.0,0.0,0.0,0.0,0.0,0.0,0.0,0.0,0.0,0.0,0.0,0.0,0.0,0.0,0.0,0.0,0.0,0.0,0.0,0.0,0.0,0.0,0.0,0.0,0.0,0.0,0.0,0.0,0.0,0.0,0.0,0.0,0.0,0.0,0.0,0.0,0.0,0.0,0.0,0.0,0.0,0.0,0.0,0.0,0.0,0.0,0.0,0.0,0.0,0.0,0.0,0.0,0.0,0.0,0.0,0.0,0.0,0.0,0.0,0.0,0.0,0.0,0.0,0.0,0.0,0.0,0.0,0.0,0.0,0.0,0.0,0.0,0.0,0.0,0.0,0.0,0.0,0.0,0.0,0.0,0.0,0.0,0.0,0.0,0.0,0.0,0.0,0.0,0.0,0.0,0.0,0.0,0.0,0.0,0.0,0.0,0.0,0.0,0.0,0.0,0.0,0.0,0.0,0.0,0.0,0.0,0.0,0.0,0.0,0.0,0.0,0.0,0.0,0.0,0.0,0.0,0.0,0.0,0.0,0.0,0.0,0.0,0.0,0.0,0.0,0.0,0.0,0.0,0.0,0.0,0.0,0.0,0.0,0.0,0.0,0.0,0.0,0.0,0.0,0.0,0.0,0.0,0.0,0.0,0.0,0.0,0.0,0.0,0.0,0.0,0.0,0.0,0.0,0.0,0.0,0.0,0.0,0.0,0.0,0.0,0.0,0.0,0.0,0.0,0.0,0.0,0.0,0.0,0.0,0.0,0.0,0.0,0.0,0.0,0.0,0.0,0.0,0.0,0.0,0.0,0.0,0.0,0.0,0.0,0.0,0.0,0.0,0.0,0.0,0.0,0.0,0.0,0.0,0.0,0.0,0.0,0.0,0.0,0.0,0.0,0.0,0.0,0.0,0.0,0.0,0.0,0.0,0.0,0.0,0.0,0.0,0.0,0.0,0.0,0.0,0.0,0.0,0.0,0.0,0.0,0.0,0.0,0.0,0.0,0.0,0.0,0.0,0.0,0.0,0.0,0.0,0.0,0.0,0.0,0.0,0.0,0.0,0.0,0.0,0.0,0.0,0.0,0.0,0.0,0.0,0.0,0.0,0.0,0.0,0.0,0.0,0.0,0.0,0.0,0.0,0.0,0.0,0.0,0.0,0.0,0.0,0.0,0.0,0.0,0.0,0.0,0.0,0.0,0.0,0.0,0.0,0.0,0.0,0.0,0.0,0.0,0.0,0.0,0.0,0.0,0.0,0.0,0.0,0.0,0.0,0.0,0.0,0.0,0.0,0.0,0.0,0.0,0.0,0.0,0.0,0.0,0.0,0.0,0.0,0.0,0.0,0.0,0.0,0.0,0.0,0.0,0.0,0.0,0.0,0.0,0.0,0.0,0.0,0.0,0.0,0.0,0.0,0.0,0.0,0.0,0.0,0.0,0.0,0.0,0.0,0.0,0.0,0.0,0.0,0.0,0.0,0.0,0.0,0.0,0.0,0.0,0.0,0.0,0.0,0.0,0.0,0.0,0.0,0.0,0.0,0.0,0.0,0.0,0.0,0.0,0.0,0.0,0.0,0.0,0.0,0.0,0.0,0.0,0.0,0.0,0.0,0.0,0.0,0.0,0.0,0.0,0.0,0.0,0.0,0.0,0.0,0.0,0.0,0.0,0.0,0.0,0.0,0.0,0.0,0.0,0.0,0.0,0.0,0.0,0.0,0.0,0.0,0.0,0.0,0.0,0.0,0.0,0.0,0.0,0.0,0.0,0.0,0.0,0.0,0.0,0.0,0.0,0.0,0.0,0.0,0.0,0.0,0.0,0.0,0.0,0.0,0.0,0.0,0.0,0.0,0.0,0.0,0.0,0.0,0.0,0.0,0.0,0.0,0.0,0.0,0.0,0.0,0.0,0.0,0.0,0.0,0.0,0.0,0.0,0.0,0.0,0.0,0.0,0.0,0.0,0.0,0.0,0.0,0.0,0.0,0.0,0.0,0.0,0.0,0.0,0.0,0.0,0.0,0.0,0.0,0.0,0.0,0.0,0.0,0.0,0.0,0.0,0.0,0.0,0.0,0.0,0.0,0.0,0.0,0.0,0.0,0.0,0.0,0.0,0.0,0.0,0.0,0.0,0.0,0.0,0.0,0.0,0.0,0.0,0.0,0.0,0.0,0.0,0.0,0.0,0.0,0.0,0.0,0.0,0.0,0.0,0.0,0.0,0.0,0.0,0.0,0.0,0.0,0.0,0.0,0.0,0.0,0.0,0.0,0.0,0.0,0.0,0.0,0.0,0.0,0.0,0.0,0.0,0.0,0.0,0.0,0.0,0.0,0.0,0.0,0.0,0.0,0.0,0.0,0.0,0.0,0.0,0.0,0.0,0.0,0.0,0.0,0.0,0.0,0.0,0.0,0.0,0.0,0.0,0.0,0.0,0.0,0.0,0.0,0.0,0.0,0.0,0.0,0.0,0.0,0.0,0.0,0.0,0.0,0.0,0.0,0.0,0.0,0.0,0.0,0.0,0.0,0.0,0.0,0.0,0.0,0.0,0.0,0.0,0.0,-1.3464,0.0,0.0,0.0,0.0,0.0,0.0,0.0,0.0,0.0,0.0,0.0,0.0,0.0,0.0,0.0,0.0,0.0,0.0,0.0,0.0,0.0,0.0,0.0,0.0,0.0,0.0,0.0,0.0,0.0,0.0,0.0,0.0,0.0,0.0,0.0,0.0,0.0,0.0,0.0,0.0,0.0,0.0,0.0,0.0,0.0,0.0,0.0,0.0,0.0,0.0,0.0,0.0,0.0,0.0,0.0,0.0,0.0,0.0,0.0,0.0,0.0,0.0,0.0,0.0,0.0,0.0,0.0,0.0,0.0,0.0,0.0,0.0,0.0,0.0,0.0,0.0,0.0,0.0,0.0,0.0,0.0,0.0,0.0,0.0,0.0,0.0,0.0,0.0,0.0,0.0,0.0,0.0,0.0,0.0,0.0,0.0,0.0,0.0,0.0,0.0,0.0,0.0,0.0,0.0,0.0,0.0,0.0,0.0,0.0,0.0,-1.2306,-1.1667,-1.2945,-1.3397,-1.2832,0.0,0.0,0.0,0.0,0.0,0.0,0.0,0.0,0.0,0.0,0.0,0.0,0.0,0.0,0.0,0.0,0.0,0.0,0.0,0.0,0.0,0.0,0.0,0.0,0.0,0.0,0.0,0.0,0.0,0.0,0.0,0.0,0.0,0.0,0.0,0.0,0.0,0.0,0.0,0.0,0.0,0.0,0.0,0.0,0.0,0.0,0.0,0.0,0.0,0.0,0.0,0.0,0.0,0.0,0.0,0.0,0.0,0.0,0.0,0.0,0.0,0.0,0.0,0.0,0.0,0.0,0.0,0.0,0.0,0.0,0.0,0.0,0.0,0.0,0.0,0.0,0.0,0.0,0.0,0.0,0.0,0.0,0.0,0.0,0.0,0.0,0.0,0.0,0.0,0.0,0.0,0.0,0.0,0.0,0.0,0.0,0.0,0.0,0.0,0.0,0.0,0.0,0.0,0.0,0.0,0.0,0.0,0.0,0.0,0.0,0.0,0.0,-1.2244,-1.2965,-1.2783,0.0,0.0,0.0,0.0,0.0,0.0,0.0,0.0,0.0,0.0,0.0,0.0,0.0,0.0,0.0,0.0,0.0,0.0,0.0,0.0,0.0,0.0,0.0,0.0,0.0,0.0,0.0,0.0,0.0,0.0,0.0,0.0,0.0,0.0,0.0,0.0,0.0,0.0,0.0,0.0,0.0,0.0,0.0,0.0,0.0,0.0,0.0,0.0,0.0,0.0,0.0,0.0,0.0,0.0,0.0,0.0,0.0,0.0,0.0,0.0,0.0,0.0,0.0,0.0,0.0,0.0,0.0,0.0,0.0,0.0,0.0,0.0,0.0,0.0,0.0,0.0,0.0,0.0,0.0,0.0,0.0,0.0,0.0,0.0,0.0,0.0,0.0,0.0,0.0,0.0,0.0,0.0,0.0,0.0,0.0,0.0,0.0,0.0,0.0,0.0,0.0,0.0,0.0,0.0,0.0,0.0,0.0,0.0,0.0,0.0,-1.0598,-1.1236,-1.1906,0.0,-1.4004,0.0,0.0,0.0,0.0,0.0,0.0,0.0,0.0,0.0,0.0,0.0,0.0,0.0,0.0,0.0,0.0,0.0,0.0,0.0,0.0,0.0,0.0,0.0,0.0,0.0,0.0,0.0,0.0,0.0,0.0,0.0,0.0,0.0,0.0,0.0,0.0,0.0,0.0,0.0,0.0,0.0,0.0,0.0,0.0,0.0,0.0,0.0,0.0,0.0,0.0,0.0,0.0,0.0,0.0,0.0,0.0,0.0,0.0,0.0,0.0,0.0,0.0,0.0,0.0,0.0,0.0,0.0,0.0,0.0,0.0,0.0,0.0,0.0,0.0,0.0,0.0,0.0,0.0,0.0,0.0,0.0,0.0,0.0,0.0,0.0,0.0,0.0,0.0,0.0,0.0,0.0,0.0,0.0,0.0,0.0,0.0,0.0,0.0,0.0,0.0,0.0,0.0,0.0,0.0,0.0,0.0,0.0,0.0,0.0,0.0,-0.99,-1.0351,-1.1367,-1.2288,0.0,0.0,0.0,0.0,0.0,0.0,0.0,0.0,0.0,0.0,0.0,0.0,0.0,0.0,0.0,0.0,0.0,0.0,0.0,0.0,0.0,0.0,0.0,0.0,0.0,0.0,0.0,0.0,0.0,0.0,0.0,0.0,0.0,0.0,0.0,0.0,0.0,0.0,0.0,0.0,0.0,0.0,0.0,0.0,0.0,0.0,0.0,0.0,0.0,0.0,0.0,0.0,0.0,0.0,0.0,0.0,0.0,0.0,0.0,0.0,0.0,0.0,0.0,0.0,0.0,0.0,0.0,0.0,0.0,0.0,0.0,0.0,0.0,0.0,0.0,0.0,0.0,0.0,0.0,0.0,0.0,0.0,0.0,0.0,0.0,0.0,0.0,0.0,0.0,0.0,0.0,0.0,0.0,0.0,0.0,0.0,0.0,0.0,0.0,0.0,0.0,0.0,0.0,0.0,0.0,0.0,0.0,0.0,0.0,0.0,-0.9833,-0.964,-1.0182,-1.1081,-1.1855,-1.244,0.0,0.0,0.0,0.0,0.0,0.0,0.0,0.0,0.0,0.0,0.0,0.0,0.0,0.0,0.0,0.0,0.0,0.0,0.0,0.0,0.0,0.0,0.0,0.0,0.0,0.0,0.0,0.0,0.0,0.0,0.0,0.0,0.0,0.0,0.0,0.0,0.0,0.0,0.0,0.0,0.0,0.0,0.0,0.0,0.0,0.0,0.0,0.0,0.0,0.0,0.0,0.0,0.0,0.0,0.0,0.0,0.0,0.0,0.0,0.0,0.0,0.0,0.0,0.0,0.0,0.0,0.0,0.0,0.0,0.0,0.0,0.0,0.0,0.0,0.0,0.0,0.0,0.0,0.0,0.0,0.0,0.0,0.0,0.0,0.0,0.0,0.0,0.0,0.0,0.0,0.0,0.0,0.0,0.0,0.0,0.0,0.0,0.0,0.0,0.0,0.0,0.0,0.0,0.0,0.0,0.0,0.0,0.0,-1.1844,-1.0387,-1.0164,-1.1241,-1.1322,-1.1829,0.0,0.0,0.0,0.0,0.0,0.0,0.0,0.0,0.0,0.0,0.0,0.0,0.0,0.0,0.0,0.0,0.0,0.0,0.0,0.0,0.0,0.0,0.0,0.0,0.0,0.0,0.0,0.0,0.0,0.0,0.0,0.0,0.0,0.0,0.0,0.0,0.0,0.0,0.0,0.0,0.0,0.0,0.0,0.0,0.0,0.0,0.0,0.0,0.0,0.0,0.0,0.0,0.0,0.0,0.0,0.0,0.0,0.0,0.0,0.0,0.0,0.0,0.0,0.0,0.0,0.0,0.0,0.0,0.0,0.0,0.0,0.0,0.0,0.0,0.0,0.0,0.0,0.0,0.0,0.0,0.0,0.0,0.0,0.0,0.0,0.0,0.0,0.0,0.0,0.0,0.0,0.0,0.0,0.0,0.0,0.0,0.0,0.0,0.0,0.0,0.0,0.0,0.0,0.0,0.0,0.0,0.0,0.0,0.0,-1.0823,-1.0884,-1.1174,-1.1584,-1.1899,-1.2358,0.0,0.0,0.0,0.0,0.0,0.0,0.0,0.0,0.0,0.0,0.0,0.0,0.0,0.0,0.0,0.0,0.0,0.0,0.0,0.0,0.0,0.0,0.0,0.0,0.0,0.0,0.0,0.0,0.0,0.0,0.0,0.0,0.0,0.0,0.0,0.0,0.0,0.0,0.0,0.0,0.0,0.0,0.0,0.0,0.0,0.0,0.0,0.0,0.0,0.0,0.0,0.0,0.0,0.0,0.0,0.0,0.0,0.0,0.0,0.0,0.0,0.0,0.0,0.0,0.0,0.0,0.0,0.0,0.0,0.0,0.0,0.0,0.0,0.0,0.0,0.0,0.0,0.0,0.0,0.0,0.0,0.0,0.0,0.0,0.0,0.0,0.0,0.0,0.0,0.0,0.0,0.0,0.0,0.0,0.0,0.0,0.0,0.0,0.0,0.0,0.0,0.0,0.0,0.0,0.0,0.0,0.0,0.0,0.0,-1.0697,0.0,-1.2232,-1.2279,-1.249,-1.2726,0.0,0.0,0.0,0.0,0.0,0.0,0.0,0.0,0.0,0.0,0.0,0.0,0.0,0.0,0.0,0.0,0.0,0.0,0.0,0.0,0.0,0.0,0.0,0.0,0.0,0.0,0.0,0.0,0.0,0.0,0.0,0.0,0.0,0.0,0.0,0.0,0.0,0.0,0.0,0.0,0.0,0.0,0.0,0.0,0.0,0.0,0.0,0.0,0.0,0.0,0.0,0.0,0.0,0.0,0.0,0.0,0.0,0.0,0.0,0.0,0.0,0.0,0.0,0.0,0.0,0.0,0.0,0.0,0.0,0.0,0.0,0.0,0.0,0.0,0.0,0.0,0.0,0.0,0.0,0.0,0.0,0.0,0.0,0.0,0.0,0.0,0.0,0.0,0.0,0.0,0.0,0.0,0.0,0.0,0.0,0.0,0.0,0.0,0.0,0.0,0.0,0.0,0.0,0.0,0.0,0.0,0.0,0.0,-1.1308,-1.179,-1.2748,-1.3337,-1.3499,-1.3101,-1.2891,0.0,0.0,0.0,0.0,0.0,0.0,0.0,0.0,0.0,0.0,0.0,0.0,0.0,0.0,0.0,0.0,0.0,0.0,0.0,0.0,0.0,0.0,0.0,0.0,0.0,0.0,0.0,0.0,0.0,0.0,0.0,0.0,0.0,0.0,0.0,0.0,0.0,0.0,0.0,0.0,0.0,0.0,0.0,0.0,0.0,0.0,0.0,0.0,0.0,0.0,0.0,0.0,0.0,0.0,0.0,0.0,0.0,0.0,0.0,0.0,0.0,0.0,0.0,0.0,0.0,0.0,0.0,0.0,0.0,0.0,0.0,0.0,0.0,0.0,0.0,0.0,0.0,0.0,0.0,0.0,0.0,0.0,0.0,0.0,0.0,0.0,0.0,0.0,0.0,0.0,0.0,0.0,0.0,0.0,0.0,0.0,0.0,0.0,0.0,0.0,0.0,0.0,0.0,0.0,0.0,0.0,0.0,0.0,0.0,-1.2611,-1.3772,-1.4926,-1.588,-1.4374,-1.3917,0.0,0.0,0.0,0.0,0.0,0.0,0.0,0.0,0.0,0.0,0.0,0.0,0.0,0.0,0.0,0.0,0.0,0.0,0.0,0.0,0.0,0.0,0.0,0.0,0.0,0.0,0.0,0.0,0.0,0.0,0.0,0.0,0.0,0.0,0.0,0.0,0.0,0.0,0.0,0.0,0.0,0.0,0.0,0.0,0.0,0.0,0.0,0.0,0.0,0.0,0.0,0.0,0.0,0.0,0.0,0.0,0.0,0.0,0.0,0.0,0.0,0.0,0.0,0.0,0.0,0.0,0.0,0.0,0.0,0.0,0.0,0.0,0.0,0.0,0.0,0.0,0.0,0.0,0.0,0.0,0.0,0.0,0.0,0.0,0.0,0.0,0.0,0.0,0.0,0.0,0.0,0.0,0.0,0.0,0.0,0.0,0.0,0.0,0.0,0.0,0.0,0.0,0.0,0.0,0.0,0.0,0.0,0.0,0.0,-1.4993,-1.6107,-1.7047,-1.7794,-1.6036,-1.536,-1.5865,0.0,0.0,0.0,0.0,0.0,0.0,0.0,0.0,0.0,0.0,0.0,0.0,0.0,0.0,0.0,0.0,0.0,0.0,0.0,0.0,0.0,0.0,0.0,0.0,0.0,0.0,0.0,0.0,0.0,0.0,0.0,0.0,0.0,0.0,0.0,0.0,0.0,0.0,0.0,0.0,0.0,0.0,0.0,0.0,0.0,0.0,0.0,0.0,0.0,0.0,0.0,0.0,0.0,0.0,0.0,0.0,0.0,0.0,0.0,0.0,0.0,0.0,0.0,0.0,0.0,0.0,0.0,0.0,0.0,0.0,0.0,0.0,0.0,0.0,0.0,0.0,0.0,0.0,0.0,0.0,0.0,0.0,0.0,0.0,0.0,0.0,0.0,0.0,0.0,0.0,0.0,0.0,0.0,0.0,0.0,0.0,0.0,0.0,0.0,0.0,0.0,0.0,0.0,0.0,0.0,0.0,0.0,0.0,-1.8369,-1.9301,-1.9598,-1.9182,-1.7812,-1.699,0.0,0.0,0.0,0.0,0.0,0.0,0.0,0.0,0.0,0.0,0.0,0.0,0.0,0.0,0.0,0.0,0.0,0.0,0.0,0.0,0.0,0.0,0.0,0.0,0.0,0.0,0.0,0.0,0.0,0.0,0.0,0.0,0.0,0.0,0.0,0.0,0.0,0.0,0.0,0.0,0.0,0.0,0.0,0.0,0.0,0.0,0.0,0.0,0.0,0.0,0.0,0.0,0.0,0.0,0.0,0.0,0.0,0.0,0.0,0.0,0.0,0.0,0.0,0.0,0.0,0.0,0.0,0.0,0.0,0.0,0.0,0.0,0.0,0.0,0.0,0.0,0.0,0.0,0.0,0.0,0.0,0.0,0.0,0.0,0.0,0.0,0.0,0.0,0.0,0.0,0.0,0.0,0.0,0.0,0.0,0.0,0.0,0.0,0.0,0.0,0.0,0.0,0.0,0.0,0.0,0.0,0.0,0.0,0.0,-1.8854,-2.0914,-2.177,-2.1107,-1.8597,-1.7358,0.0,0.0,0.0,0.0,0.0,0.0,0.0,0.0,0.0,0.0,0.0,0.0,0.0,0.0,0.0,0.0,0.0,0.0,0.0,0.0,0.0,0.0,0.0,0.0,0.0,0.0,0.0,0.0,0.0,0.0,0.0,0.0,0.0,0.0,0.0,0.0,0.0,0.0,0.0,0.0,0.0,0.0,0.0,0.0,0.0,0.0,0.0,0.0,0.0,0.0,0.0,0.0,0.0,0.0,0.0,0.0,0.0,0.0,0.0,0.0,0.0,0.0,0.0,0.0,0.0,0.0,0.0,0.0,0.0,0.0,0.0,0.0,0.0,0.0,0.0,0.0,0.0,0.0,0.0,0.0,0.0,0.0,0.0,0.0,0.0,0.0,0.0,0.0,0.0,0.0,0.0,0.0,0.0,0.0,0.0,0.0,0.0,0.0,0.0,0.0,0.0,0.0,0.0,0.0,0.0,0.0,0.0,0.0,-1.8666,-2.0294,-2.2156,-2.2978,-2.2604,-2.0375,-1.8843,0.0,0.0,0.0,0.0,0.0,0.0,0.0,0.0,0.0,0.0,0.0,0.0,0.0,0.0,0.0,0.0,0.0,0.0,0.0,0.0,0.0,0.0,0.0,0.0,0.0,0.0,0.0,0.0,0.0,0.0,0.0,0.0,0.0,0.0,0.0,0.0,0.0,0.0,0.0,0.0,0.0,0.0,0.0,0.0,0.0,0.0,0.0,0.0,0.0,0.0,0.0,0.0,0.0,0.0,0.0,0.0,0.0,0.0,0.0,0.0,0.0,0.0,0.0,0.0,0.0,0.0,0.0,0.0,0.0,0.0,0.0,0.0,0.0,0.0,0.0,0.0,0.0,0.0,0.0,0.0,0.0,0.0,0.0,0.0,0.0,0.0,0.0,0.0,0.0,0.0,0.0,0.0,0.0,0.0,0.0,0.0,0.0,0.0,0.0,0.0,0.0,0.0,0.0,0.0,0.0,0.0,0.0,0.0,-1.9904,-2.2188,-2.3042,-2.3461,-2.341,-2.2337,-2.081,0.0,0.0,0.0,0.0,0.0,0.0,0.0,0.0,0.0,0.0,0.0,0.0,0.0,0.0,0.0,0.0,0.0,0.0,0.0,0.0,0.0,0.0,0.0,0.0,0.0,0.0,0.0,0.0,0.0,0.0,0.0,0.0,0.0,0.0,0.0,0.0,0.0,0.0,0.0,0.0,0.0,0.0,0.0,0.0,0.0,0.0,0.0,0.0,0.0,0.0,0.0,0.0,0.0,0.0,0.0,0.0,0.0,0.0,0.0,0.0,0.0,0.0,0.0,0.0,0.0,0.0,0.0,0.0,0.0,0.0,0.0,0.0,0.0,0.0,0.0,0.0,0.0,0.0,0.0,0.0,0.0,0.0,0.0,0.0,0.0,0.0,0.0,0.0,0.0,0.0,0.0,0.0,0.0,0.0,0.0,0.0,0.0,0.0,0.0,0.0,0.0,0.0,0.0,0.0,0.0,0.0,0.0,0.0,-2.0294,-2.3114,-2.3195,-2.3177,-2.3178,-2.2337,-2.1026,0.0,0.0,0.0,0.0,0.0,0.0,0.0,0.0,0.0,0.0,0.0,0.0,0.0,0.0,0.0,0.0,0.0,0.0,0.0,0.0,0.0,0.0,0.0,0.0,0.0,0.0,0.0,0.0,0.0,0.0,0.0,0.0,0.0,0.0,0.0,0.0,0.0,0.0,0.0,0.0,0.0,0.0,0.0,0.0,0.0,0.0,0.0,0.0,-2.2907,0.0,0.0,0.0,0.0,0.0,0.0,0.0,0.0,0.0,0.0,0.0,0.0,0.0,0.0,0.0,0.0,0.0,0.0,0.0,0.0,0.0,0.0,0.0,0.0,0.0,0.0,0.0,0.0,0.0,0.0,0.0,0.0,0.0,0.0,0.0,0.0,0.0,0.0,0.0,0.0,0.0,0.0,0.0,0.0,0.0,0.0,0.0,0.0,0.0,0.0,0.0,0.0,0.0,0.0,0.0,0.0,0.0,0.0,0.0,-2.184,-2.3846,-2.3579,-2.3343,-2.3115,-2.2909,-2.1797,0.0,0.0,0.0,0.0,0.0,0.0,0.0,0.0,0.0,0.0,0.0,0.0,0.0,0.0,0.0,0.0,0.0,0.0,0.0,0.0,0.0,0.0,0.0,0.0,0.0,0.0,0.0,0.0,0.0,0.0,0.0,0.0,0.0,0.0,0.0,0.0,0.0,0.0,0.0,0.0,0.0,0.0,0.0,0.0,0.0,0.0,0.0,0.0,0.0,0.0,0.0,0.0,0.0,0.0,0.0,0.0,0.0,0.0,0.0,0.0,0.0,0.0,0.0,0.0,0.0,0.0,0.0,0.0,0.0,0.0,0.0,0.0,0.0,0.0,0.0,0.0,0.0,0.0,0.0,0.0,0.0,0.0,0.0,0.0,0.0,0.0,0.0,0.0,0.0,0.0,0.0,0.0,0.0,0.0,0.0,0.0,0.0,0.0,0.0,0.0,0.0,0.0,0.0,0.0,0.0,0.0,0.0,-2.1806,-2.3174,-2.4427,-2.3951,-2.3464,-2.3144,-2.358,-2.2617,-2.0193,0.0,0.0,0.0,0.0,0.0,0.0,0.0,0.0,0.0,0.0,0.0,0.0,0.0,0.0,0.0,0.0,0.0,0.0,0.0,0.0,0.0,0.0,0.0,0.0,0.0,0.0,0.0,0.0,0.0,0.0,0.0,0.0,0.0,0.0,0.0,0.0,0.0,0.0,-2.265,-2.2676,0.0,0.0,0.0,0.0,0.0,0.0,0.0,0.0,-2.4032,0.0,0.0,0.0,0.0,0.0,0.0,0.0,0.0,0.0,0.0,0.0,0.0,0.0,0.0,0.0,0.0,0.0,0.0,0.0,0.0,0.0,0.0,0.0,0.0,0.0,0.0,0.0,0.0,0.0,0.0,0.0,0.0,0.0,0.0,0.0,0.0,0.0,0.0,0.0,0.0,0.0,0.0,0.0,0.0,0.0,0.0,0.0,0.0,0.0,0.0,0.0,0.0,0.0,0.0,0.0,0.0,-2.1718,-2.076,-2.1808,-2.4946,-2.3694,-2.3003,-2.3091,-2.357,-2.2808,-2.0789,0.0,0.0,0.0,0.0,0.0,0.0,0.0,0.0,0.0,0.0,0.0,0.0,0.0,0.0,0.0,0.0,0.0,0.0,0.0,0.0,0.0,0.0,0.0,0.0,0.0,0.0,0.0,0.0,0.0,0.0,0.0,0.0,0.0,0.0,0.0,0.0,0.0,0.0,0.0,-2.2564,-2.2947,0.0,0.0,0.0,0.0,0.0,0.0,0.0,0.0,-2.5995,0.0,0.0,0.0,0.0,0.0,0.0,0.0,0.0,0.0,0.0,0.0,0.0,0.0,0.0,0.0,0.0,0.0,0.0,0.0,0.0,0.0,0.0,0.0,0.0,0.0,0.0,0.0,0.0,0.0,0.0,0.0,0.0,0.0,0.0,0.0,0.0,0.0,0.0,0.0,0.0,0.0,0.0,0.0,0.0,0.0,0.0,0.0,0.0,0.0,0.0,0.0,0.0,0.0,0.0,0.0,-2.1649,-2.1777,-2.2869,-2.5062,-2.3517,-2.275,-2.3091,-2.3361,-2.266,0.0,0.0,0.0,0.0,0.0,0.0,0.0,0.0,0.0,0.0,0.0,0.0,0.0,0.0,0.0,0.0,0.0,0.0,0.0,0.0,0.0,0.0,0.0,0.0,0.0,0.0,0.0,0.0,0.0,0.0,0.0,0.0,0.0,0.0,0.0,0.0,0.0,0.0,0.0,0.0,-2.2635,-2.2826,-2.2178,0.0,0.0,0.0,0.0,0.0,0.0,-2.6352,-2.7001,0.0,0.0,0.0,0.0,0.0,0.0,0.0,0.0,0.0,0.0,0.0,0.0,0.0,0.0,0.0,0.0,0.0,0.0,0.0,0.0,0.0,0.0,0.0,0.0,0.0,0.0,0.0,0.0,0.0,0.0,0.0,0.0,0.0,0.0,0.0,0.0,0.0,0.0,0.0,0.0,0.0,0.0,0.0,0.0,0.0,0.0,0.0,0.0,0.0,0.0,0.0,0.0,0.0,0.0,0.0,-2.1644,-2.2689,-2.3929,-2.5158,-2.3559,-2.2957,-2.3634,-2.3466,-2.2726,0.0,0.0,0.0,0.0,0.0,0.0,0.0,0.0,0.0,0.0,0.0,0.0,0.0,0.0,0.0,0.0,0.0,0.0,0.0,0.0,0.0,0.0,0.0,0.0,0.0,0.0,0.0,0.0,0.0,0.0,0.0,0.0,0.0,0.0,0.0,0.0,0.0,0.0,0.0,0.0,0.0,-2.3279,-2.3005,-2.356,0.0,0.0,0.0,0.0,-2.6702,-2.7728,0.0,0.0,0.0,0.0,0.0,0.0,0.0,0.0,0.0,0.0,0.0,0.0,0.0,0.0,0.0,0.0,0.0,0.0,0.0,0.0,0.0,0.0,0.0,0.0,0.0,0.0,0.0,0.0,0.0,0.0,0.0,0.0,0.0,0.0,0.0,0.0,0.0,0.0,0.0,0.0,0.0,0.0,0.0,0.0,0.0,0.0,0.0,0.0,0.0,0.0,0.0,0.0,0.0,0.0,0.0,0.0,-2.2072,-2.1893,-2.3043,-2.5484,-2.4128,-2.4012,-2.5513,-2.4445,-2.3706,0.0,0.0,0.0,0.0,0.0,0.0,0.0,0.0,0.0,0.0,0.0,0.0,0.0,0.0,0.0,0.0,0.0,0.0,0.0,0.0,0.0,0.0,0.0,0.0,0.0,0.0,0.0,0.0,0.0,0.0,0.0,0.0,0.0,0.0,0.0,0.0,0.0,0.0,0.0,0.0,0.0,-2.5446,-2.4149,-2.5289,-2.6862,0.0,0.0,-2.9205,-3.0182,-3.0869,0.0,0.0,0.0,0.0,0.0,0.0,0.0,0.0,0.0,0.0,0.0,0.0,0.0,0.0,0.0,0.0,0.0,0.0,0.0,0.0,0.0,0.0,0.0,0.0,0.0,0.0,0.0,0.0,0.0,0.0,0.0,0.0,0.0,0.0,0.0,0.0,0.0,0.0,0.0,0.0,0.0,0.0,0.0,0.0,0.0,0.0,0.0,0.0,0.0,0.0,0.0,0.0,0.0,0.0,0.0,-2.0057,-2.2242,-2.2811,-2.4221,-2.6485,-2.5457,-2.5277,-2.6268,-2.5314,-2.4234,0.0,0.0,0.0,0.0,0.0,0.0,0.0,0.0,0.0,0.0,0.0,0.0,0.0,0.0,0.0,0.0,0.0,0.0,0.0,0.0,0.0,0.0,0.0,0.0,0.0,0.0,0.0,0.0,0.0,0.0,0.0,0.0,0.0,0.0,0.0,0.0,0.0,0.0,0.0,0.0,0.0,0.0,-2.586,-2.6759,0.0,0.0,0.0,-3.0652,-3.0801,0.0,0.0,0.0,0.0,0.0,0.0,0.0,0.0,0.0,0.0,0.0,0.0,0.0,0.0,0.0,0.0,0.0,0.0,0.0,0.0,0.0,0.0,0.0,0.0,0.0,0.0,0.0,0.0,0.0,0.0,0.0,0.0,0.0,0.0,0.0,0.0,0.0,0.0,0.0,0.0,0.0,0.0,0.0,0.0,0.0,0.0,0.0,0.0,0.0,0.0,0.0,0.0,0.0,0.0,0.0,0.0,0.0,-2.2365,-2.3885,-2.5599,-2.7422,-2.6715,-2.6628,-2.7355,-2.6445,0.0,0.0,0.0,0.0,0.0,0.0,0.0,0.0,0.0,0.0,0.0,0.0,0.0,0.0,0.0,0.0,0.0,0.0,0.0,0.0,0.0,0.0,0.0,0.0,0.0,0.0,0.0,-2.5655,0.0,0.0,0.0,0.0,0.0,0.0,0.0,0.0,0.0,0.0,0.0,0.0,0.0,0.0,-2.6939,-2.7597,-2.8366,-2.927,0.0,0.0,-3.189,-3.1608,-3.1888,-3.2011,0.0,0.0,0.0,0.0,0.0,0.0,0.0,0.0,0.0,0.0,0.0,0.0,0.0,0.0,0.0,0.0,0.0,0.0,0.0,0.0,0.0,0.0,0.0,0.0,0.0,0.0,0.0,0.0,0.0,0.0,0.0,0.0,0.0,0.0,0.0,0.0,0.0,0.0,0.0,0.0,0.0,0.0,0.0,0.0,0.0,0.0,0.0,0.0,0.0,0.0,0.0,0.0,0.0,0.0,-2.1321,-2.2529,-2.4592,-2.6521,-2.8155,-2.7579,-2.7965,-2.9406,-2.7988,-2.6909,0.0,0.0,0.0,0.0,0.0,0.0,0.0,0.0,0.0,0.0,0.0,0.0,0.0,0.0,0.0,0.0,0.0,0.0,0.0,0.0,0.0,0.0,0.0,0.0,0.0,0.0,0.0,0.0,0.0,0.0,0.0,0.0,0.0,0.0,0.0,0.0,0.0,0.0,0.0,0.0,0.0,-2.9385,-2.9039,-3.0377,-3.1913,0.0,-3.3017,-3.3006,-3.3671,-3.3803,-3.3526,-3.2551,0.0,0.0,0.0,0.0,0.0,0.0,0.0,0.0,0.0,0.0,0.0,0.0,0.0,0.0,0.0,0.0,0.0,0.0,0.0,0.0,0.0,0.0,0.0,0.0,0.0,0.0,0.0,0.0,0.0,0.0,0.0,0.0,0.0,0.0,0.0,0.0,0.0,0.0,0.0,0.0,0.0,0.0,0.0,0.0,0.0,0.0,0.0,0.0,0.0,0.0,0.0,0.0,0.0,-2.1899,-2.3123,-2.5428,-2.7348,-2.8815,-2.8652,-2.8956,-2.9786,-2.8915,-2.7607,0.0,0.0,0.0,0.0,0.0,0.0,0.0,0.0,0.0,0.0,0.0,0.0,0.0,0.0,0.0,0.0,0.0,0.0,0.0,0.0,0.0,0.0,0.0,0.0,0.0,0.0,0.0,0.0,-2.7913,-2.8021,-2.7914,0.0,0.0,0.0,0.0,0.0,0.0,0.0,0.0,0.0,0.0,-3.0427,-3.0869,-3.1946,0.0,0.0,-3.387,-3.415,-3.445,-3.3946,-3.344,-3.3056,-3.2442,0.0,0.0,0.0,0.0,0.0,0.0,0.0,0.0,0.0,0.0,0.0,0.0,0.0,0.0,0.0,0.0,0.0,0.0,0.0,0.0,0.0,0.0,0.0,0.0,0.0,0.0,0.0,0.0,0.0,0.0,0.0,0.0,0.0,0.0,0.0,0.0,0.0,0.0,0.0,0.0,0.0,0.0,0.0,0.0,0.0,0.0,0.0,0.0,0.0,0.0,0.0,0.0,-2.257,-2.3528,-2.615,-2.8128,-2.935,-2.9455,-2.9646,-2.9958,-2.9692,-2.8511,0.0,0.0,0.0,0.0,0.0,0.0,0.0,0.0,0.0,0.0,0.0,0.0,0.0,0.0,0.0,0.0,0.0,0.0,0.0,0.0,0.0,0.0,0.0,0.0,0.0,0.0,0.0,0.0,-2.9393,-2.924,-2.8498,0.0,0.0,0.0,0.0,0.0,0.0,0.0,0.0,0.0,0.0,-3.1714,-3.2487,-3.341,-3.4029,-3.4203,-3.4665,-3.4981,-3.4812,-3.4206,-3.3673,-3.3528,0.0,0.0,0.0,0.0,0.0,0.0,0.0,0.0,0.0,0.0,0.0,0.0,0.0,0.0,0.0,0.0,0.0,0.0,0.0,0.0,0.0,0.0,0.0,0.0,0.0,0.0,0.0,0.0,0.0,0.0,-2.0486,0.0,0.0,0.0,0.0,0.0,0.0,0.0,0.0,0.0,0.0,0.0,0.0,0.0,0.0,0.0,0.0,0.0,0.0,0.0,0.0,0.0,0.0,-2.3397,-2.3653,-2.6809,-2.8819,-2.9557,-2.9808,-2.9945,-3.0174,-3.0333,-2.9819,-2.8515,0.0,0.0,0.0,0.0,0.0,0.0,0.0,0.0,0.0,0.0,0.0,0.0,0.0,0.0,0.0,0.0,0.0,0.0,0.0,0.0,0.0,0.0,0.0,0.0,0.0,0.0,-3.0954,-3.1466,-3.115,0.0,0.0,0.0,0.0,0.0,0.0,0.0,0.0,0.0,0.0,-3.2276,-3.3616,-3.3676,-3.4766,-3.5488,-3.5512,-3.556,-3.5388,-3.4873,-3.4748,-3.4585,0.0,0.0,0.0,0.0,0.0,0.0,0.0,0.0,0.0,0.0,0.0,0.0,0.0,0.0,0.0,0.0,0.0,0.0,0.0,0.0,0.0,0.0,0.0,0.0,0.0,0.0,0.0,-2.2152,-2.1583,0.0,0.0,0.0,0.0,0.0,0.0,0.0,0.0,0.0,0.0,0.0,-2.4805,-2.4961,0.0,0.0,0.0,0.0,0.0,0.0,0.0,0.0,0.0,0.0,0.0,0.0,-2.4236,-2.4732,-2.7434,-2.9086,-2.9443,-2.9547,-2.9665,-2.9925,-3.0133,-2.9706,-2.8643,0.0,0.0,0.0,0.0,0.0,0.0,0.0,0.0,0.0,0.0,0.0,0.0,0.0,0.0,0.0,0.0,0.0,0.0,0.0,0.0,0.0,0.0,0.0,0.0,0.0,-3.0504,0.0,0.0,0.0,0.0,0.0,0.0,0.0,0.0,0.0,0.0,0.0,-3.1216,-3.2191,-3.361,-3.4566,-3.4675,-3.5355,-3.5812,0.0,0.0,0.0,0.0,0.0,0.0,0.0,0.0,0.0,0.0,0.0,0.0,0.0,0.0,-3.4753,-3.3692,-3.311,-3.271,-3.2395,0.0,0.0,0.0,0.0,0.0,0.0,0.0,0.0,0.0,0.0,0.0,0.0,0.0,0.0,-2.3088,0.0,-2.2272,0.0,0.0,0.0,0.0,0.0,0.0,0.0,0.0,-2.5398,-2.6145,-2.6646,-2.6867,-2.6936,0.0,-2.6867,-2.5577,0.0,0.0,0.0,0.0,0.0,0.0,0.0,0.0,-2.4975,-2.5372,-2.7861,-2.9314,-2.9509,-2.9586,-2.9754,-3.0011,-3.0444,-3.032,-2.9523,-2.8669,-2.8095,0.0,0.0,0.0,0.0,0.0,0.0,0.0,0.0,0.0,0.0,0.0,0.0,0.0,0.0,0.0,0.0,0.0,0.0,0.0,0.0,0.0,0.0,0.0,-3.1789,0.0,0.0,0.0,0.0,0.0,0.0,0.0,0.0,0.0,-3.1506,-3.2101,-3.2998,-3.3902,-3.4846,-3.5491,-3.5449,0.0,0.0,0.0,0.0,0.0,0.0,0.0,-3.452,-3.4526,-3.4489,-3.4426,-3.4437,-3.5228,-3.5768,-3.552,0.0,0.0,-3.5073,-3.4528,-3.4187,-3.4033,-3.3879,-3.3683,-3.3738,-3.3894,-3.4063,0.0,0.0,0.0,0.0,0.0,0.0,0.0,0.0,-2.4662,-2.4309,0.0,-2.3282,0.0,0.0,0.0,0.0,0.0,-2.4413,0.0,0.0,-2.7235,-2.7748,-2.7619,-2.7828,-2.7908,-2.7921,-2.8121,-2.779,-2.7007,-2.5788,0.0,0.0,0.0,0.0,0.0,0.0,-2.57,-2.5833,-2.8225,-2.9599,-2.9818,-3.0049,-3.0267,-3.052,-3.1368,-3.1622,-3.1213,-3.0875,-3.0477,-2.9898,-2.9291,0.0,0.0,0.0,0.0,0.0,0.0,0.0,0.0,0.0,0.0,0.0,0.0,0.0,0.0,0.0,0.0,0.0,0.0,0.0,0.0,-3.2936,0.0,0.0,0.0,0.0,0.0,0.0,0.0,0.0,0.0,0.0,-3.353,-3.4168,-3.4958,-3.5302,0.0,0.0,0.0,0.0,-3.5791,-3.5494,-3.5436,-3.5392,-3.5475,-3.5654,-3.5889,-3.5884,0.0,0.0,-3.5617,-3.5981,-3.6169,-3.5633,-3.6006,-3.6382,-3.6208,-3.5633,-3.5241,-3.5202,-3.4782,-3.4412,-3.4415,-3.4682,-3.4716,-2.7085,0.0,0.0,0.0,0.0,-2.5766,-2.5673,-2.5444,-2.5301,-2.4929,-2.4356,-2.4189,0.0,0.0,0.0,0.0,0.0,0.0,-2.6363,-2.75,-2.8088,-2.8921,-2.991,-2.9742,-2.9843,-3.0215,-2.9905,-2.9635,-2.9407,-2.902,-2.7508,-2.4913,0.0,0.0,0.0,0.0,-2.8075,-2.8331,-2.9883,-3.0533,-3.0228,-3.0659,-3.1233,-3.2005,-3.2282,-3.2201,-3.1667,-3.1895,-3.142,-3.0121,-3.0287,0.0,0.0,0.0,0.0,0.0,0.0,0.0,0.0,0.0,0.0,0.0,0.0,0.0,0.0,0.0,0.0,0.0,0.0,0.0,-3.2525,-3.3575,-3.4278,0.0,0.0,0.0,0.0,0.0,0.0,0.0,0.0,0.0,-3.5817,-3.5357,-3.5119,0.0,0.0,-3.5577,-3.5236,-3.5596,-3.5872,-3.5765,-3.574,0.0,0.0,-3.5876,-3.5686,-3.6075,-3.6062,-3.5962,-3.581,-3.6134,-3.6355,-3.6144,-3.6257,-3.6402,-3.6344,-3.6172,-3.607,-3.6057,-3.593,-3.5783,-3.5816,-3.5894,-3.5882,-2.7248,-2.7081,-2.6814,-2.6609,-2.6511,-2.6622,-2.6686,-2.6634,-2.633,-2.6003,-2.5658,-2.5288,-2.4988,-2.4848,-2.5211,0.0,0.0,0.0,-2.7516,-2.8546,-2.8983,-2.9744,-3.0662,-3.0573,-3.0675,-3.0971,-3.0764,-3.0596,-3.052,-3.0364,-2.9372,-2.7627,0.0,0.0,-2.7189,-2.8739,-2.9603,-2.9771,-3.0939,-3.1368,-3.0985,-3.1209,-3.1629,-3.225,-3.2525,-3.263,-3.25,-3.2828,-3.2709,-3.1965,-3.2042,-3.1708,0.0,0.0,0.0,0.0,0.0,0.0,0.0,0.0,0.0,0.0,0.0,-3.1985,-3.2,0.0,0.0,0.0,-3.2304,-3.2948,-3.3704,-3.4868,0.0,0.0,0.0,0.0,0.0,0.0,0.0,-3.6075,-3.6531,-3.6767,-3.6804,-3.6147,-3.5818,-3.6064,-3.6103,-3.5936,-3.5624,0.0,-3.6029,-3.5858,-3.5774,-3.5798,-3.6129,-3.5856,-3.5729,-3.6197,-3.6193,-3.6113,-3.6126,-3.6263,-3.6439,-3.6487,-3.6499,-3.6546,-3.664,-3.67,-3.6593,-3.6452,-3.6417,-3.6417,-3.6417,-3.6417,-3.6417,-2.7277,-2.7466,-2.7433,-2.7559,-2.7707,-2.7707,-2.787,-2.8059,-2.7544,-2.7356,-2.7316,-2.6447,-2.6337,-2.6819,-2.6994,0.0,-2.7645,-2.8153,-2.872,-2.9289,-2.9872,-3.0254,-3.0509,-3.0635,-3.0762,-3.08,-3.0937,-3.0911,-3.071,-3.0353,-3.014,-3.0111,-2.9883,-2.9175,-2.812,-2.9686,-3.0542,-3.0528,-3.157,-3.2033,-3.1942,-3.1776,-3.178,-3.1913,-3.2484,-3.3031,-3.349,-3.3626,-3.3955,-3.4446,-3.3999,-3.3274,-3.2336,0.0,0.0,0.0,0.0,0.0,0.0,0.0,0.0,0.0,0.0,0.0,0.0,0.0,0.0,0.0,-3.3794,0.0,-3.5233,-3.6437,0.0,0.0,0.0,-3.7175,-3.738,-3.7318,-3.7332,-3.7473,0.0,0.0,-3.6857,-3.6705,-3.6867,-3.7435,-3.723,-3.6939,-3.669,-3.6431,-3.6219,-3.5928,-3.5717,-3.559,-3.5974,-3.6144,-3.6316,-3.6492,-3.6465,-3.6474,-3.6474,-3.6474,-3.6546,-3.6675,-3.6722,-3.6815,-3.7062,-3.7074,-3.6968,-3.664,-3.6452,-3.6452,-3.6546,-3.6499,-3.6392,-2.6038,-2.6322,-2.7301,-2.7809,-2.8017,-2.8005,-2.8056,-2.8097,-2.7959,-2.7908,-2.7896,-2.7668,-2.7666,-2.7805,-2.822,-2.8484,-2.8598,-2.9164,-2.9606,-2.9872,-3.019,-3.0663,-3.1242,-3.1031,-3.1133,-3.1524,-3.1158,-3.0986,-3.0949,-3.0805,-3.0629,-3.0355,-3.0894,-3.0884,-3.0353,-3.134,-3.1768,-3.164,-3.1882,-3.2339,-3.2911,-3.2917,-3.3339,-3.4317,-3.4024,-3.3795,-3.3663,-3.3693,-3.34,-3.2771,-3.302,-3.3125,-3.2946,-3.1806,0.0,0.0,0.0,0.0,0.0,0.0,0.0,0.0,0.0,-3.3051,-3.2705,0.0,-3.4398,0.0,-3.539,-3.63,-3.667,-3.7169,0.0,0.0,-3.8362,-3.8692,-3.8271,-3.851,-3.8378,-3.7599,-3.7738,-3.7678,-3.7219,-3.7522,-3.7781,-3.7802,-3.6968,-3.6543,-3.6996,-3.6805,-3.6483,-3.6451,-3.6553,-3.7019,-3.771,-3.8034,-3.7782,-3.7083,-3.6922,-3.6922,-3.6922,-3.6922,-3.6922,-3.7002,-3.7015,-3.7015,-3.7108,-3.7108,-3.7248,-3.7361,-3.7036,-3.6815,-3.7315,-3.6909,-3.642,-2.581,-2.6318,-2.7342,-2.8098,-2.8597,-2.865,-2.8737,-2.8837,-2.8586,-2.8473,-2.8486,-2.8486,-2.8473,-2.8524,-2.9026,-2.9302,-2.934,-2.9756,-3.0049,-3.0228,-3.0457,-3.0815,-3.1278,-3.1092,-3.1156,-3.1406,-3.113,-3.1024,-3.1024,-3.1024,-3.0891,-3.07,-3.1411,-3.149,-3.1089,-3.1933,-3.2331,-3.2203,-3.2419,-3.2788,-3.3276,-3.343,-3.3751,-3.4215,-3.3897,-3.3592,-3.336,-3.3401,-3.3301,-3.2991,-3.3337,-3.3468,-3.3306,-3.2695,-3.2167,0.0,0.0,0.0,0.0,0.0,0.0,0.0,0.0,0.0,0.0,0.0,-3.6085,-3.6768,-3.7321,-3.7839,-3.8257,-3.885,-3.9203,-3.9145,-3.9563,-3.9711,-3.9353,-3.9172,-3.8832,-3.8214,-3.8127,-3.8028,-3.7751,-3.7924,-3.8116,-3.8214,-3.7482,-3.7069,-3.7487,-3.7436,-3.7311,-3.7078,-3.7055,-3.73,-3.7957,-3.8056,-3.7826,-3.7283,-3.7095,-3.7108,-3.7108,-3.7108,-3.7155,-3.7261,-3.7261,-3.74,-3.771,-3.7769,-3.7939,-3.8355,-3.8206,-3.7978,-3.8219,-3.7348,-3.6557,-2.5799,-2.6577,-2.7232,-2.8067,-2.8925,-2.9142,-2.9434,-2.9694,-2.9151,-2.8938,-2.8963,-2.9001,-2.9001,-2.9063,-2.9578,-2.983,-2.9869,-2.9998,-3.0216,-3.0444,-3.0622,-3.0811,-3.0986,-3.1024,-3.1024,-3.1024,-3.1024,-3.1024,-3.1024,-3.1024,-3.0985,-3.0944,-3.1449,-3.141,-3.089,-3.181,-3.232,-3.2367,-3.2828,-3.3148,-3.3282,-3.3508,-3.3465,-3.3161,-3.3078,-3.2954,-3.2856,-3.2924,-3.3185,-3.3697,-3.3905,-3.3867,-3.3523,-3.3617,-3.3482,0.0,-3.3049,0.0,0.0,0.0,0.0,0.0,0.0,0.0,0.0,-3.6519,-3.777,-3.9169,-3.9207,-3.9297,-3.9707,-4.0593,-4.0937,-4.0501,-4.0436,-4.038,-4.0199,-3.9443,-3.8894,-3.8693,-3.832,-3.8062,-3.7936,-3.7847,-3.7907,-3.8299,-3.8083,-3.7854,-3.7959,-3.8087,-3.8039,-3.7616,-3.7431,-3.7454,-3.7407,-3.7381,-3.7402,-3.7294,-3.7268,-3.7214,-3.7261,-3.7214,-3.7261,-3.7505,-3.7551,-3.7782,-3.8512,-3.8589,-3.889,-3.9516,-3.9472,-3.9264,-3.9073,-3.7946,-3.6996,-2.4775,-2.4988,-2.5653,-2.6449,-2.7296,-2.8056,-2.8705,-2.931,-2.9194,-2.9233,-2.9412,-2.9542,-2.9641,-2.9641,-2.9741,-2.9895,-3.0049,-3.0075,-3.0318,-3.0647,-3.0698,-3.0811,-3.0986,-3.1024,-3.1024,-3.1024,-3.1024,-3.1024,-3.1024,-3.1024,-3.0813,-3.0513,-3.0886,-3.0841,-3.045,0.0,0.0,0.0,-3.2182,-3.2718,-3.3169,-3.2865,-3.2838,-3.3212,-3.2835,0.0,-3.2557,-3.2359,-3.2217,-3.2219,-3.2645,0.0,0.0,0.0,0.0,0.0,0.0,0.0,0.0,0.0,0.0,0.0,-3.6863,-3.7093,-3.6745,-3.7852,-3.8952,-3.9742,-3.9833,-3.9844,-3.9945,-4.0465,-4.0749,-4.07,-4.0958,-4.0778,-3.9793,-3.9452,-3.8886,-3.765,-3.7464,-3.726,-3.6955,-3.6784,-3.7021,-3.7569,-3.7814,-3.7965,-3.8076,-3.8083,-3.7938,-3.7834,-3.8074,-3.8205,-3.784,-3.8054,-3.8106,-3.7879,-3.7736,-3.7749,-3.7703,-3.7749,-3.7749,-3.7808,-3.7854,-3.8057,-3.8697,-3.8819,-3.9234,-4.03,-4.017,-3.9952,-4.0257,-3.8895,-3.7639,-2.4615,0.0,-2.5359,-2.6124,0.0,-2.7715,-2.836,-2.9061,-2.9353,-2.954,-2.9631,-2.9782,-2.9779,-2.9779,-2.9771,-2.9795,-2.992,-3.0021,-3.0194,-3.0505,-3.0592,-3.0786,-3.1024,-3.1024,-3.1024,-3.1024,-3.1024,-3.1024,-3.1024,-3.1024,-3.0904,-3.0703,-3.0874,-3.0861,-3.069,-3.136,-3.1675,-3.1547,-3.2525,-3.3174,-3.3494,-3.3685,-3.38,-3.3837,0.0,0.0,0.0,0.0,0.0,0.0,0.0,0.0,0.0,0.0,0.0,-3.4848,-3.529,-3.5397,-3.5028,-3.6044,-3.6925,-3.7446,-3.8496,-3.8882,-3.8288,-3.9084,-3.9741,-3.996,-4.0016,-4.0011,-4.0026,-4.0444,-4.0728,-4.0721,-4.0831,-4.061,-4.0007,-3.9318,-3.8616,-3.792,-3.7443,-3.7115,-3.6874,-3.7019,-3.6997,-3.6994,-3.7657,-3.7984,-3.7708,-3.8031,-3.8227,-3.7965,-3.8109,-3.8214,-3.8004,-3.8096,-3.8253,-3.7952,-3.79,-3.79,-3.79,-3.79,-3.79,-3.7946,-3.8161,-3.8575,-3.9131,-3.953,-4.0112,-4.0887,-4.1015,-4.0986,-4.1213,-3.9867,-3.8586,-2.4625,-2.5285,-2.5285,-2.6024,-2.7152,-2.7493,-2.8147,-2.9036,0.0,0.0,0.0,-2.9793,-2.9779,-2.978,-2.9743,-2.9736,-2.9785,-2.9938,-3.0156,-3.0388,-3.0547,-3.075,-3.1011,-3.1024,-3.1024,-3.1024,-3.1024,-3.1024,-3.1024,-3.1024,-3.1024,-3.1024,-3.1024,-3.1024,-3.1099,-3.2128,-3.2406,-3.1979,-3.3059,-3.3641,-3.3611,-3.4343,-3.454,-3.4103,-3.4307,-3.4177,-3.3652,-3.3789,-3.3789,-3.3683,-3.3864,-3.4,-3.4061,-3.476,-3.5233,-3.537,-3.6122,-3.6538,-3.6445,-3.7247,-3.8048,-3.8716,-3.9669,-4.006,-3.9612,-4.0006,-4.0161,-3.9945,-3.9965,-3.9925,-3.9905,-4.0248,-4.0529,-4.0603,-4.0383,-4.0246,-4.0154,-3.9176,-3.839,-3.8225,-3.7662,-3.7286,-3.7176,-3.7372,-3.7384,-3.6869,-3.7467,-3.7964,-3.7445,-3.7952,-3.8331,-3.7991,-3.7952,-3.7913,-3.79,-3.7913,-3.79,-3.7913,-3.79,-3.79,-3.79,-3.79,-3.79,-3.79,-3.844,-3.9029,-3.9574,-4.0199,-4.0944,-4.1604,-4.18,-4.1841,-4.1912,-4.0845,-3.9788,-2.4282,-2.4411,-2.4583,-2.5084,-2.5826,-2.6628,-2.7845,-2.9324,-2.9479,-2.9539,-2.9527,-2.9732,-2.9779,-2.9779,-2.9768,-2.9884,-3.0025,-3.0062,-3.0302,0.0,-3.0694,-3.0809,-3.0986,-3.1024,-3.1024,-3.1024,-3.1024,-3.1024,-3.1024,-3.1024,-3.1024,-3.1024,-3.1024,-3.1024,-3.1099,-3.2128,-3.2662,-3.2601,-3.3216,-3.3301,-3.2789,-3.2956,-3.3035,-3.2932,-3.3293,-3.3389,-3.3285,-3.3561,-3.3653,-3.3561,-3.3925,-3.4288,-3.4589,-3.4972,-3.54,-3.5839,-3.6023,-3.61,-3.6099,-3.724,-3.847,-3.9656,-3.996,-4.0005,-3.9934,-3.999,-3.996,-3.9788,-3.9717,-3.9661,-3.9526,-3.961,-3.989,-4.0286,-3.9945,-3.9639,-3.9633,-3.8981,-3.8325,-3.7841,-3.7607,-3.7441,-3.7288,-3.7285,-3.7233,-3.6989,-3.7159,-3.7531,-3.7656,-3.79,-3.7978,-3.7913,-3.79,-3.79,-3.79,-3.79,-3.79,-3.79,-3.79,-3.79,-3.79,-3.79,-3.7946,-3.7946,-3.853,-3.9176,-3.9851,-4.0488,-4.1198,-4.1856,-4.1995,-4.2036,-4.2092,-4.1591,-4.1071,-2.4067,-2.4196,-2.4421,-2.4871,-2.5611,-2.6835,-2.8119,-2.9355,-2.9427,-2.9517,-2.9656,-2.9756,-2.9779,-2.9793,-2.9745,-2.9781,-2.9881,-2.987,-3.0043,-3.0305,-3.0429,-3.0598,-3.0823,-3.0949,-3.1024,-3.1024,-3.1024,-3.1024,-3.1024,-3.1024,-3.1024,-3.1024,-3.1024,-3.1024,-3.1061,-3.1813,-3.2055,-3.1836,-3.3245,-3.383,-3.3595,-3.3773,-3.3921,-3.3906,-3.4243,-3.4435,-3.445,-3.4608,-3.464,-3.4592,-3.4781,-3.4979,-3.5123,-3.5296,-3.5463,-3.5718,-3.5767,-3.5831,-3.5831,-3.7182,-3.855,-3.9703,-3.9854,-3.9783,-3.9691,-3.9783,-3.9768,-3.9553,-3.9553,-3.9517,-3.9409,-3.9423,-3.9565,-3.9837,-3.9571,-3.945,-3.9379,-3.8879,-3.8422,-3.8095,-3.7772,-3.7567,-3.7424,-3.7706,-3.7495,-3.683,-3.6536,-3.6674,-3.731,-3.7429,-3.7547,-3.7821,-3.79,-3.79,-3.79,-3.79,-3.79,-3.79,-3.79,-3.79,-3.79,-3.79,-3.8024,-3.8408,-3.9011,-3.9706,-4.0402,-4.1114,-4.1689,-4.1912,-4.2092,-4.2092,-4.2092,-4.1995,-4.1675,-2.3841,-2.4077,-2.4325,-2.4914,-2.5821,-2.7028,-2.8199,-2.9223,-2.9302,-2.947,-2.9702,-2.9779,-2.9779,-2.978,-2.9731,-2.9726,-2.9736,-2.9738,-2.9839,-3.0034,-3.0207,-3.0394,-3.0621,-3.0849,-3.0949,-3.0949,-3.0986,-3.1024,-3.1024,-3.1024,-3.1024,-3.1024,-3.1024,-3.1024,-3.1024,-3.1519,-3.1593,-3.1347,-3.3199,-3.4162,-3.4094,-3.4587,-3.4902,-3.4935,-3.5246,-3.5439,-3.5424,-3.5472,-3.5489,-3.5489,-3.5489,-3.5489,-3.5489,-3.5489,-3.5489,-3.5504,-3.5604,-3.5774,-3.6105,-3.7186,-3.8398,-3.9525,-3.9625,-3.9553,-3.9445,-3.9553,-3.9589,-3.9409,-3.928,-3.9228,-3.9301,-3.9083,-3.9083,-3.9352,-3.928,-3.9252,-3.9316,-3.8973,-3.8701,-3.8679,-3.8263,-3.8037,-3.8075,-3.8441,-3.8162,-3.7021,-3.6101,-3.5993,-3.6655,-3.686,-3.705,-3.7534,-3.7808,-3.79,-3.79,-3.79,-3.79,-3.79,-3.79,-3.79,-3.79,-3.79,-3.807,-3.8575,-3.938,-3.9942,-4.0491,-4.1222,-4.1693,-4.1802,-4.1787,-4.1889,-4.2063,-4.2092,-4.1912,-2.3547,-2.3624,-2.4024,-2.5073,-2.6362,-2.6741,-2.7637,-2.8791,-2.904,-2.9236,-2.9431,-2.9689,-2.9792,-2.9779,-2.9781,-2.9794,-2.9794,-2.9756,-2.9897,-3.0088,-3.0101,-3.0216,-3.0444,-3.0647,-3.0736,-3.0773,-3.0911,-3.0986,-3.0986,-3.1024,-3.1024,-3.1024,-3.1024,-3.1024,-3.1061,-3.1519,-3.1776,-3.174,-3.3023,-3.3479,-3.3234,-3.4303,-3.4902,-3.4902,-3.5115,-3.5228,-3.5261,-3.5407,-3.5489,-3.5489,-3.5489,-3.5489,-3.5489,-3.5489,-3.5489,-3.5489,-3.5489,-3.5983,-3.7094,-3.7379,-3.8023,-3.923,-3.946,-3.9424,-3.9409,-3.9424,-3.9409,-3.9337,-3.8936,-3.89,-3.9265,-3.8501,-3.8412,-3.9265,-3.8958,-3.8775,-3.9265,-3.9352,-3.9316,-3.9316,-3.9156,-3.9228,-3.9119,-3.9156,-3.8818,-3.7788,-3.6498,-3.5844,-3.6318,-3.6332,-3.6397,-3.6998,-3.7508,-3.7821,-3.7874,-3.79,-3.79,-3.79,-3.79,-3.79,-3.79,-3.7874,-3.7965,-3.8249,-3.9023,-3.9637,-3.9745,-4.022,-4.1152,-4.1192,-4.1236,-4.1352,-4.1889,-4.1976,-4.178,-2.3493,-2.3547,-2.3851,-2.4647,-2.5684,-2.5935,-2.6876,-2.8171,-2.8303,-2.8673,-2.9197,-2.9482,-2.965,-2.9779,-2.9779,-2.9779,-2.9779,-2.9779,-2.983,-2.9934,-3.0049,-3.0152,-3.0228,-3.0419,-3.0533,-3.0533,-3.0723,-3.0811,-3.0836,-3.0911,-3.1024,-3.1024,-3.1024,-3.1024,-3.1024,-3.1198,-3.1482,-3.1813,-3.2739,-3.3164,-3.315,-3.4235,-3.4968,-3.5067,-3.5294,-3.5359,-3.5407,-3.5472,-3.5489,-3.5489,-3.5489,-3.5489,-3.5489,-3.5489,-3.5489,-3.5489,-3.5489,-3.6073,-3.7315,-3.7404,-3.8003,-3.932,-3.9388,-3.9388,-3.9388,-3.9388,-3.9388,-3.9388,-3.9156,-3.9156,-3.9316,-3.8943,-3.8885,-3.9301,-3.9156,-3.9119,-3.9352,-3.9388,-3.9388,-3.9388,-3.9388,-3.9388,-3.9352,-3.9083,-3.8529,-3.7689,-3.6521,-3.5963,-3.5979,-3.5755,-3.5874,-3.6345,-3.6698,-3.7155,-3.7665,-3.79,-3.7874,-3.7887,-3.79,-3.79,-3.7808,-3.7547,-3.7468,-3.7904,-3.8562,-3.9059,-3.9213,-3.9772,-4.051,-4.051,-4.051,-4.0612,-4.0887,-4.0916,-4.0862,-2.3373,-2.3406,-2.3634,-2.4305,-2.52,-2.5369,-2.6185,-2.7406,-2.7649,-2.8103,-2.8764,-2.9067,-2.9404,-2.9663,-2.9753,-2.9779,-2.9779,-2.9779,-2.9779,-2.983,-2.9934,-2.9998,-3.0049,-3.0216,-3.033,-3.0355,-3.052,-3.066,-3.0698,-3.0911,-3.1024,-3.1024,-3.1024,-3.1024,-3.1024,-3.1024,-3.1198,-3.1629,-3.2453,-3.2952,-3.315,-3.4216,-3.4868,-3.4935,-3.5195,-3.5359,-3.5407,-3.5439,-3.5439,-3.5504,-3.5489,-3.5489,-3.5489,-3.5489,-3.5489,-3.5489,-3.5489,-3.5983,-3.7075,-3.7315,-3.7898,-3.8975,-3.9275,-3.9388,-3.9388,-3.9388,-3.9388,-3.9388,-3.9388,-3.9388,-3.9388,-3.928,-3.9192,-3.9352,-3.9388,-3.9388,-3.9388,-3.9388,-3.9388,-3.9388,-3.9388,-3.9388,-3.9316,-3.8892,-3.826,-3.7467,-3.6598,-3.5832,-3.5495,-3.5276,-3.5247,-3.5783,-3.5887,-3.6292,-3.7181,-3.7312,-3.7416,-3.7416,-3.7325,-3.7286,-3.7403,-3.6972,-3.6985,-3.746,-3.782,-3.82,-3.8661,-3.9276,-3.9842,-3.9886,-3.9944,-4.0046,-4.0278,-4.0133,-4.0031,-2.3101,-2.3125,-2.3406,-2.4082,-2.5137,-2.5147,-2.5663,-2.6498,-2.7168,-2.7626,-2.79,-2.8521,-2.9042,-2.9381,-2.9588,-2.9779,-2.9779,-2.9779,-2.9779,-2.9792,-2.983,-2.983,-2.983,-3.0011,-3.0101,-3.0126,-3.0317,-3.0495,-3.0698,-3.0874,-3.1024,-3.1024,-3.1024,-3.1024,-3.1024,-3.1024,-3.1024,-3.1272,-3.2164,-3.2775,-3.3058,-3.4094,-3.4501,-3.4221,-3.4687,-3.5049,-3.5195,-3.5228,-3.5294,-3.5489,-3.5472,-3.5504,-3.5504,-3.5489,-3.5489,-3.5489,-3.5489,-3.5804,-3.6507,-3.706,-3.7704,-3.8407,-3.902,-3.9373,-3.9388,-3.9388,-3.9388,-3.9388,-3.9388,-3.9388,-3.9337,-3.901,-3.8922,-3.9352,-3.9388,-3.9388,-3.9388,-3.9388,-3.9388,-3.9388,-3.9388,-3.9388,-3.9388,-3.8863,-3.835,-3.762,-3.6702,-3.5884,-3.5398,-3.4876,-3.4847,-3.5185,-3.5407,-3.5534,-3.6057,-3.6462,-3.6397,-3.6436,-3.658,-3.6319,-3.6201,-3.6223,-3.6584,-3.6976,-3.7354,-3.7717,-3.8152,-3.8592,-3.9049,-3.932,-3.961,-3.977,-3.961,-3.9944,-3.9799,-2.2188,-2.2334,-2.2587,-2.2912,-2.3287,-2.3577,-2.4154,-2.4875,-2.5587,-2.617,-2.6757,-2.7591,-2.8168,-2.8513,-2.8998,-2.944,-2.9767,-2.9779,-2.9779,-2.9779,-2.9779,-2.9779,-2.983,-2.9856,-2.9895,-2.9921,-3.0113,-3.0381,-3.066,-3.0773,-3.0874,-3.0986,-3.1024,-3.1024,-3.1024,-3.1024,-3.1161,-3.1519,-3.1946,-3.2164,-3.2381,-3.3374,-3.3722,-3.329,-3.4303,-3.4935,-3.5001,-3.5016,-3.51,-3.5294,-3.5279,-3.5359,-3.5472,-3.5489,-3.5489,-3.5489,-3.5489,-3.5789,-3.6435,-3.6686,-3.7285,-3.8272,-3.8601,-3.8975,-3.9298,-3.9388,-3.9388,-3.9388,-3.9388,-3.9388,-3.9373,-3.9192,-3.9156,-3.9352,-3.9388,-3.9388,-3.9388,-3.9388,-3.9388,-3.9388,-3.9388,-3.9388,-3.9352,-3.92,-3.8856,-3.824,-3.7347,-3.6531,-3.5924,-3.5291,-3.489,-3.491,-3.5002,-3.4971,-3.4933,-3.5744,-3.6123,-3.6123,-3.6149,-3.6136,-3.6057,-3.5678,-3.5858,-3.6162,-3.6616,-3.7015,-3.7335,-3.813,-3.8567,-3.871,-3.9015,-3.9117,-3.887,-3.9146,-3.8986,-2.1649,-2.1885,-2.204,-2.2174,-2.2256,-2.2533,-2.2991,-2.3566,-2.45,-2.5166,-2.5747,-2.6798,-2.7467,-2.7785,-2.8174,-2.8624,-2.9201,-2.9552,-2.9779,-2.9779,-2.9779,-2.9779,-2.9779,-2.9779,-2.9779,-2.9818,-3.0011,-3.0254,-3.047,-3.0571,-3.0685,-3.0874,-3.0874,-3.0949,-3.0986,-3.1024,-3.1198,-3.1482,-3.1703,-3.1886,-3.2164,-3.3058,-3.3528,-3.3444,-3.4216,-3.4769,-3.4817,-3.4835,-3.4902,-3.5082,-3.518,-3.5294,-3.5472,-3.5489,-3.5489,-3.5489,-3.5489,-3.5684,-3.6118,-3.6357,-3.69,-3.7689,-3.7973,-3.8362,-3.899,-3.908,-3.917,-3.9298,-3.9388,-3.9388,-3.9388,-3.9388,-3.9388,-3.9388,-3.9388,-3.9388,-3.9388,-3.9388,-3.9388,-3.9388,-3.9388,-3.9388,-3.9388,-3.9388,-3.8995,-3.8352,-3.7577,-3.6947,-3.611,-3.5453,-3.4962,-3.4797,-3.4795,-3.478,-3.4789,-3.526,-3.5394,-3.542,-3.5568,-3.5686,-3.5561,-3.5208,-3.5155,-3.544,-3.5763,-3.6153,-3.6741,-3.7591,-3.7971,-3.8107,-3.8362,-3.8565,-3.8405,-3.8304,-3.8246,-2.16,-2.1807,-2.1865,-2.191,-2.2035,-2.2117,-2.2319,-2.2747,-2.3967,-2.4492,-2.472,-2.6124,-2.6791,-2.7124,-2.7236,-2.7483,-2.8064,-2.9075,-2.9591,-2.9616,-2.9641,-2.9654,-2.9628,-2.9603,-2.9591,-2.9616,-2.9897,-3.0012,-2.9999,-3.0151,-3.0315,-3.057,-3.0567,-3.0577,-3.0921,-3.0803,-3.0869,-3.0966,-3.1332,-3.1847,-3.264,-3.3045,-3.3536,-3.4018,-3.4221,-3.434,-3.4581,-3.4654,-3.475,-3.4902,-3.5082,-3.5279,-3.5472,-3.5489,-3.5489,-3.5489,-3.5489,-3.5519,-3.5609,-3.6088,-3.6402,-3.6761,-3.7105,-3.7689,-3.8257,-3.8407,-3.8646,-3.9155,-3.9284,-3.9364,-3.9373,-3.9388,-3.9388,-3.9388,-3.9388,-3.9388,-3.9388,-3.9388,-3.9388,-3.9388,-3.9388,-3.9388,-3.9388,-3.9388,-3.8995,-3.8173,-3.7577,-3.7025,-3.603,-3.5426,-3.4962,-3.4797,-3.4797,-3.4756,-3.4756,-3.4782,-3.4645,-3.4546,-3.4774,-3.4934,-3.4701,-3.4452,-3.457,-3.4832,-3.5317,-3.5703,-3.6245,-3.7019,-3.7546,-3.7738,-3.7926,-3.7897,-3.7752,-3.7651,-3.781,-2.0579,-2.0827,-2.0937,-2.1006,-2.1135,-2.1224,-2.1352,-2.152,-2.2492,-2.2992,-2.3362,-2.4576,-2.5413,-2.5929,-2.6517,-2.7042,-2.7434,-2.8102,-2.8512,-2.8637,-2.8637,-2.8674,-2.8662,-2.8649,-2.8637,-2.8637,-2.8686,-2.8797,-2.8933,-2.9007,-2.9129,-2.9288,-2.9497,-2.958,-2.9691,-2.9774,-2.981,-2.9846,-2.9977,-3.0321,-3.0845,-3.1461,-3.2019,-3.2459,-3.285,-3.3108,-3.3231,-3.4016,-3.4553,-3.4735,-3.4902,-3.5148,-3.5424,-3.5489,-3.5489,-3.5489,-3.5489,-3.5489,-3.5519,-3.5699,-3.6028,-3.6387,-3.6671,-3.7075,-3.7599,-3.7719,-3.8018,-3.8586,-3.8721,-3.8856,-3.9269,-3.9388,-3.9373,-3.9388,-3.9388,-3.9388,-3.9388,-3.9388,-3.9388,-3.9388,-3.9388,-3.9388,-3.9388,-3.9388,-3.9192,-3.8797,-3.8337,-3.7644,-3.6791,-3.607,-3.5494,-3.5003,-3.4908,-3.4908,-3.4977,-3.4911,-3.4643,-3.4493,-3.4533,-3.425,-3.3996,-3.3837,-3.4005,-3.4406,-3.4886,-3.5409,-3.5925,-3.6439,-3.696,-3.7041,-3.6968,-3.6939,-3.691,-3.7027,-3.7201,-1.999,-2.0303,-2.042,-2.0527,-2.0605,-2.0741,-2.077,-2.0964,-2.1977,-2.2494,-2.2916,-2.4143,-2.4895,-2.5323,-2.5925,-2.6335,-2.6627,-2.6894,-2.7135,-2.7451,-2.7947,-2.8097,-2.8109,-2.8109,-2.8109,-2.8109,-2.8122,-2.8182,-2.8279,-2.8315,-2.8388,-2.8618,-2.8713,-2.8846,-2.8892,-2.9084,-2.919,-2.9226,-2.9487,-2.9832,-3.0337,-3.0881,-3.1415,-3.1921,-3.232,-3.2481,-3.2585,-3.3278,-3.3885,-3.4266,-3.4603,-3.5016,-3.5326,-3.5407,-3.5439,-3.5504,-3.5489,-3.5489,-3.5489,-3.5519,-3.5654,-3.6043,-3.6118,-3.6402,-3.6911,-3.706,-3.736,-3.7883,-3.8033,-3.8287,-3.8871,-3.902,-3.9125,-3.9373,-3.9388,-3.9388,-3.9388,-3.9388,-3.9388,-3.9388,-3.9388,-3.9388,-3.9388,-3.9388,-3.928,-3.9083,-3.8738,-3.8037,-3.7218,-3.6649,-3.5976,-3.5521,-3.5602,-3.5548,-3.5359,-3.509,-3.4741,-3.4566,-3.4419,-3.3884,-3.3418,-3.3314,-3.3343,-3.4001,-3.4536,-3.5222,-3.5781,-3.6136,-3.6548,-3.6315,-3.6185,-3.6417,-3.6577,-3.6504,-3.6606,-1.9843,-2.0264,-2.0303,-2.0411,-2.0566,-2.0615,-2.0615,-2.0867,-2.2172,-2.2809,-2.318,-2.4384,-2.5147,-2.5218,-2.5361,-2.5574,-2.5595,-2.5775,-2.6,-2.6516,-2.7228,-2.7773,-2.7821,-2.7808,-2.7808,-2.7871,-2.7896,-2.7921,-2.7869,-2.7869,-2.8118,-2.8147,-2.8145,-2.8356,-2.8421,-2.8763,-2.8744,-2.8798,-2.9398,-2.997,-3.0573,-3.1138,-3.1643,-3.2171,-3.2234,-3.2251,-3.2237,-3.244,-3.2803,-3.3449,-3.4196,-3.4703,-3.5041,-3.5136,-3.5261,-3.5392,-3.5457,-3.5457,-3.5472,-3.5504,-3.5519,-3.5579,-3.5639,-3.5744,-3.6327,-3.6447,-3.6686,-3.727,-3.736,-3.7629,-3.8167,-3.8332,-3.8631,-3.9215,-3.9313,-3.9373,-3.9388,-3.9388,-3.9388,-3.9388,-3.9388,-3.9388,-3.9373,-3.9328,-3.9052,-3.8819,-3.8509,-3.769,-3.6866,-3.6423,-3.63,-3.6008,-3.5553,-3.555,-3.5201,-3.5059,-3.4656,-3.4299,-3.4184,-3.3763,-3.3093,-3.2948,-3.2659,-3.334,-3.4128,-3.4845,-3.5279,-3.5425,-3.5716,-3.5749,-3.5836,-3.6141,-3.6098,-3.588,-3.5836,-1.9676,-1.9833,-2.0157,-2.0342,-2.042,-2.0527,-2.0615,-2.0712,-2.169,-2.2258,-2.2644,-2.3793,-2.4576,-2.4731,-2.5123,-2.5347,-2.543,-2.5535,-2.5606,-2.583,-2.6179,-2.6634,-2.6857,-2.6939,-2.6952,-2.6977,-2.704,-2.6927,-2.6927,-2.7014,-2.7024,-2.6984,-2.7177,-2.7208,-2.7261,-2.7511,-2.7528,-2.7619,-2.8217,-2.8864,-2.9421,-3.0045,-3.0523,-3.1014,-3.1119,-3.1134,-3.1148,-3.154,-3.2155,-3.2952,-3.3583,-3.405,-3.4336,-3.4691,-3.493,-3.5055,-3.5184,-3.5294,-3.5279,-3.5407,-3.5489,-3.5489,-3.5504,-3.5579,-3.5729,-3.5759,-3.6088,-3.6567,-3.6746,-3.6985,-3.7509,-3.7689,-3.8018,-3.8586,-3.9005,-3.9298,-3.9388,-3.9388,-3.9388,-3.9388,-3.9358,-3.9328,-3.9179,-3.8925,-3.8755,-3.8784,-3.8269,-3.746,-3.6645,-3.6156,-3.6048,-3.5065,-3.4607,-3.4913,-3.4979,-3.4862,-3.4577,-3.4089,-3.3886,-3.3761,-3.3156,-3.2731,-3.2367,-3.229,-3.3248,-3.404,-3.4044,-3.4114,-3.4479,-3.5183,-3.5125,-3.5212,-3.5024,-3.4835,-3.4907,-1.9439,-1.9645,-1.9912,-2.0108,-2.0303,-2.042,-2.0527,-2.075,-2.1433,-2.2004,-2.2542,-2.3475,-2.4276,-2.4778,-2.5064,-2.5241,-2.5312,-2.543,-2.5488,-2.5641,-2.5865,-2.6121,-2.6352,-2.643,-2.6487,-2.6487,-2.6487,-2.6512,-2.6512,-2.6487,-2.6487,-2.6571,-2.6555,-2.6611,-2.6674,-2.676,-2.6863,-2.7079,-2.7776,-2.8514,-2.8835,-2.9685,-3.0235,-3.0552,-3.0612,-3.0612,-3.0685,-3.0945,-3.1602,-3.2494,-3.3022,-3.3276,-3.3498,-3.3821,-3.4144,-3.4445,-3.465,-3.4756,-3.507,-3.5261,-3.5359,-3.5392,-3.5439,-3.5504,-3.5519,-3.5504,-3.5744,-3.5998,-3.6073,-3.6402,-3.6896,-3.724,-3.7569,-3.7943,-3.8332,-3.8775,-3.9284,-3.9388,-3.926,-3.9095,-3.8975,-3.8856,-3.8626,-3.8212,-3.8242,-3.8282,-3.7874,-3.7149,-3.6461,-3.6101,-3.5683,-3.489,-3.4757,-3.5325,-3.5328,-3.5091,-3.4873,-3.4389,-3.4001,-3.3824,-3.3282,-3.275,-3.2523,-3.2377,-3.2803,-3.3129,-3.3374,-3.3667,-3.4209,-3.4646,-3.4395,-3.4351,-3.4337,-3.4269,-3.4298,-1.924,-1.9518,-1.9597,-1.9833,-2.0186,-2.0264,-2.0333,-2.0634,-2.1385,-2.2031,-2.2606,-2.3486,-2.4227,-2.4969,-2.5004,-2.517,-2.5276,-2.5312,-2.5418,-2.5571,-2.5758,-2.5945,-2.6084,-2.6327,-2.643,-2.643,-2.6452,-2.6487,-2.6487,-2.6487,-2.6487,-2.6487,-2.6499,-2.6487,-2.6555,-2.6624,-2.6679,-2.6918,-2.796,-2.8578,-2.8899,-2.9761,-3.0401,-3.0462,-3.0538,-3.0582,-3.0612,-3.0714,-3.115,-3.2237,-3.2336,-3.2474,-3.2647,-3.2677,-3.3091,-3.3659,-3.3871,-3.4077,-3.4596,-3.4786,-3.505,-3.5083,-3.5317,-3.5504,-3.5489,-3.5504,-3.5534,-3.5609,-3.5504,-3.5848,-3.6312,-3.6911,-3.721,-3.736,-3.7404,-3.8048,-3.8856,-3.9215,-3.896,-3.8422,-3.8302,-3.7988,-3.7629,-3.736,-3.736,-3.7793,-3.7291,-3.6552,-3.6099,-3.5848,-3.5551,-3.5196,-3.546,-3.6164,-3.5813,-3.54,-3.5136,-3.4805,-3.4404,-3.4088,-3.3551,-3.3142,-3.2923,-3.2952,-3.322,-3.3409,-3.3528,-3.3874,-3.4283,-3.438,-3.438,-3.4356,-3.4269,-3.4095,-3.4037,-1.9042,-1.9161,-1.9478,-1.9645,-1.9754,-1.9912,-2.002,-2.0137,-2.1116,-2.1652,-2.2069,-2.3243,-2.395,-2.4204,-2.4767,-2.5123,-2.5098,-2.5145,-2.5312,-2.5347,-2.5571,-2.5676,-2.5756,-2.5998,-2.6211,-2.6292,-2.643,-2.6487,-2.6499,-2.6487,-2.6487,-2.6487,-2.6487,-2.6487,-2.6521,-2.6521,-2.6555,-2.676,-2.7809,-2.8417,-2.8693,-2.962,-3.0233,-3.0264,-3.0326,-3.0447,-3.0582,-3.0612,-3.0757,-3.1032,-3.1453,-3.1743,-3.1878,-3.2242,-3.2579,-3.2803,-3.2972,-3.3123,-3.336,-3.3982,-3.4411,-3.4488,-3.4974,-3.5489,-3.5489,-3.5459,-3.5474,-3.5489,-3.5504,-3.5594,-3.5804,-3.6327,-3.6611,-3.6746,-3.7045,-3.7419,-3.7764,-3.7868,-3.7853,-3.7689,-3.7614,-3.7539,-3.7325,-3.6851,-3.6881,-3.7135,-3.6682,-3.5944,-3.5686,-3.5565,-3.5395,-3.5198,-3.5321,-3.5781,-3.5556,-3.5141,-3.4931,-3.4728,-3.4424,-3.4192,-3.3668,-3.3356,-3.3099,-3.3246,-3.3569,-3.3673,-3.3748,-3.3979,-3.4389,-3.4394,-3.4298,-3.4008,-3.379,-3.3732,-3.363,-1.8843,-1.9002,-1.924,-1.9439,-1.9606,-1.9715,-1.9784,-2.0059,-2.0934,-2.1538,-2.1993,-2.3128,-2.3666,-2.3834,-2.4225,-2.4389,-2.4385,-2.4522,-2.4578,-2.4601,-2.4715,-2.4762,-2.4796,-2.5086,-2.5379,-2.5914,-2.6258,-2.6361,-2.6374,-2.643,-2.6487,-2.6487,-2.6487,-2.6487,-2.6487,-2.6487,-2.6645,-2.6985,-2.7776,-2.8398,-2.8785,-2.9557,-3.008,-3.0111,-3.0189,-3.031,-3.0417,-3.0447,-3.0507,-3.0655,-3.0887,-3.1076,-3.1105,-3.1409,-3.1714,-3.2004,-3.2125,-3.2441,-3.2813,-3.3267,-3.3663,-3.3743,-3.4288,-3.4665,-3.4921,-3.5026,-3.522,-3.54,-3.5489,-3.5504,-3.5519,-3.5744,-3.6013,-3.6073,-3.6312,-3.6507,-3.6611,-3.7015,-3.7255,-3.709,-3.6971,-3.6761,-3.6492,-3.6282,-3.6178,-3.6327,-3.6297,-3.5636,-3.5606,-3.5474,-3.5333,-3.5171,-3.5097,-3.5082,-3.5016,-3.48,-3.4622,-3.4385,-3.4124,-3.392,-3.3652,-3.3398,-3.3231,-3.3432,-3.3647,-3.3887,-3.396,-3.4234,-3.413,-3.3914,-3.3659,-3.3398,-3.3195,-3.3064,-3.2962,-1.8563,-1.8922,-1.8962,-1.9164,-1.9395,-1.9455,-1.9468,-1.9675,-2.0467,-2.0956,-2.1774,-2.2576,-2.2938,-2.3362,-2.3549,-2.3568,-2.3615,-2.3699,-2.392,-2.3974,-2.3986,-2.402,-2.4029,-2.4202,-2.4591,-2.5546,-2.584,-2.5993,-2.6198,-2.6361,-2.643,-2.6487,-2.6487,-2.6487,-2.6487,-2.6521,-2.6611,-2.7007,-2.7776,-2.8365,-2.8862,-2.954,-2.9943,-3.0036,-3.0036,-3.0144,-3.0296,-3.0357,-3.0403,-3.0582,-3.0612,-3.0612,-3.0612,-3.0641,-3.0786,-3.1321,-3.138,-3.1647,-3.2136,-3.263,-3.2919,-3.3044,-3.3407,-3.3784,-3.4203,-3.4352,-3.4547,-3.4921,-3.513,-3.5325,-3.5459,-3.5579,-3.5564,-3.5549,-3.5534,-3.5489,-3.5684,-3.6507,-3.6656,-3.6477,-3.6312,-3.6163,-3.5923,-3.5684,-3.5564,-3.5489,-3.5489,-3.5489,-3.5457,-3.5457,-3.5326,-3.5195,-3.5082,-3.5012,-3.4898,-3.471,-3.4491,-3.4045,-3.3798,-3.3561,-3.3358,-3.2898,-3.2695,-3.3343,-3.3636,-3.3694,-3.3684,-3.3613,-3.3471,-3.3303,-3.3111,-3.2846,-3.2629,-3.2379,-3.2234,-1.8233,-1.8514,-1.8882,-1.8861,-1.8668,-1.8777,-1.8718,-1.8498,-1.9041,-1.9436,-2.0125,-2.0961,-2.1811,-2.2203,-2.288,-2.3206,-2.3309,-2.3382,-2.3496,-2.364,-2.3673,-2.3661,-2.3625,-2.3622,-2.3908,-2.4287,-2.4863,-2.5472,-2.5946,-2.6248,-2.6174,-2.6389,-2.6399,-2.6386,-2.6361,-2.6474,-2.6391,-2.668,-2.7433,-2.8011,-2.8432,-2.9184,-2.9775,-2.9853,-2.9884,-3.0038,-3.0251,-3.0326,-3.0417,-3.0582,-3.0612,-3.0612,-3.0612,-3.0612,-3.0685,-3.0786,-3.0859,-3.102,-3.1332,-3.1837,-3.2195,-3.257,-3.2975,-3.3395,-3.3604,-3.3664,-3.3799,-3.4023,-3.4457,-3.4846,-3.5444,-3.5295,-3.5429,-3.5444,-3.5355,-3.5385,-3.5474,-3.5669,-3.5938,-3.5833,-3.5729,-3.5714,-3.5579,-3.5489,-3.5489,-3.5489,-3.5489,-3.5424,-3.5392,-3.5392,-3.5326,-3.5228,-3.5115,-3.5012,-3.4942,-3.471,-3.4445,-3.3813,-3.3427,-3.3038,-3.2719,-3.2092,-3.2106,-3.2513,-3.2882,-3.2954,-3.2914,-3.2931,-3.2812,-3.2646,-3.2469,-3.2249,-3.199,-3.1685,-3.1453,-1.8072,-1.8376,-1.8509,-1.8479,-1.8407,-1.8372,-1.8311,-1.8221,-1.8756,-1.9393,-2.0078,-2.0885,-2.1499,-2.1868,-2.2194,-2.2467,-2.2486,-2.2609,-2.2718,-2.2815,-2.2923,-2.2987,-2.2991,-2.3011,-2.318,-2.3405,-2.3895,-2.4483,-2.5139,-2.5298,-2.5507,-2.5565,-2.5611,-2.5611,-2.5611,-2.5561,-2.579,-2.6112,-2.6765,-2.7476,-2.8044,-2.9053,-2.9591,-2.9747,-2.9794,-2.9962,-3.0221,-3.0296,-3.0417,-3.0582,-3.0612,-3.0612,-3.0598,-3.0612,-3.0612,-3.0612,-3.0612,-3.0657,-3.0791,-3.1293,-3.1575,-3.1693,-3.2214,-3.2602,-3.2826,-3.296,-3.3125,-3.3484,-3.3664,-3.4098,-3.4382,-3.4517,-3.4457,-3.4457,-3.4517,-3.4681,-3.4876,-3.4983,-3.5115,-3.5325,-3.5444,-3.5489,-3.5549,-3.5489,-3.5489,-3.5489,-3.5489,-3.5424,-3.5326,-3.5359,-3.5359,-3.5207,-3.505,-3.4771,-3.461,-3.4317,-3.3988,-3.3413,-3.2934,-3.2547,-3.2155,-3.1542,-3.1295,-3.138,-3.1704,-3.2142,-3.2344,-3.2414,-3.2225,-3.1992,-3.1671,-3.1409,-3.1192,-3.0959,-3.0858,-1.7859,-1.8174,-1.8065,-1.8047,-1.806,-1.796,-1.7908,-1.8027,-1.8651,-1.9363,-2.018,-2.0889,-2.1419,-2.1682,-2.1732,-2.1645,-2.142,-2.1741,-2.1914,-2.2044,-2.2138,-2.2183,-2.2209,-2.2234,-2.245,-2.2818,-2.2935,-2.3333,-2.4259,-2.4579,-2.4643,-2.4861,-2.4806,-2.48,-2.4908,-2.5008,-2.5116,-2.5454,-2.6082,-2.6884,-2.7934,-2.887,-2.9468,-2.9619,-2.9676,-2.9915,-3.0205,-3.0034,-3.0097,-3.0247,-3.0365,-3.0394,-3.0423,-3.0525,-3.0598,-3.0612,-3.0612,-3.0657,-3.0791,-3.094,-3.1146,-3.1265,-3.1352,-3.1663,-3.1975,-3.2303,-3.2572,-3.3125,-3.3305,-3.3425,-3.3649,-3.3574,-3.3574,-3.3589,-3.3649,-3.3694,-3.4098,-3.4354,-3.4503,-3.4726,-3.5055,-3.5218,-3.523,-3.5374,-3.5374,-3.5359,-3.5359,-3.5472,-3.5407,-3.5424,-3.5412,-3.517,-3.4927,-3.4545,-3.4224,-3.3765,-3.3321,-3.275,-3.2282,-3.1862,-3.15,-3.1065,-3.0933,-3.0888,-3.1003,-3.1455,-3.1685,-3.1816,-3.1526,-3.1237,-3.0874,-3.0728,-3.0801,-3.0801,-3.0728,-1.7411,-1.7395,-1.7687,-1.7556,-1.7159,-1.7252,-1.7233,-1.7206,-1.7912,-1.8544,-1.9414,-1.9985,-2.0718,-2.1223,-2.1339,-2.1354,-2.1411,-2.1494,-2.1663,-2.1862,-2.1968,-2.2061,-2.2197,-2.2197,-2.2234,-2.2402,-2.2366,-2.2966,-2.3668,-2.4063,-2.4357,-2.4469,-2.4536,-2.4738,-2.4518,-2.4525,-2.4808,-2.5039,-2.5819,-2.6783,-2.7704,-2.8446,-2.8745,-2.8975,-2.9273,-2.9667,-2.9843,-2.9602,-2.949,-2.9754,-2.9755,-2.9726,-2.9813,-3.0336,-3.0539,-3.0612,-3.0612,-3.0657,-3.0762,-3.0851,-3.0895,-3.1028,-3.1146,-3.1235,-3.1456,-3.1648,-3.1959,-3.2542,-3.2587,-3.2781,-3.311,-3.3365,-3.3455,-3.335,-3.3215,-3.3335,-3.3589,-3.3619,-3.3784,-3.3963,-3.4247,-3.4646,-3.4832,-3.5035,-3.5225,-3.5243,-3.5231,-3.527,-3.5198,-3.5034,-3.4914,-3.4599,-3.4373,-3.3993,-3.3558,-3.3149,-3.2691,-3.2105,-3.17,-3.1295,-3.1064,-3.0832,-3.0744,-3.0728,-3.0785,-3.0829,-3.1047,-3.1047,-3.0816,-3.0728,-3.067,-3.0641,-3.0627,-3.0612,-3.0612,-1.7115,-1.7175,-1.7135,-1.7061,-1.69,-1.6866,-1.7064,-1.7367,-1.7681,-1.8452,-1.9342,-1.9737,-2.0399,-2.1063,-2.1201,-2.1221,-2.1305,-2.1443,-2.1624,-2.1843,-2.198,-2.2092,-2.2166,-2.2197,-2.2197,-2.2197,-2.2209,-2.2373,-2.2982,-2.3181,-2.3359,-2.3566,-2.3698,-2.3673,-2.3867,-2.3829,-2.3983,-2.4506,-2.5481,-2.6533,-2.7278,-2.7853,-2.8258,-2.8392,-2.8689,-2.8995,-2.9158,-2.9102,-2.9117,-2.9465,-2.9595,-2.9842,-3.0103,-3.0452,-3.0612,-3.0612,-3.0612,-3.0642,-3.0702,-3.0747,-3.0791,-3.0866,-3.0984,-3.1146,-3.119,-3.1264,-3.1352,-3.1664,-3.1708,-3.1946,-3.2229,-3.2244,-3.2288,-3.2348,-3.2557,-3.2736,-3.2871,-3.2946,-3.3051,-3.323,-3.3425,-3.3719,-3.3984,-3.4075,-3.4207,-3.4341,-3.4297,-3.4237,-3.4087,-3.386,-3.3771,-3.3682,-3.3502,-3.3323,-3.2799,-3.2351,-3.2057,-3.1557,-3.1216,-3.0904,-3.0877,-3.0717,-3.0642,-3.0612,-3.0685,-3.067,-3.0612,-3.0627,-3.0685,-3.0656,-3.0612,-3.0612,-3.0612,-3.0612,-3.0612,-1.6746,-1.6938,-1.6664,-1.6584,-1.6714,-1.6598,-1.6855,-1.7398,-1.7604,-1.8307,-1.9243,-1.9704,-2.0399,-2.1031,-2.1201,-2.1201,-2.1221,-2.1466,-2.1604,-2.1773,-2.1949,-2.2092,-2.2166,-2.2197,-2.2197,-2.2197,-2.2197,-2.2258,-2.2265,-2.237,-2.2573,-2.2616,-2.2942,-2.2947,-2.2916,-2.3099,-2.3367,-2.4155,-2.522,-2.6079,-2.6697,-2.7252,-2.7582,-2.7825,-2.8025,-2.824,-2.8511,-2.8365,-2.8583,-2.9218,-2.9319,-2.9493,-2.9857,-3.0089,-3.0219,-3.0248,-3.0234,-3.0409,-3.0555,-3.0672,-3.0657,-3.0732,-3.0836,-3.0984,-3.0999,-3.1043,-3.1117,-3.122,-3.122,-3.1235,-3.1278,-3.1396,-3.1558,-3.1662,-3.1675,-3.1884,-3.2079,-3.2199,-3.2258,-3.2318,-3.2437,-3.2557,-3.2765,-3.29,-3.3095,-3.3362,-3.3376,-3.3254,-3.3162,-3.3056,-3.3013,-3.3044,-3.2864,-3.264,-3.2075,-3.1631,-3.1322,-3.113,-3.0805,-3.0657,-3.0672,-3.0672,-3.0642,-3.0612,-3.0612,-3.0612,-3.0612,-3.0612,-3.0612,-3.0612,-3.0612,-3.0612,-3.0612,-3.0612,-3.0612,-1.619,-1.6357,-1.6314,-1.6283,-1.6193,-1.6254,-1.6473,-1.6925,-1.7432,-1.791,-1.861,-1.9474,-2.0474,-2.1042,-2.1201,-2.1201,-2.1201,-2.1233,-2.1434,-2.1635,-2.1761,-2.1949,-2.2073,-2.2154,-2.2197,-2.2197,-2.2197,-2.2197,-2.2197,-2.2228,-2.2309,-2.2432,-2.2616,-2.2678,-2.2757,-2.2836,-2.3365,-2.4118,-2.504,-2.5549,-2.6078,-2.6568,-2.6905,-2.706,-2.7483,-2.7952,-2.814,-2.771,-2.7822,-2.8652,-2.871,-2.8869,-2.9188,-2.9479,-2.9668,-2.9697,-2.9682,-2.9885,-3.0162,-3.0496,-3.0583,-3.0628,-3.0615,-3.0573,-3.0499,-3.0896,-3.1058,-3.097,-3.0911,-3.1102,-3.1205,-3.1322,-3.1292,-3.1366,-3.138,-3.1484,-3.1633,-3.153,-3.1559,-3.147,-3.156,-3.1768,-3.1857,-3.202,-3.2378,-3.2661,-3.275,-3.2659,-3.2839,-3.2778,-3.266,-3.2616,-3.2361,-3.1974,-3.1368,-3.1043,-3.0998,-3.0923,-3.0731,-3.0642,-3.0642,-3.0612,-3.0598,-3.0612,-3.0612,-3.0612,-3.0554,-3.0438,-3.0394,-3.0554,-3.0612,-3.0612,-3.0612,-3.0612,-3.0612,-1.5635,-1.5781,-1.5786,-1.5917,-1.6096,-1.6132,-1.6517,-1.7097,-1.7407,-1.8114,-1.8988,-1.9781,-2.0431,-2.0935,-2.1169,-2.1201,-2.1233,-2.1273,-2.14,-2.1537,-2.1706,-2.1906,-2.203,-2.2123,-2.2197,-2.2197,-2.2197,-2.2197,-2.2197,-2.2197,-2.2197,-2.2309,-2.2463,-2.2482,-2.2574,-2.2884,-2.3518,-2.4147,-2.4808,-2.5328,-2.5826,-2.6062,-2.6272,-2.6411,-2.6538,-2.6847,-2.697,-2.6798,-2.7221,-2.7733,-2.7962,-2.8234,-2.8565,-2.8898,-2.9015,-2.9058,-2.9044,-2.9218,-2.9595,-3.0075,-3.0438,-2.9929,-2.9711,-2.9566,-2.9697,-2.993,-3.0133,-3.0249,-3.0557,-3.0705,-3.094,-3.0984,-3.1029,-3.1176,-3.1219,-3.1204,-3.1174,-3.1071,-3.1071,-3.1057,-3.1073,-3.1176,-3.122,-3.1235,-3.1605,-3.1946,-3.2005,-3.2109,-3.2273,-3.2333,-3.2214,-3.205,-3.1857,-3.1619,-3.1043,-3.0851,-3.0747,-3.0702,-3.0672,-3.0672,-3.0642,-3.0598,-3.0598,-3.0598,-3.051,-3.0394,-3.0278,-3.0132,-3.0161,-3.0321,-3.0496,-3.0612,-3.0612,-3.0569,-3.0612,-1.521,-1.5384,-1.5333,-1.5541,-1.5894,-1.6061,-1.6447,-1.6959,-1.7097,-1.7978,-1.9363,-1.9639,-2.0204,-2.0764,-2.1031,-2.1169,-2.119,-2.1273,-2.1336,-2.1463,-2.1632,-2.18,-2.1925,-2.2018,-2.2123,-2.2154,-2.2197,-2.2197,-2.2197,-2.2197,-2.2197,-2.2216,-2.2278,-2.2328,-2.25,-2.298,-2.3551,-2.4005,-2.4723,-2.5188,-2.5674,-2.5853,-2.5963,-2.6045,-2.6115,-2.6225,-2.6335,-2.6375,-2.6754,-2.7263,-2.7605,-2.7804,-2.8133,-2.8362,-2.8405,-2.8405,-2.8405,-2.8448,-2.8869,-2.9305,-2.9813,-2.9348,-2.9044,-2.8827,-2.8813,-2.9074,-2.9349,-2.9406,-2.9769,-3.0089,-3.0251,-3.0148,-3.0147,-3.0187,-3.0644,-3.0688,-3.0674,-3.063,-3.066,-3.0689,-3.0661,-3.0573,-3.0778,-3.0837,-3.1219,-3.153,-3.1649,-3.1678,-3.1737,-3.1738,-3.1604,-3.1442,-3.1294,-3.1072,-3.0836,-3.0791,-3.0762,-3.0732,-3.0702,-3.0717,-3.0687,-3.0569,-3.0351,-3.0132,-3.006,-3.0075,-2.9842,-2.9479,-2.974,-3.0147,-3.019,-3.0205,-3.0306,-3.0277,-3.0554,-1.5009,-1.5178,-1.4973,-1.515,-1.5532,-1.5921,-1.6132,-1.6298,-1.6568,-1.7448,-1.8667,-1.89,-1.9639,-2.0571,-2.0828,-2.1031,-2.1169,-2.1221,-2.1273,-2.14,-2.1494,-2.1663,-2.1831,-2.1956,-2.2092,-2.2154,-2.2197,-2.2197,-2.2197,-2.2197,-2.2197,-2.2197,-2.2216,-2.2247,-2.2278,-2.2919,-2.3284,-2.3522,-2.4595,-2.502,-2.5453,-2.5743,-2.5893,-2.5948,-2.5948,-2.6002,-2.6071,-2.6125,-2.6476,-2.6983,-2.7207,-2.7376,-2.7502,-2.7655,-2.7697,-2.7724,-2.7724,-2.8013,-2.8578,-2.8709,-2.8681,-2.8666,-2.8419,-2.8361,-2.8536,-2.8666,-2.868,-2.871,-2.8927,-2.8969,-2.8994,-2.905,-2.9223,-2.9413,-2.9852,-3.0043,-3.0,-3.0,-2.9971,-3.0014,-2.9957,-2.9928,-3.022,-3.0513,-3.085,-3.113,-3.1263,-3.1307,-3.1335,-3.1351,-3.1278,-3.1146,-3.1043,-3.0925,-3.0836,-3.0806,-3.0762,-3.0732,-3.0703,-3.0659,-3.0455,-3.0177,-2.9959,-2.9682,-2.9508,-2.9406,-2.9087,-2.8724,-2.8927,-2.9102,-2.9523,-2.9653,-2.9813,-3.0001,-3.0205,-1.424,-1.467,-1.4697,-1.4864,-1.515,-1.5532,-1.585,-1.6132,-1.6508,-1.7079,-1.7901,-1.8465,-1.922,-1.9987,-2.0679,-2.0924,-2.1031,-2.1169,-2.1253,-2.1273,-2.1443,-2.1612,-2.1781,-2.1968,-2.2123,-2.2166,-2.2197,-2.2197,-2.2197,-2.2197,-2.2197,-2.2197,-2.2197,-2.2197,-2.2216,-2.2592,-2.2841,-2.364,-2.4281,-2.4724,-2.5522,-2.5811,-2.5893,-2.5921,-2.5921,-2.5948,-2.6002,-2.6002,-2.6281,-2.6561,-2.6713,-2.6766,-2.686,-2.6994,-2.7021,-2.7101,-2.7128,-2.7171,-2.7389,-2.7447,-2.7636,-2.7766,-2.7752,-2.7578,-2.7474,-2.7853,-2.7964,-2.8148,-2.8372,-2.8518,-2.8794,-2.8808,-2.8894,-2.8909,-2.9127,-2.9142,-2.9142,-2.9142,-2.9127,-2.9169,-2.9169,-2.9186,-2.936,-2.9707,-3.01,-3.0436,-3.0597,-3.0981,-3.1084,-3.1217,-3.1219,-3.1117,-3.0984,-3.0895,-3.0836,-3.0791,-3.0732,-3.0672,-3.0585,-3.0498,-3.0221,-2.9799,-2.9406,-2.9073,-2.8898,-2.868,-2.8419,-2.8158,-2.7853,-2.7955,-2.8463,-2.8898,-2.9073,-2.9392,-2.9769,-1.3819,-1.4217,-1.4425,-1.4605,-1.4864,-1.5284,-1.5709,-1.6096,-1.6333,-1.6786,-1.7476,-1.8273,-1.9044,-1.9726,-2.0421,-2.0935,-2.0999,-2.1126,-2.1201,-2.1233,-2.1391,-2.1561,-2.1718,-2.1917,-2.2042,-2.2135,-2.2197,-2.2197,-2.2197,-2.2197,-2.2197,-2.2197,-2.2197,-2.2197,-2.2216,-2.2389,-2.2763,-2.3535,-2.405,-2.4624,-2.5356,-2.5757,-2.5893,-2.5921,-2.5948,-2.5975,-2.5975,-2.6029,-2.6098,-2.6152,-2.6218,-2.6326,-2.6472,-2.6578,-2.6645,-2.6753,-2.6794,-2.6808,-2.6866,-2.6881,-2.7142,-2.7331,-2.6968,-2.6823,-2.6823,-2.7215,-2.7338,-2.7538,-2.7892,-2.7995,-2.8099,-2.8128,-2.8157,-2.8142,-2.8317,-2.8317,-2.8375,-2.8375,-2.8375,-2.8443,-2.8443,-2.8461,-2.8593,-2.885,-2.9238,-2.9571,-2.989,-3.0272,-3.0625,-3.0686,-3.0732,-3.0675,-3.0632,-3.0529,-3.0601,-3.0762,-3.0702,-3.0642,-3.041,-3.0192,-2.9769,-2.9304,-2.8897,-2.8447,-2.8113,-2.7866,-2.7824,-2.7636,-2.7374,-2.7316,-2.7534,-2.7926,-2.826,-2.8753,-2.9233,-1.379,-1.3863,-1.4217,-1.4461,-1.4677,-1.5213,-1.5718,-1.6061,-1.6105,-1.6551,-1.7373,-1.791,-1.871,-1.9649,-2.0367,-2.0773,-2.096,-2.1034,-2.1086,-2.1129,-2.1123,-2.1361,-2.1569,-2.173,-2.1886,-2.2061,-2.2154,-2.2123,-2.2166,-2.2197,-2.2197,-2.2197,-2.2197,-2.2197,-2.2216,-2.2359,-2.275,-2.3357,-2.3946,-2.4538,-2.5244,-2.5702,-2.5866,-2.5921,-2.5975,-2.6002,-2.6056,-2.6125,-2.6206,-2.6299,-2.6392,-2.6445,-2.6551,-2.6686,-2.6753,-2.6794,-2.6794,-2.6794,-2.6794,-2.6794,-2.6794,-2.6953,-2.6852,-2.6794,-2.6823,-2.6895,-2.6977,-2.6977,-2.7169,-2.7038,-2.6968,-2.7012,-2.707,-2.7244,-2.7505,-2.7592,-2.7652,-2.7666,-2.7694,-2.7721,-2.7721,-2.7824,-2.8142,-2.84,-2.8395,-2.8464,-2.8693,-2.8807,-2.9144,-2.9582,-2.9675,-2.9913,-2.9915,-3.0061,-3.0178,-3.0207,-3.0163,-2.99,-2.9857,-2.9666,-2.9215,-2.875,-2.8314,-2.7806,-2.7256,-2.7067,-2.7256,-2.7171,-2.6953,-2.6968,-2.7113,-2.727,-2.7665,-2.8216,-2.8666,-1.3535,-1.3826,-1.3899,-1.4181,-1.4533,-1.5062,-1.5426,-1.5674,-1.5832,-1.614,-1.6542,-1.7696,-1.8375,-1.8777,-2.0064,-2.037,-2.0486,-2.0475,-2.0587,-2.0672,-2.078,-2.1132,-2.1389,-2.16,-2.1749,-2.1855,-2.1937,-2.2018,-2.2018,-2.2092,-2.2197,-2.2197,-2.2197,-2.2197,-2.2228,-2.2247,-2.272,-2.3267,-2.3859,-2.4481,-2.5104,-2.5647,-2.5839,-2.5921,-2.5948,-2.5975,-2.6029,-2.6111,-2.6165,-2.6192,-2.6299,-2.6379,-2.651,-2.6578,-2.6618,-2.6779,-2.6794,-2.6794,-2.6794,-2.6794,-2.6794,-2.6794,-2.6794,-2.6794,-2.6794,-2.6794,-2.6794,-2.6794,-2.6794,-2.6794,-2.6794,-2.6794,-2.6794,-2.6939,-2.7113,-2.7157,-2.7229,-2.7229,-2.7229,-2.7229,-2.7229,-2.7302,-2.7634,-2.7659,-2.761,-2.7523,-2.755,-2.7664,-2.7893,-2.8345,-2.8742,-2.901,-2.9128,-2.9275,-2.9231,-2.9246,-2.926,-2.9188,-2.9157,-2.898,-2.8474,-2.8011,-2.7644,-2.7309,-2.6992,-2.6875,-2.6864,-2.6806,-2.6779,-2.6794,-2.691,-2.6939,-2.7099,-2.7636,-2.8013,-1.3382,-1.3681,-1.3754,-1.3968,-1.423,-1.4681,-1.4924,-1.5066,-1.5546,-1.5903,-1.6237,-1.7295,-1.8012,-1.8502,-1.9447,-1.9966,-2.0087,-1.9981,-2.0011,-2.0189,-2.0377,-2.0788,-2.1094,-2.1412,-2.1632,-2.1706,-2.1831,-2.1956,-2.1944,-2.2092,-2.2197,-2.2197,-2.2197,-2.2197,-2.2197,-2.2247,-2.2641,-2.3207,-2.3829,-2.4423,-2.5006,-2.5591,-2.5811,-2.5893,-2.5921,-2.5948,-2.5975,-2.6084,-2.6165,-2.6179,-2.6286,-2.6379,-2.6498,-2.6578,-2.6551,-2.6712,-2.6753,-2.6779,-2.6794,-2.6794,-2.6794,-2.6794,-2.6794,-2.6794,-2.6794,-2.6794,-2.6794,-2.6794,-2.6794,-2.6794,-2.6794,-2.6794,-2.6794,-2.6794,-2.6808,-2.6808,-2.6808,-2.6808,-2.6823,-2.6823,-2.6823,-2.6837,-2.6893,-2.6905,-2.6945,-2.7047,-2.7091,-2.712,-2.7249,-2.7508,-2.7946,-2.8272,-2.836,-2.8434,-2.8434,-2.8507,-2.8652,-2.8638,-2.8477,-2.8202,-2.7712,-2.7447,-2.7224,-2.7076,-2.6928,-2.6858,-2.6806,-2.6806,-2.6794,-2.6794,-2.6794,-2.6837,-2.6922,-2.7111,-2.7345,-1.3309,-1.3492,-1.3717,-1.3782,-1.382,-1.4244,-1.4291,-1.4214,-1.5197,-1.5791,-1.6061,-1.6771,-1.747,-1.7906,-1.8615,-1.9194,-1.9302,-1.9276,-1.9349,-1.9602,-1.9865,-2.0266,-2.0757,-2.1086,-2.1311,-2.1592,-2.1776,-2.1819,-2.1951,-2.2037,-2.2123,-2.2197,-2.2197,-2.2197,-2.2197,-2.2197,-2.25,-2.295,-2.3535,-2.4121,-2.4836,-2.5411,-2.5839,-2.5797,-2.5921,-2.6056,-2.6098,-2.6179,-2.6286,-2.6286,-2.6313,-2.6379,-2.6486,-2.6472,-2.6472,-2.6445,-2.6445,-2.6527,-2.6594,-2.6621,-2.6727,-2.6753,-2.6794,-2.6779,-2.6779,-2.6779,-2.6794,-2.6794,-2.6794,-2.6794,-2.6794,-2.6794,-2.6794,-2.6794,-2.6794,-2.6794,-2.6794,-2.6794,-2.6794,-2.6794,-2.6794,-2.6794,-2.6794,-2.6849,-2.6875,-2.6806,-2.6806,-2.6806,-2.6864,-2.7006,-2.7241,-2.7636,-2.7665,-2.7795,-2.7969,-2.8058,-2.8248,-2.8191,-2.7901,-2.7697,-2.7376,-2.7113,-2.6849,-2.6858,-2.6884,-2.6858,-2.6806,-2.682,-2.6794,-2.6794,-2.6794,-2.6794,-2.6823,-2.6893,-2.6924,-1.3236,-1.3309,-1.3645,-1.3703,-1.3619,-1.4013,-1.4148,-1.4148,-1.453,-1.484,-1.5174,-1.5893,-1.6435,-1.6834,-1.7548,-1.809,-1.8162,-1.839,-1.8543,-1.8826,-1.9187,-1.9801,-2.0316,-2.0653,-2.0938,-2.1244,-2.1463,-2.1694,-2.1851,-2.1956,-2.2061,-2.2166,-2.2197,-2.2197,-2.2197,-2.2197,-2.2389,-2.275,-2.307,-2.3682,-2.4408,-2.485,-2.5202,-2.5356,-2.5522,-2.5797,-2.5921,-2.6056,-2.6125,-2.6152,-2.626,-2.6313,-2.6353,-2.6055,-2.5906,-2.5851,-2.596,-2.6138,-2.626,-2.642,-2.6553,-2.6659,-2.6712,-2.6698,-2.6738,-2.6779,-2.6794,-2.6794,-2.6794,-2.6794,-2.6794,-2.6794,-2.6794,-2.6794,-2.6794,-2.6794,-2.6794,-2.6794,-2.6794,-2.6794,-2.6794,-2.6794,-2.6794,-2.6794,-2.6794,-2.6779,-2.6779,-2.682,-2.682,-2.6878,-2.6893,-2.7142,-2.7055,-2.7157,-2.7403,-2.7549,-2.7654,-2.7552,-2.7289,-2.7115,-2.7055,-2.6951,-2.6846,-2.6858,-2.6858,-2.6832,-2.682,-2.682,-2.6794,-2.6794,-2.6794,-2.6794,-2.6794,-2.6823,-2.6808,-1.3046,-1.3273,-1.3746,-1.3775,-1.3576,-1.3847,-1.388,-1.3778,-1.3863,-1.3988,-1.4224,-1.504,-1.5629,-1.5789,-1.6494,-1.7113,-1.7219,-1.7341,-1.7757,-1.8137,-1.8629,-1.9238,-1.973,-2.0224,-2.0776,-2.1095,-2.1313,-2.1526,-2.18,-2.1894,-2.1999,-2.2068,-2.2099,-2.2137,-2.2149,-2.2173,-2.2279,-2.261,-2.267,-2.3062,-2.3745,-2.4208,-2.4509,-2.4709,-2.5062,-2.5314,-2.537,-2.5522,-2.5784,-2.5743,-2.5743,-2.577,-2.5797,-2.5715,-2.5591,-2.5646,-2.5769,-2.5961,-2.6084,-2.6192,-2.6353,-2.6486,-2.6578,-2.6578,-2.6645,-2.6686,-2.6779,-2.6794,-2.6794,-2.6794,-2.6794,-2.6794,-2.6794,-2.6794,-2.6794,-2.6794,-2.6794,-2.6794,-2.6794,-2.6794,-2.6794,-2.6794,-2.6794,-2.6794,-2.6794,-2.6794,-2.6794,-2.6794,-2.6794,-2.6794,-2.6794,-2.6794,-2.6794,-2.6794,-2.6997,-2.7055,-2.7041,-2.6866,-2.6794,-2.6837,-2.691,-2.6905,-2.6899,-2.6858,-2.6832,-2.6832,-2.682,-2.682,-2.6794,-2.6794,-2.6794,-2.6794,-2.6794,-2.6794,-2.6794,-1.2642,-1.3201,-1.37,-1.377,-1.3485,-1.3626,-1.3574,-1.3307,-1.3304,-1.3325,-1.3459,-1.4325,-1.4976,-1.5282,-1.5424,-1.6207,-1.6661,-1.6628,-1.7012,-1.7729,-1.8233,-1.8747,-1.9311,-1.9901,-2.0519,-2.1034,-2.1345,-2.1537,-2.1761,-2.1737,-2.1735,-2.1837,-2.1894,-2.1969,-2.2005,-2.2018,-2.2025,-2.2103,-2.2193,-2.2292,-2.289,-2.3513,-2.3774,-2.4121,-2.4465,-2.4551,-2.4624,-2.4908,-2.537,-2.508,-2.4902,-2.4915,-2.4942,-2.4955,-2.5135,-2.5162,-2.5423,-2.5738,-2.6041,-2.6152,-2.6233,-2.6326,-2.6404,-2.6443,-2.6455,-2.6549,-2.6642,-2.6695,-2.6695,-2.6765,-2.6765,-2.6779,-2.6779,-2.6794,-2.6794,-2.6794,-2.6794,-2.6794,-2.6794,-2.6794,-2.6794,-2.6794,-2.6794,-2.6794,-2.6794,-2.6794,-2.6794,-2.6794,-2.6794,-2.6794,-2.6794,-2.6794,-2.6794,-2.6794,-2.6794,-2.6794,-2.6794,-2.6794,-2.6794,-2.6794,-2.682,-2.6846,-2.6846,-2.682,-2.682,-2.682,-2.682,-2.6794,-2.6794,-2.6794,-2.6794,-2.6794,-2.6794,-2.6794,-2.6794,-1.1765,-1.2891,-1.3132,-1.3157,-1.3153,-1.3323,-1.321,-1.2977,-1.3185,-1.3316,-1.3342,-1.3439,-1.3812,-1.4171,-1.426,-1.4935,-1.5879,-1.5941,-1.6655,-1.749,-1.7796,-1.825,-1.8855,-1.9575,-2.0331,-2.0834,-2.1225,-2.151,-2.1388,-2.128,-2.1337,-2.1446,-2.1032,-2.0995,-2.0971,-2.1024,-2.1155,-2.1297,-2.1345,-2.1347,-2.1921,-2.2541,-2.317,-2.3564,-2.4018,-2.4192,-2.4481,-2.4963,-2.4609,-2.4134,-2.3838,-2.3917,-2.3983,-2.4092,-2.4229,-2.4557,-2.4829,-2.5144,-2.5404,-2.5651,-2.5717,-2.5948,-2.5999,-2.6016,-2.6069,-2.6136,-2.6215,-2.6265,-2.6335,-2.6611,-2.6666,-2.6724,-2.6753,-2.6779,-2.6794,-2.6794,-2.6794,-2.6794,-2.6794,-2.6794,-2.6794,-2.6794,-2.6794,-2.6794,-2.6794,-2.6794,-2.6794,-2.6794,-2.6794,-2.6794,-2.6794,-2.6794,-2.6794,-2.6794,-2.6794,-2.6794,-2.6794,-2.6794,-2.6794,-2.6794,-2.6794,-2.6794,-2.6794,-2.6794,-2.6794,-2.682,-2.6794,-2.6794,-2.6794,-2.6794,-2.6794,-2.6794,-2.6779,-2.6794,-2.6794]}]]